<?xml version="1.0" encoding="UTF-8" standalone="no" ?>
<gpx xmlns="http://www.topografix.com/GPX/1/1" xmlns:xsi="http://www.w3.org/2001/XMLSchema-instance" xsi:schemaLocation="http://www.topografix.com/GPX/1/1 http://www.topografix.com/GPX/1/1/gpx.xsd" version="1.1" creator="VisuGPX - https://www.visugpx.com">
  <metadata>
    <name>Rocamadour - La Pannonie</name>
    <desc><![CDATA[Boucle depuis Rocamadour passant par la chapelle de la Pannonie.]]></desc>
  </metadata>
  <trk>
    <name><![CDATA[2023-04-15 08:58]]></name>
    <desc><![CDATA[<p>Heure de départ: 09:00 15 avr. 2023<br/>Heure d'arrivée: 16:52 15 avr. 2023<br/>Distance: 18,1 km (07:52)<br/>Temps déplacement: 04:36<br/>Vitesse moyenne: 2,3 km/h<br/>Vitesse moyenne mouv.: 3,93 km/h<br/>Vitesse Max.: 6,02 km/h<br/>Altitude minimale: 129 m<br/>Altitude maximale: 330 m<br/>Vitesse de montée: 316,1 m/h<br/>Vitesse de descente: -280,5 m/h<br/>Gain d'altitude: 1169 m<br/>Perte d'altitude: -1157 m<br/>Temps de montée: 03:42<br/>Temps de descente: 04:07<br/></p><hr align="center" width="480" style="height: 2px; width: 517px"/>]]></desc>
    <trkseg>
      <trkpt lat="44.80134" lon="1.61939">
        <ele>175.1</ele>
        <time>2023-04-15T07:00:23Z</time>
      </trkpt>
      <trkpt lat="44.80126" lon="1.61931">
        <ele>175.2</ele>
        <time>2023-04-15T07:01:02Z</time>
      </trkpt>
      <trkpt lat="44.80135" lon="1.61936">
        <ele>176.7</ele>
        <time>2023-04-15T07:06:12Z</time>
      </trkpt>
      <trkpt lat="44.80126" lon="1.61933">
        <ele>174.1</ele>
        <time>2023-04-15T07:09:58Z</time>
      </trkpt>
      <trkpt lat="44.80117" lon="1.61927">
        <ele>172.8</ele>
        <time>2023-04-15T07:10:06Z</time>
      </trkpt>
      <trkpt lat="44.80111" lon="1.61916">
        <ele>172.9</ele>
        <time>2023-04-15T07:10:14Z</time>
      </trkpt>
      <trkpt lat="44.80117" lon="1.61926">
        <ele>173.2</ele>
        <time>2023-04-15T07:10:31Z</time>
      </trkpt>
      <trkpt lat="44.80125" lon="1.61934">
        <ele>173.8</ele>
        <time>2023-04-15T07:10:40Z</time>
      </trkpt>
      <trkpt lat="44.80132" lon="1.61944">
        <ele>172.5</ele>
        <time>2023-04-15T07:10:51Z</time>
      </trkpt>
      <trkpt lat="44.80137" lon="1.61954">
        <ele>173.8</ele>
        <time>2023-04-15T07:11:02Z</time>
      </trkpt>
      <trkpt lat="44.8013" lon="1.61963">
        <ele>170.1</ele>
        <time>2023-04-15T07:11:10Z</time>
      </trkpt>
      <trkpt lat="44.8013" lon="1.61977">
        <ele>167.7</ele>
        <time>2023-04-15T07:11:47Z</time>
      </trkpt>
      <trkpt lat="44.80135" lon="1.61988">
        <ele>166</ele>
        <time>2023-04-15T07:11:56Z</time>
      </trkpt>
      <trkpt lat="44.80138" lon="1.62001">
        <ele>162.2</ele>
        <time>2023-04-15T07:12:31Z</time>
      </trkpt>
      <trkpt lat="44.80143" lon="1.62011">
        <ele>160.1</ele>
        <time>2023-04-15T07:12:46Z</time>
      </trkpt>
      <trkpt lat="44.80147" lon="1.62023">
        <ele>157.2</ele>
        <time>2023-04-15T07:12:58Z</time>
      </trkpt>
      <trkpt lat="44.80154" lon="1.62032">
        <ele>158</ele>
        <time>2023-04-15T07:13:10Z</time>
      </trkpt>
      <trkpt lat="44.80155" lon="1.62044">
        <ele>154.4</ele>
        <time>2023-04-15T07:13:19Z</time>
      </trkpt>
      <trkpt lat="44.80158" lon="1.62056">
        <ele>152.6</ele>
        <time>2023-04-15T07:13:29Z</time>
      </trkpt>
      <trkpt lat="44.80158" lon="1.6207">
        <ele>148.2</ele>
        <time>2023-04-15T07:13:37Z</time>
      </trkpt>
      <trkpt lat="44.8016" lon="1.62082">
        <ele>145.4</ele>
        <time>2023-04-15T07:13:49Z</time>
      </trkpt>
      <trkpt lat="44.80165" lon="1.62093">
        <ele>144.1</ele>
        <time>2023-04-15T07:13:59Z</time>
      </trkpt>
      <trkpt lat="44.80172" lon="1.62103">
        <ele>144.2</ele>
        <time>2023-04-15T07:14:09Z</time>
      </trkpt>
      <trkpt lat="44.80178" lon="1.62112">
        <ele>144.4</ele>
        <time>2023-04-15T07:14:21Z</time>
      </trkpt>
      <trkpt lat="44.80181" lon="1.62126">
        <ele>143</ele>
        <time>2023-04-15T07:14:33Z</time>
      </trkpt>
      <trkpt lat="44.80174" lon="1.62135">
        <ele>139.5</ele>
        <time>2023-04-15T07:17:17Z</time>
      </trkpt>
      <trkpt lat="44.80166" lon="1.6214">
        <ele>136.9</ele>
        <time>2023-04-15T07:18:06Z</time>
      </trkpt>
      <trkpt lat="44.80156" lon="1.62141">
        <ele>136.6</ele>
        <time>2023-04-15T07:18:22Z</time>
      </trkpt>
      <trkpt lat="44.80162" lon="1.62152">
        <ele>136.5</ele>
        <time>2023-04-15T07:18:34Z</time>
      </trkpt>
      <trkpt lat="44.80168" lon="1.62163">
        <ele>136.2</ele>
        <time>2023-04-15T07:19:00Z</time>
      </trkpt>
      <trkpt lat="44.80171" lon="1.62176">
        <ele>136.7</ele>
        <time>2023-04-15T07:19:11Z</time>
      </trkpt>
      <trkpt lat="44.80174" lon="1.62189">
        <ele>137.2</ele>
        <time>2023-04-15T07:19:21Z</time>
      </trkpt>
      <trkpt lat="44.80178" lon="1.622">
        <ele>137.4</ele>
        <time>2023-04-15T07:19:30Z</time>
      </trkpt>
      <trkpt lat="44.80183" lon="1.62212">
        <ele>137.6</ele>
        <time>2023-04-15T07:19:39Z</time>
      </trkpt>
      <trkpt lat="44.80184" lon="1.62224">
        <ele>137.6</ele>
        <time>2023-04-15T07:19:47Z</time>
      </trkpt>
      <trkpt lat="44.80189" lon="1.62235">
        <ele>137.8</ele>
        <time>2023-04-15T07:19:57Z</time>
      </trkpt>
      <trkpt lat="44.80194" lon="1.62246">
        <ele>138</ele>
        <time>2023-04-15T07:20:19Z</time>
      </trkpt>
      <trkpt lat="44.80199" lon="1.62257">
        <ele>138.2</ele>
        <time>2023-04-15T07:20:50Z</time>
      </trkpt>
      <trkpt lat="44.80197" lon="1.62269">
        <ele>137.5</ele>
        <time>2023-04-15T07:20:58Z</time>
      </trkpt>
      <trkpt lat="44.80195" lon="1.62283">
        <ele>137</ele>
        <time>2023-04-15T07:21:08Z</time>
      </trkpt>
      <trkpt lat="44.80195" lon="1.62296">
        <ele>137</ele>
        <time>2023-04-15T07:21:18Z</time>
      </trkpt>
      <trkpt lat="44.80193" lon="1.62309">
        <ele>137</ele>
        <time>2023-04-15T07:21:27Z</time>
      </trkpt>
      <trkpt lat="44.80192" lon="1.62322">
        <ele>137</ele>
        <time>2023-04-15T07:21:36Z</time>
      </trkpt>
      <trkpt lat="44.80192" lon="1.62336">
        <ele>137</ele>
        <time>2023-04-15T07:21:46Z</time>
      </trkpt>
      <trkpt lat="44.80193" lon="1.6235">
        <ele>137</ele>
        <time>2023-04-15T07:21:55Z</time>
      </trkpt>
      <trkpt lat="44.80191" lon="1.62363">
        <ele>137.1</ele>
        <time>2023-04-15T07:22:04Z</time>
      </trkpt>
      <trkpt lat="44.80189" lon="1.62375">
        <ele>137.1</ele>
        <time>2023-04-15T07:22:13Z</time>
      </trkpt>
      <trkpt lat="44.8019" lon="1.62388">
        <ele>137</ele>
        <time>2023-04-15T07:22:22Z</time>
      </trkpt>
      <trkpt lat="44.80187" lon="1.62401">
        <ele>137</ele>
        <time>2023-04-15T07:22:32Z</time>
      </trkpt>
      <trkpt lat="44.80188" lon="1.62414">
        <ele>137</ele>
        <time>2023-04-15T07:22:42Z</time>
      </trkpt>
      <trkpt lat="44.80197" lon="1.62422">
        <ele>137</ele>
        <time>2023-04-15T07:22:53Z</time>
      </trkpt>
      <trkpt lat="44.80203" lon="1.62431">
        <ele>137.2</ele>
        <time>2023-04-15T07:23:01Z</time>
      </trkpt>
      <trkpt lat="44.80209" lon="1.62442">
        <ele>137.5</ele>
        <time>2023-04-15T07:23:08Z</time>
      </trkpt>
      <trkpt lat="44.80216" lon="1.6245">
        <ele>138.6</ele>
        <time>2023-04-15T07:23:18Z</time>
      </trkpt>
      <trkpt lat="44.80225" lon="1.62452">
        <ele>140.4</ele>
        <time>2023-04-15T07:23:33Z</time>
      </trkpt>
      <trkpt lat="44.80233" lon="1.62445">
        <ele>141.1</ele>
        <time>2023-04-15T07:23:53Z</time>
      </trkpt>
      <trkpt lat="44.80238" lon="1.62435">
        <ele>141.5</ele>
        <time>2023-04-15T07:24:01Z</time>
      </trkpt>
      <trkpt lat="44.80244" lon="1.62424">
        <ele>141.2</ele>
        <time>2023-04-15T07:24:16Z</time>
      </trkpt>
      <trkpt lat="44.80248" lon="1.62413">
        <ele>140.5</ele>
        <time>2023-04-15T07:24:26Z</time>
      </trkpt>
      <trkpt lat="44.8025" lon="1.624">
        <ele>139.8</ele>
        <time>2023-04-15T07:24:43Z</time>
      </trkpt>
      <trkpt lat="44.80244" lon="1.62412">
        <ele>139.9</ele>
        <time>2023-04-15T07:27:43Z</time>
      </trkpt>
      <trkpt lat="44.80239" lon="1.62423">
        <ele>140.2</ele>
        <time>2023-04-15T07:27:56Z</time>
      </trkpt>
      <trkpt lat="44.80232" lon="1.62432">
        <ele>139.8</ele>
        <time>2023-04-15T07:28:06Z</time>
      </trkpt>
      <trkpt lat="44.80225" lon="1.6244">
        <ele>138.5</ele>
        <time>2023-04-15T07:28:15Z</time>
      </trkpt>
      <trkpt lat="44.80217" lon="1.62449">
        <ele>138.6</ele>
        <time>2023-04-15T07:28:27Z</time>
      </trkpt>
      <trkpt lat="44.8021" lon="1.62457">
        <ele>139.1</ele>
        <time>2023-04-15T07:28:38Z</time>
      </trkpt>
      <trkpt lat="44.80202" lon="1.62463">
        <ele>138.6</ele>
        <time>2023-04-15T07:28:47Z</time>
      </trkpt>
      <trkpt lat="44.80193" lon="1.6247">
        <ele>137.9</ele>
        <time>2023-04-15T07:28:56Z</time>
      </trkpt>
      <trkpt lat="44.80185" lon="1.62476">
        <ele>138.1</ele>
        <time>2023-04-15T07:29:05Z</time>
      </trkpt>
      <trkpt lat="44.80177" lon="1.62483">
        <ele>138.3</ele>
        <time>2023-04-15T07:29:14Z</time>
      </trkpt>
      <trkpt lat="44.80169" lon="1.62491">
        <ele>138</ele>
        <time>2023-04-15T07:29:23Z</time>
      </trkpt>
      <trkpt lat="44.80162" lon="1.62501">
        <ele>138.1</ele>
        <time>2023-04-15T07:29:31Z</time>
      </trkpt>
      <trkpt lat="44.80156" lon="1.6251">
        <ele>138.7</ele>
        <time>2023-04-15T07:29:39Z</time>
      </trkpt>
      <trkpt lat="44.8015" lon="1.62521">
        <ele>138.7</ele>
        <time>2023-04-15T07:29:46Z</time>
      </trkpt>
      <trkpt lat="44.80142" lon="1.62531">
        <ele>137.9</ele>
        <time>2023-04-15T07:29:54Z</time>
      </trkpt>
      <trkpt lat="44.80139" lon="1.62544">
        <ele>138.3</ele>
        <time>2023-04-15T07:30:01Z</time>
      </trkpt>
      <trkpt lat="44.80134" lon="1.62555">
        <ele>138.8</ele>
        <time>2023-04-15T07:30:08Z</time>
      </trkpt>
      <trkpt lat="44.8013" lon="1.62568">
        <ele>140.2</ele>
        <time>2023-04-15T07:30:16Z</time>
      </trkpt>
      <trkpt lat="44.80124" lon="1.62578">
        <ele>140.2</ele>
        <time>2023-04-15T07:30:25Z</time>
      </trkpt>
      <trkpt lat="44.80116" lon="1.62586">
        <ele>139.3</ele>
        <time>2023-04-15T07:30:34Z</time>
      </trkpt>
      <trkpt lat="44.80116" lon="1.626">
        <ele>140.1</ele>
        <time>2023-04-15T07:30:42Z</time>
      </trkpt>
      <trkpt lat="44.80113" lon="1.62613">
        <ele>140.3</ele>
        <time>2023-04-15T07:30:50Z</time>
      </trkpt>
      <trkpt lat="44.80112" lon="1.62627">
        <ele>141</ele>
        <time>2023-04-15T07:30:58Z</time>
      </trkpt>
      <trkpt lat="44.80108" lon="1.6264">
        <ele>141.6</ele>
        <time>2023-04-15T07:31:06Z</time>
      </trkpt>
      <trkpt lat="44.80105" lon="1.62652">
        <ele>142.2</ele>
        <time>2023-04-15T07:31:14Z</time>
      </trkpt>
      <trkpt lat="44.80098" lon="1.62662">
        <ele>141.8</ele>
        <time>2023-04-15T07:31:21Z</time>
      </trkpt>
      <trkpt lat="44.80097" lon="1.62675">
        <ele>142.4</ele>
        <time>2023-04-15T07:31:29Z</time>
      </trkpt>
      <trkpt lat="44.80094" lon="1.62688">
        <ele>142.6</ele>
        <time>2023-04-15T07:31:38Z</time>
      </trkpt>
      <trkpt lat="44.80092" lon="1.62701">
        <ele>142.3</ele>
        <time>2023-04-15T07:31:46Z</time>
      </trkpt>
      <trkpt lat="44.80088" lon="1.62712">
        <ele>140.9</ele>
        <time>2023-04-15T07:31:54Z</time>
      </trkpt>
      <trkpt lat="44.80088" lon="1.62725">
        <ele>141.1</ele>
        <time>2023-04-15T07:32:02Z</time>
      </trkpt>
      <trkpt lat="44.80087" lon="1.6274">
        <ele>141</ele>
        <time>2023-04-15T07:32:11Z</time>
      </trkpt>
      <trkpt lat="44.80091" lon="1.62752">
        <ele>143.8</ele>
        <time>2023-04-15T07:32:18Z</time>
      </trkpt>
      <trkpt lat="44.80087" lon="1.62764">
        <ele>142.7</ele>
        <time>2023-04-15T07:32:26Z</time>
      </trkpt>
      <trkpt lat="44.80086" lon="1.62778">
        <ele>143.8</ele>
        <time>2023-04-15T07:32:35Z</time>
      </trkpt>
      <trkpt lat="44.80084" lon="1.62792">
        <ele>143.7</ele>
        <time>2023-04-15T07:32:44Z</time>
      </trkpt>
      <trkpt lat="44.80083" lon="1.62806">
        <ele>144</ele>
        <time>2023-04-15T07:32:52Z</time>
      </trkpt>
      <trkpt lat="44.80082" lon="1.62819">
        <ele>143.8</ele>
        <time>2023-04-15T07:33:00Z</time>
      </trkpt>
      <trkpt lat="44.80083" lon="1.62832">
        <ele>143.9</ele>
        <time>2023-04-15T07:33:08Z</time>
      </trkpt>
      <trkpt lat="44.80082" lon="1.62847">
        <ele>144.6</ele>
        <time>2023-04-15T07:33:17Z</time>
      </trkpt>
      <trkpt lat="44.8008" lon="1.6286">
        <ele>145</ele>
        <time>2023-04-15T07:33:25Z</time>
      </trkpt>
      <trkpt lat="44.80078" lon="1.62873">
        <ele>145.8</ele>
        <time>2023-04-15T07:33:33Z</time>
      </trkpt>
      <trkpt lat="44.80076" lon="1.62886">
        <ele>146.1</ele>
        <time>2023-04-15T07:33:42Z</time>
      </trkpt>
      <trkpt lat="44.80075" lon="1.629">
        <ele>146.3</ele>
        <time>2023-04-15T07:33:51Z</time>
      </trkpt>
      <trkpt lat="44.80071" lon="1.62911">
        <ele>145.1</ele>
        <time>2023-04-15T07:34:00Z</time>
      </trkpt>
      <trkpt lat="44.80066" lon="1.62922">
        <ele>143.7</ele>
        <time>2023-04-15T07:34:09Z</time>
      </trkpt>
      <trkpt lat="44.80063" lon="1.62934">
        <ele>143.2</ele>
        <time>2023-04-15T07:34:17Z</time>
      </trkpt>
      <trkpt lat="44.80061" lon="1.62946">
        <ele>143.4</ele>
        <time>2023-04-15T07:34:23Z</time>
      </trkpt>
      <trkpt lat="44.8006" lon="1.6296">
        <ele>144.4</ele>
        <time>2023-04-15T07:34:31Z</time>
      </trkpt>
      <trkpt lat="44.80057" lon="1.62973">
        <ele>144.1</ele>
        <time>2023-04-15T07:34:39Z</time>
      </trkpt>
      <trkpt lat="44.80053" lon="1.62985">
        <ele>144.4</ele>
        <time>2023-04-15T07:34:47Z</time>
      </trkpt>
      <trkpt lat="44.80048" lon="1.62997">
        <ele>144.6</ele>
        <time>2023-04-15T07:34:56Z</time>
      </trkpt>
      <trkpt lat="44.80045" lon="1.63009">
        <ele>145</ele>
        <time>2023-04-15T07:35:04Z</time>
      </trkpt>
      <trkpt lat="44.8004" lon="1.6302">
        <ele>144.4</ele>
        <time>2023-04-15T07:35:12Z</time>
      </trkpt>
      <trkpt lat="44.80034" lon="1.63032">
        <ele>143.3</ele>
        <time>2023-04-15T07:35:21Z</time>
      </trkpt>
      <trkpt lat="44.80029" lon="1.63042">
        <ele>141.7</ele>
        <time>2023-04-15T07:35:28Z</time>
      </trkpt>
      <trkpt lat="44.80026" lon="1.63054">
        <ele>141.8</ele>
        <time>2023-04-15T07:35:37Z</time>
      </trkpt>
      <trkpt lat="44.80025" lon="1.63067">
        <ele>143.6</ele>
        <time>2023-04-15T07:35:46Z</time>
      </trkpt>
      <trkpt lat="44.8002" lon="1.63079">
        <ele>144.8</ele>
        <time>2023-04-15T07:35:55Z</time>
      </trkpt>
      <trkpt lat="44.80017" lon="1.63091">
        <ele>145.7</ele>
        <time>2023-04-15T07:36:04Z</time>
      </trkpt>
      <trkpt lat="44.80013" lon="1.63103">
        <ele>145.5</ele>
        <time>2023-04-15T07:36:13Z</time>
      </trkpt>
      <trkpt lat="44.8001" lon="1.63115">
        <ele>145.6</ele>
        <time>2023-04-15T07:36:21Z</time>
      </trkpt>
      <trkpt lat="44.80004" lon="1.63126">
        <ele>144.1</ele>
        <time>2023-04-15T07:36:29Z</time>
      </trkpt>
      <trkpt lat="44.79997" lon="1.63136">
        <ele>143.2</ele>
        <time>2023-04-15T07:36:38Z</time>
      </trkpt>
      <trkpt lat="44.79994" lon="1.63147">
        <ele>144.2</ele>
        <time>2023-04-15T07:36:46Z</time>
      </trkpt>
      <trkpt lat="44.79987" lon="1.63157">
        <ele>144</ele>
        <time>2023-04-15T07:36:55Z</time>
      </trkpt>
      <trkpt lat="44.79981" lon="1.63166">
        <ele>142.8</ele>
        <time>2023-04-15T07:37:02Z</time>
      </trkpt>
      <trkpt lat="44.79976" lon="1.63178">
        <ele>141.7</ele>
        <time>2023-04-15T07:37:10Z</time>
      </trkpt>
      <trkpt lat="44.79974" lon="1.63191">
        <ele>142.1</ele>
        <time>2023-04-15T07:37:18Z</time>
      </trkpt>
      <trkpt lat="44.79971" lon="1.63205">
        <ele>142</ele>
        <time>2023-04-15T07:37:27Z</time>
      </trkpt>
      <trkpt lat="44.79971" lon="1.63219">
        <ele>141.9</ele>
        <time>2023-04-15T07:37:37Z</time>
      </trkpt>
      <trkpt lat="44.79971" lon="1.63232">
        <ele>142.7</ele>
        <time>2023-04-15T07:37:46Z</time>
      </trkpt>
      <trkpt lat="44.7997" lon="1.63246">
        <ele>143.6</ele>
        <time>2023-04-15T07:37:56Z</time>
      </trkpt>
      <trkpt lat="44.79966" lon="1.63258">
        <ele>144.8</ele>
        <time>2023-04-15T07:38:06Z</time>
      </trkpt>
      <trkpt lat="44.7996" lon="1.63269">
        <ele>145.4</ele>
        <time>2023-04-15T07:38:17Z</time>
      </trkpt>
      <trkpt lat="44.79958" lon="1.63281">
        <ele>146.3</ele>
        <time>2023-04-15T07:38:27Z</time>
      </trkpt>
      <trkpt lat="44.79955" lon="1.63294">
        <ele>147.7</ele>
        <time>2023-04-15T07:38:38Z</time>
      </trkpt>
      <trkpt lat="44.79954" lon="1.63308">
        <ele>149.2</ele>
        <time>2023-04-15T07:38:49Z</time>
      </trkpt>
      <trkpt lat="44.79951" lon="1.6332">
        <ele>147.6</ele>
        <time>2023-04-15T07:38:58Z</time>
      </trkpt>
      <trkpt lat="44.79947" lon="1.63332">
        <ele>145.6</ele>
        <time>2023-04-15T07:39:08Z</time>
      </trkpt>
      <trkpt lat="44.79946" lon="1.63345">
        <ele>145.8</ele>
        <time>2023-04-15T07:39:16Z</time>
      </trkpt>
      <trkpt lat="44.79946" lon="1.63358">
        <ele>146.7</ele>
        <time>2023-04-15T07:39:23Z</time>
      </trkpt>
      <trkpt lat="44.79945" lon="1.63371">
        <ele>146.8</ele>
        <time>2023-04-15T07:39:31Z</time>
      </trkpt>
      <trkpt lat="44.79943" lon="1.63385">
        <ele>146.5</ele>
        <time>2023-04-15T07:39:40Z</time>
      </trkpt>
      <trkpt lat="44.79941" lon="1.63398">
        <ele>146.7</ele>
        <time>2023-04-15T07:39:49Z</time>
      </trkpt>
      <trkpt lat="44.79938" lon="1.63411">
        <ele>146.5</ele>
        <time>2023-04-15T07:39:57Z</time>
      </trkpt>
      <trkpt lat="44.79938" lon="1.63425">
        <ele>147.1</ele>
        <time>2023-04-15T07:40:05Z</time>
      </trkpt>
      <trkpt lat="44.79937" lon="1.63437">
        <ele>147.6</ele>
        <time>2023-04-15T07:40:12Z</time>
      </trkpt>
      <trkpt lat="44.79935" lon="1.6345">
        <ele>147.7</ele>
        <time>2023-04-15T07:40:20Z</time>
      </trkpt>
      <trkpt lat="44.79934" lon="1.63463">
        <ele>148.1</ele>
        <time>2023-04-15T07:40:28Z</time>
      </trkpt>
      <trkpt lat="44.79929" lon="1.63476">
        <ele>147.2</ele>
        <time>2023-04-15T07:40:37Z</time>
      </trkpt>
      <trkpt lat="44.79925" lon="1.63488">
        <ele>146.9</ele>
        <time>2023-04-15T07:40:46Z</time>
      </trkpt>
      <trkpt lat="44.79919" lon="1.63499">
        <ele>145.1</ele>
        <time>2023-04-15T07:40:54Z</time>
      </trkpt>
      <trkpt lat="44.79915" lon="1.63511">
        <ele>145</ele>
        <time>2023-04-15T07:41:03Z</time>
      </trkpt>
      <trkpt lat="44.79911" lon="1.63524">
        <ele>145.7</ele>
        <time>2023-04-15T07:41:12Z</time>
      </trkpt>
      <trkpt lat="44.79907" lon="1.63537">
        <ele>146.5</ele>
        <time>2023-04-15T07:41:21Z</time>
      </trkpt>
      <trkpt lat="44.79903" lon="1.63548">
        <ele>146.8</ele>
        <time>2023-04-15T07:41:29Z</time>
      </trkpt>
      <trkpt lat="44.79896" lon="1.63558">
        <ele>145.8</ele>
        <time>2023-04-15T07:41:36Z</time>
      </trkpt>
      <trkpt lat="44.79888" lon="1.63566">
        <ele>145.1</ele>
        <time>2023-04-15T07:41:45Z</time>
      </trkpt>
      <trkpt lat="44.79881" lon="1.63574">
        <ele>145.9</ele>
        <time>2023-04-15T07:41:57Z</time>
      </trkpt>
      <trkpt lat="44.79873" lon="1.6358">
        <ele>145.2</ele>
        <time>2023-04-15T07:42:06Z</time>
      </trkpt>
      <trkpt lat="44.79863" lon="1.63585">
        <ele>143.9</ele>
        <time>2023-04-15T07:42:14Z</time>
      </trkpt>
      <trkpt lat="44.79855" lon="1.63591">
        <ele>144.5</ele>
        <time>2023-04-15T07:42:23Z</time>
      </trkpt>
      <trkpt lat="44.79846" lon="1.63598">
        <ele>144.9</ele>
        <time>2023-04-15T07:42:33Z</time>
      </trkpt>
      <trkpt lat="44.79838" lon="1.63604">
        <ele>144.8</ele>
        <time>2023-04-15T07:42:44Z</time>
      </trkpt>
      <trkpt lat="44.79828" lon="1.63605">
        <ele>144.2</ele>
        <time>2023-04-15T07:42:52Z</time>
      </trkpt>
      <trkpt lat="44.79819" lon="1.63609">
        <ele>144.3</ele>
        <time>2023-04-15T07:43:01Z</time>
      </trkpt>
      <trkpt lat="44.79809" lon="1.63609">
        <ele>143.9</ele>
        <time>2023-04-15T07:43:08Z</time>
      </trkpt>
      <trkpt lat="44.798" lon="1.63611">
        <ele>144</ele>
        <time>2023-04-15T07:43:17Z</time>
      </trkpt>
      <trkpt lat="44.79791" lon="1.63614">
        <ele>145.3</ele>
        <time>2023-04-15T07:43:24Z</time>
      </trkpt>
      <trkpt lat="44.79781" lon="1.63614">
        <ele>145.4</ele>
        <time>2023-04-15T07:43:32Z</time>
      </trkpt>
      <trkpt lat="44.79771" lon="1.6361">
        <ele>144.7</ele>
        <time>2023-04-15T07:43:43Z</time>
      </trkpt>
      <trkpt lat="44.79762" lon="1.63608">
        <ele>145.4</ele>
        <time>2023-04-15T07:43:52Z</time>
      </trkpt>
      <trkpt lat="44.79753" lon="1.63604">
        <ele>145.8</ele>
        <time>2023-04-15T07:44:02Z</time>
      </trkpt>
      <trkpt lat="44.79744" lon="1.63598">
        <ele>145.9</ele>
        <time>2023-04-15T07:44:11Z</time>
      </trkpt>
      <trkpt lat="44.79735" lon="1.63595">
        <ele>146.2</ele>
        <time>2023-04-15T07:44:18Z</time>
      </trkpt>
      <trkpt lat="44.79726" lon="1.6359">
        <ele>145.4</ele>
        <time>2023-04-15T07:44:27Z</time>
      </trkpt>
      <trkpt lat="44.79716" lon="1.63587">
        <ele>144.7</ele>
        <time>2023-04-15T07:44:36Z</time>
      </trkpt>
      <trkpt lat="44.79707" lon="1.63585">
        <ele>144.1</ele>
        <time>2023-04-15T07:44:45Z</time>
      </trkpt>
      <trkpt lat="44.79698" lon="1.63584">
        <ele>144.2</ele>
        <time>2023-04-15T07:44:54Z</time>
      </trkpt>
      <trkpt lat="44.79688" lon="1.63586">
        <ele>145</ele>
        <time>2023-04-15T07:45:04Z</time>
      </trkpt>
      <trkpt lat="44.79679" lon="1.63588">
        <ele>145.4</ele>
        <time>2023-04-15T07:45:12Z</time>
      </trkpt>
      <trkpt lat="44.7967" lon="1.63592">
        <ele>146.4</ele>
        <time>2023-04-15T07:45:20Z</time>
      </trkpt>
      <trkpt lat="44.79661" lon="1.63592">
        <ele>146.3</ele>
        <time>2023-04-15T07:45:28Z</time>
      </trkpt>
      <trkpt lat="44.79651" lon="1.63596">
        <ele>146.8</ele>
        <time>2023-04-15T07:45:37Z</time>
      </trkpt>
      <trkpt lat="44.79642" lon="1.63601">
        <ele>147</ele>
        <time>2023-04-15T07:45:44Z</time>
      </trkpt>
      <trkpt lat="44.79635" lon="1.63608">
        <ele>147.1</ele>
        <time>2023-04-15T07:45:52Z</time>
      </trkpt>
      <trkpt lat="44.79627" lon="1.63615">
        <ele>147.5</ele>
        <time>2023-04-15T07:46:00Z</time>
      </trkpt>
      <trkpt lat="44.79619" lon="1.63623">
        <ele>148.3</ele>
        <time>2023-04-15T07:46:08Z</time>
      </trkpt>
      <trkpt lat="44.79611" lon="1.6363">
        <ele>148.2</ele>
        <time>2023-04-15T07:46:16Z</time>
      </trkpt>
      <trkpt lat="44.79602" lon="1.63637">
        <ele>147.7</ele>
        <time>2023-04-15T07:46:23Z</time>
      </trkpt>
      <trkpt lat="44.79594" lon="1.63645">
        <ele>147.5</ele>
        <time>2023-04-15T07:46:31Z</time>
      </trkpt>
      <trkpt lat="44.79585" lon="1.63653">
        <ele>146.2</ele>
        <time>2023-04-15T07:46:38Z</time>
      </trkpt>
      <trkpt lat="44.79582" lon="1.63664">
        <ele>146.6</ele>
        <time>2023-04-15T07:46:46Z</time>
      </trkpt>
      <trkpt lat="44.79575" lon="1.63674">
        <ele>147.5</ele>
        <time>2023-04-15T07:46:54Z</time>
      </trkpt>
      <trkpt lat="44.7957" lon="1.63686">
        <ele>148.5</ele>
        <time>2023-04-15T07:47:02Z</time>
      </trkpt>
      <trkpt lat="44.79566" lon="1.63699">
        <ele>148.9</ele>
        <time>2023-04-15T07:47:11Z</time>
      </trkpt>
      <trkpt lat="44.79563" lon="1.63712">
        <ele>149.1</ele>
        <time>2023-04-15T07:47:20Z</time>
      </trkpt>
      <trkpt lat="44.79558" lon="1.63725">
        <ele>148</ele>
        <time>2023-04-15T07:47:29Z</time>
      </trkpt>
      <trkpt lat="44.79556" lon="1.63737">
        <ele>149.2</ele>
        <time>2023-04-15T07:47:38Z</time>
      </trkpt>
      <trkpt lat="44.79552" lon="1.63749">
        <ele>150.9</ele>
        <time>2023-04-15T07:47:47Z</time>
      </trkpt>
      <trkpt lat="44.79548" lon="1.63761">
        <ele>151.2</ele>
        <time>2023-04-15T07:47:55Z</time>
      </trkpt>
      <trkpt lat="44.79546" lon="1.63774">
        <ele>151.7</ele>
        <time>2023-04-15T07:48:05Z</time>
      </trkpt>
      <trkpt lat="44.79543" lon="1.63786">
        <ele>151.5</ele>
        <time>2023-04-15T07:48:12Z</time>
      </trkpt>
      <trkpt lat="44.7954" lon="1.638">
        <ele>151.3</ele>
        <time>2023-04-15T07:48:20Z</time>
      </trkpt>
      <trkpt lat="44.7954" lon="1.63813">
        <ele>152.6</ele>
        <time>2023-04-15T07:48:27Z</time>
      </trkpt>
      <trkpt lat="44.79538" lon="1.63827">
        <ele>152.8</ele>
        <time>2023-04-15T07:48:35Z</time>
      </trkpt>
      <trkpt lat="44.79533" lon="1.63839">
        <ele>151.6</ele>
        <time>2023-04-15T07:48:43Z</time>
      </trkpt>
      <trkpt lat="44.79528" lon="1.63851">
        <ele>150.1</ele>
        <time>2023-04-15T07:48:51Z</time>
      </trkpt>
      <trkpt lat="44.79523" lon="1.63864">
        <ele>150.3</ele>
        <time>2023-04-15T07:48:59Z</time>
      </trkpt>
      <trkpt lat="44.7952" lon="1.63877">
        <ele>150.9</ele>
        <time>2023-04-15T07:49:07Z</time>
      </trkpt>
      <trkpt lat="44.79517" lon="1.6389">
        <ele>151.3</ele>
        <time>2023-04-15T07:49:15Z</time>
      </trkpt>
      <trkpt lat="44.79515" lon="1.63903">
        <ele>151.9</ele>
        <time>2023-04-15T07:49:22Z</time>
      </trkpt>
      <trkpt lat="44.7951" lon="1.63915">
        <ele>150.5</ele>
        <time>2023-04-15T07:49:30Z</time>
      </trkpt>
      <trkpt lat="44.79506" lon="1.63926">
        <ele>149.6</ele>
        <time>2023-04-15T07:49:38Z</time>
      </trkpt>
      <trkpt lat="44.79501" lon="1.63937">
        <ele>148.4</ele>
        <time>2023-04-15T07:49:46Z</time>
      </trkpt>
      <trkpt lat="44.79496" lon="1.63949">
        <ele>149.3</ele>
        <time>2023-04-15T07:49:53Z</time>
      </trkpt>
      <trkpt lat="44.79491" lon="1.63961">
        <ele>150.4</ele>
        <time>2023-04-15T07:50:01Z</time>
      </trkpt>
      <trkpt lat="44.79488" lon="1.63973">
        <ele>151.1</ele>
        <time>2023-04-15T07:50:09Z</time>
      </trkpt>
      <trkpt lat="44.79481" lon="1.63984">
        <ele>149.7</ele>
        <time>2023-04-15T07:50:17Z</time>
      </trkpt>
      <trkpt lat="44.79477" lon="1.63996">
        <ele>149.2</ele>
        <time>2023-04-15T07:50:24Z</time>
      </trkpt>
      <trkpt lat="44.79474" lon="1.64009">
        <ele>148.4</ele>
        <time>2023-04-15T07:50:32Z</time>
      </trkpt>
      <trkpt lat="44.79472" lon="1.64021">
        <ele>147.7</ele>
        <time>2023-04-15T07:50:41Z</time>
      </trkpt>
      <trkpt lat="44.79473" lon="1.64034">
        <ele>148.4</ele>
        <time>2023-04-15T07:50:49Z</time>
      </trkpt>
      <trkpt lat="44.79474" lon="1.64048">
        <ele>148.4</ele>
        <time>2023-04-15T07:50:58Z</time>
      </trkpt>
      <trkpt lat="44.79476" lon="1.64061">
        <ele>148.9</ele>
        <time>2023-04-15T07:51:06Z</time>
      </trkpt>
      <trkpt lat="44.79478" lon="1.64074">
        <ele>150.6</ele>
        <time>2023-04-15T07:51:14Z</time>
      </trkpt>
      <trkpt lat="44.79479" lon="1.64088">
        <ele>150.8</ele>
        <time>2023-04-15T07:51:22Z</time>
      </trkpt>
      <trkpt lat="44.79481" lon="1.64101">
        <ele>150.9</ele>
        <time>2023-04-15T07:51:30Z</time>
      </trkpt>
      <trkpt lat="44.79485" lon="1.64113">
        <ele>151.8</ele>
        <time>2023-04-15T07:51:37Z</time>
      </trkpt>
      <trkpt lat="44.7949" lon="1.64123">
        <ele>152.8</ele>
        <time>2023-04-15T07:51:44Z</time>
      </trkpt>
      <trkpt lat="44.79493" lon="1.64136">
        <ele>152</ele>
        <time>2023-04-15T07:51:52Z</time>
      </trkpt>
      <trkpt lat="44.79498" lon="1.64147">
        <ele>151.2</ele>
        <time>2023-04-15T07:52:00Z</time>
      </trkpt>
      <trkpt lat="44.79503" lon="1.64158">
        <ele>151.5</ele>
        <time>2023-04-15T07:52:08Z</time>
      </trkpt>
      <trkpt lat="44.79506" lon="1.64171">
        <ele>151.2</ele>
        <time>2023-04-15T07:52:18Z</time>
      </trkpt>
      <trkpt lat="44.79511" lon="1.64182">
        <ele>152.2</ele>
        <time>2023-04-15T07:52:26Z</time>
      </trkpt>
      <trkpt lat="44.79516" lon="1.64193">
        <ele>151.9</ele>
        <time>2023-04-15T07:52:36Z</time>
      </trkpt>
      <trkpt lat="44.79521" lon="1.64203">
        <ele>151.4</ele>
        <time>2023-04-15T07:52:45Z</time>
      </trkpt>
      <trkpt lat="44.79528" lon="1.64215">
        <ele>149.9</ele>
        <time>2023-04-15T07:52:55Z</time>
      </trkpt>
      <trkpt lat="44.79534" lon="1.64223">
        <ele>150.6</ele>
        <time>2023-04-15T07:53:02Z</time>
      </trkpt>
      <trkpt lat="44.79541" lon="1.64234">
        <ele>152.1</ele>
        <time>2023-04-15T07:53:10Z</time>
      </trkpt>
      <trkpt lat="44.79547" lon="1.64244">
        <ele>152.3</ele>
        <time>2023-04-15T07:53:19Z</time>
      </trkpt>
      <trkpt lat="44.79554" lon="1.64253">
        <ele>152.1</ele>
        <time>2023-04-15T07:53:28Z</time>
      </trkpt>
      <trkpt lat="44.7956" lon="1.64263">
        <ele>152.2</ele>
        <time>2023-04-15T07:53:36Z</time>
      </trkpt>
      <trkpt lat="44.79568" lon="1.64273">
        <ele>152.5</ele>
        <time>2023-04-15T07:53:45Z</time>
      </trkpt>
      <trkpt lat="44.79575" lon="1.64281">
        <ele>152.8</ele>
        <time>2023-04-15T07:53:53Z</time>
      </trkpt>
      <trkpt lat="44.79583" lon="1.64287">
        <ele>153.4</ele>
        <time>2023-04-15T07:54:01Z</time>
      </trkpt>
      <trkpt lat="44.79592" lon="1.64289">
        <ele>153.1</ele>
        <time>2023-04-15T07:54:09Z</time>
      </trkpt>
      <trkpt lat="44.79602" lon="1.64292">
        <ele>152.5</ele>
        <time>2023-04-15T07:54:18Z</time>
      </trkpt>
      <trkpt lat="44.79611" lon="1.64291">
        <ele>153.3</ele>
        <time>2023-04-15T07:54:26Z</time>
      </trkpt>
      <trkpt lat="44.7962" lon="1.64289">
        <ele>153.6</ele>
        <time>2023-04-15T07:54:34Z</time>
      </trkpt>
      <trkpt lat="44.7963" lon="1.64285">
        <ele>154.4</ele>
        <time>2023-04-15T07:54:41Z</time>
      </trkpt>
      <trkpt lat="44.79639" lon="1.64281">
        <ele>155</ele>
        <time>2023-04-15T07:54:51Z</time>
      </trkpt>
      <trkpt lat="44.79647" lon="1.64276">
        <ele>154.7</ele>
        <time>2023-04-15T07:55:00Z</time>
      </trkpt>
      <trkpt lat="44.79655" lon="1.64269">
        <ele>155.2</ele>
        <time>2023-04-15T07:55:09Z</time>
      </trkpt>
      <trkpt lat="44.79664" lon="1.64262">
        <ele>156.4</ele>
        <time>2023-04-15T07:55:20Z</time>
      </trkpt>
      <trkpt lat="44.79672" lon="1.64256">
        <ele>156.9</ele>
        <time>2023-04-15T07:55:29Z</time>
      </trkpt>
      <trkpt lat="44.7968" lon="1.64248">
        <ele>156.4</ele>
        <time>2023-04-15T07:55:38Z</time>
      </trkpt>
      <trkpt lat="44.79689" lon="1.64244">
        <ele>155.7</ele>
        <time>2023-04-15T07:55:45Z</time>
      </trkpt>
      <trkpt lat="44.79698" lon="1.64238">
        <ele>156.4</ele>
        <time>2023-04-15T07:55:53Z</time>
      </trkpt>
      <trkpt lat="44.79707" lon="1.64236">
        <ele>156.9</ele>
        <time>2023-04-15T07:56:03Z</time>
      </trkpt>
      <trkpt lat="44.79717" lon="1.64238">
        <ele>155.4</ele>
        <time>2023-04-15T07:56:11Z</time>
      </trkpt>
      <trkpt lat="44.79727" lon="1.6424">
        <ele>154.2</ele>
        <time>2023-04-15T07:56:20Z</time>
      </trkpt>
      <trkpt lat="44.79736" lon="1.6424">
        <ele>154.1</ele>
        <time>2023-04-15T07:56:28Z</time>
      </trkpt>
      <trkpt lat="44.79746" lon="1.64242">
        <ele>153.4</ele>
        <time>2023-04-15T07:56:36Z</time>
      </trkpt>
      <trkpt lat="44.79755" lon="1.64242">
        <ele>153.1</ele>
        <time>2023-04-15T07:56:43Z</time>
      </trkpt>
      <trkpt lat="44.79764" lon="1.64242">
        <ele>153.1</ele>
        <time>2023-04-15T07:56:50Z</time>
      </trkpt>
      <trkpt lat="44.79773" lon="1.64243">
        <ele>152.6</ele>
        <time>2023-04-15T07:56:59Z</time>
      </trkpt>
      <trkpt lat="44.79782" lon="1.64243">
        <ele>152.4</ele>
        <time>2023-04-15T07:57:08Z</time>
      </trkpt>
      <trkpt lat="44.79792" lon="1.64246">
        <ele>151.4</ele>
        <time>2023-04-15T07:57:17Z</time>
      </trkpt>
      <trkpt lat="44.79801" lon="1.64242">
        <ele>153.2</ele>
        <time>2023-04-15T07:57:26Z</time>
      </trkpt>
      <trkpt lat="44.7981" lon="1.64237">
        <ele>154.6</ele>
        <time>2023-04-15T07:57:36Z</time>
      </trkpt>
      <trkpt lat="44.79818" lon="1.6423">
        <ele>155.6</ele>
        <time>2023-04-15T07:57:44Z</time>
      </trkpt>
      <trkpt lat="44.79826" lon="1.6422">
        <ele>156.7</ele>
        <time>2023-04-15T07:57:51Z</time>
      </trkpt>
      <trkpt lat="44.79833" lon="1.64212">
        <ele>157.3</ele>
        <time>2023-04-15T07:57:58Z</time>
      </trkpt>
      <trkpt lat="44.79841" lon="1.64207">
        <ele>157.2</ele>
        <time>2023-04-15T07:58:05Z</time>
      </trkpt>
      <trkpt lat="44.7985" lon="1.64202">
        <ele>156.6</ele>
        <time>2023-04-15T07:58:13Z</time>
      </trkpt>
      <trkpt lat="44.7986" lon="1.642">
        <ele>154.9</ele>
        <time>2023-04-15T07:58:20Z</time>
      </trkpt>
      <trkpt lat="44.79869" lon="1.642">
        <ele>155.1</ele>
        <time>2023-04-15T07:58:28Z</time>
      </trkpt>
      <trkpt lat="44.79879" lon="1.64203">
        <ele>155.1</ele>
        <time>2023-04-15T07:58:38Z</time>
      </trkpt>
      <trkpt lat="44.79885" lon="1.64213">
        <ele>153.2</ele>
        <time>2023-04-15T07:58:46Z</time>
      </trkpt>
      <trkpt lat="44.79893" lon="1.64222">
        <ele>152.6</ele>
        <time>2023-04-15T07:58:56Z</time>
      </trkpt>
      <trkpt lat="44.79898" lon="1.64233">
        <ele>153.9</ele>
        <time>2023-04-15T07:59:04Z</time>
      </trkpt>
      <trkpt lat="44.79903" lon="1.64244">
        <ele>154.7</ele>
        <time>2023-04-15T08:08:52Z</time>
      </trkpt>
      <trkpt lat="44.79906" lon="1.64258">
        <ele>154.5</ele>
        <time>2023-04-15T08:09:01Z</time>
      </trkpt>
      <trkpt lat="44.79911" lon="1.64269">
        <ele>154.9</ele>
        <time>2023-04-15T08:09:09Z</time>
      </trkpt>
      <trkpt lat="44.79915" lon="1.64282">
        <ele>154.3</ele>
        <time>2023-04-15T08:09:17Z</time>
      </trkpt>
      <trkpt lat="44.79919" lon="1.64294">
        <ele>154.5</ele>
        <time>2023-04-15T08:09:25Z</time>
      </trkpt>
      <trkpt lat="44.79923" lon="1.64308">
        <ele>155.8</ele>
        <time>2023-04-15T08:09:35Z</time>
      </trkpt>
      <trkpt lat="44.79927" lon="1.6432">
        <ele>156.7</ele>
        <time>2023-04-15T08:09:44Z</time>
      </trkpt>
      <trkpt lat="44.79929" lon="1.64334">
        <ele>155.9</ele>
        <time>2023-04-15T08:09:54Z</time>
      </trkpt>
      <trkpt lat="44.79928" lon="1.64347">
        <ele>156</ele>
        <time>2023-04-15T08:10:04Z</time>
      </trkpt>
      <trkpt lat="44.79923" lon="1.64357">
        <ele>154.7</ele>
        <time>2023-04-15T08:10:12Z</time>
      </trkpt>
      <trkpt lat="44.7992" lon="1.6437">
        <ele>154.1</ele>
        <time>2023-04-15T08:10:21Z</time>
      </trkpt>
      <trkpt lat="44.79917" lon="1.64384">
        <ele>153</ele>
        <time>2023-04-15T08:10:29Z</time>
      </trkpt>
      <trkpt lat="44.79917" lon="1.64397">
        <ele>152.7</ele>
        <time>2023-04-15T08:10:37Z</time>
      </trkpt>
      <trkpt lat="44.7992" lon="1.64409">
        <ele>153.7</ele>
        <time>2023-04-15T08:10:46Z</time>
      </trkpt>
      <trkpt lat="44.79923" lon="1.64421">
        <ele>155.3</ele>
        <time>2023-04-15T08:10:53Z</time>
      </trkpt>
      <trkpt lat="44.79925" lon="1.64434">
        <ele>156</ele>
        <time>2023-04-15T08:11:01Z</time>
      </trkpt>
      <trkpt lat="44.79928" lon="1.64446">
        <ele>157</ele>
        <time>2023-04-15T08:11:10Z</time>
      </trkpt>
      <trkpt lat="44.79931" lon="1.6446">
        <ele>158.1</ele>
        <time>2023-04-15T08:11:18Z</time>
      </trkpt>
      <trkpt lat="44.79934" lon="1.64472">
        <ele>159</ele>
        <time>2023-04-15T08:11:26Z</time>
      </trkpt>
      <trkpt lat="44.79936" lon="1.64486">
        <ele>158.5</ele>
        <time>2023-04-15T08:11:35Z</time>
      </trkpt>
      <trkpt lat="44.79938" lon="1.64499">
        <ele>158.1</ele>
        <time>2023-04-15T08:11:44Z</time>
      </trkpt>
      <trkpt lat="44.79939" lon="1.64512">
        <ele>157.3</ele>
        <time>2023-04-15T08:11:52Z</time>
      </trkpt>
      <trkpt lat="44.79938" lon="1.64525">
        <ele>156.1</ele>
        <time>2023-04-15T08:12:00Z</time>
      </trkpt>
      <trkpt lat="44.79939" lon="1.64538">
        <ele>155.8</ele>
        <time>2023-04-15T08:12:07Z</time>
      </trkpt>
      <trkpt lat="44.79941" lon="1.64551">
        <ele>155.7</ele>
        <time>2023-04-15T08:12:14Z</time>
      </trkpt>
      <trkpt lat="44.79943" lon="1.64565">
        <ele>155.7</ele>
        <time>2023-04-15T08:12:22Z</time>
      </trkpt>
      <trkpt lat="44.79944" lon="1.64578">
        <ele>155.9</ele>
        <time>2023-04-15T08:12:30Z</time>
      </trkpt>
      <trkpt lat="44.79944" lon="1.64592">
        <ele>156.3</ele>
        <time>2023-04-15T08:12:39Z</time>
      </trkpt>
      <trkpt lat="44.79944" lon="1.64605">
        <ele>156.6</ele>
        <time>2023-04-15T08:12:47Z</time>
      </trkpt>
      <trkpt lat="44.79942" lon="1.64618">
        <ele>156.8</ele>
        <time>2023-04-15T08:12:56Z</time>
      </trkpt>
      <trkpt lat="44.79942" lon="1.64632">
        <ele>157.3</ele>
        <time>2023-04-15T08:13:05Z</time>
      </trkpt>
      <trkpt lat="44.79944" lon="1.64646">
        <ele>157</ele>
        <time>2023-04-15T08:13:13Z</time>
      </trkpt>
      <trkpt lat="44.79947" lon="1.64658">
        <ele>156.7</ele>
        <time>2023-04-15T08:13:21Z</time>
      </trkpt>
      <trkpt lat="44.7995" lon="1.6467">
        <ele>157.7</ele>
        <time>2023-04-15T08:13:29Z</time>
      </trkpt>
      <trkpt lat="44.79954" lon="1.64683">
        <ele>158.2</ele>
        <time>2023-04-15T08:13:38Z</time>
      </trkpt>
      <trkpt lat="44.79959" lon="1.64694">
        <ele>158.9</ele>
        <time>2023-04-15T08:13:46Z</time>
      </trkpt>
      <trkpt lat="44.79963" lon="1.64707">
        <ele>157.6</ele>
        <time>2023-04-15T08:13:54Z</time>
      </trkpt>
      <trkpt lat="44.79966" lon="1.6472">
        <ele>155.1</ele>
        <time>2023-04-15T08:14:02Z</time>
      </trkpt>
      <trkpt lat="44.7997" lon="1.64732">
        <ele>155</ele>
        <time>2023-04-15T08:14:09Z</time>
      </trkpt>
      <trkpt lat="44.79972" lon="1.64746">
        <ele>155.1</ele>
        <time>2023-04-15T08:14:18Z</time>
      </trkpt>
      <trkpt lat="44.79975" lon="1.64759">
        <ele>155.6</ele>
        <time>2023-04-15T08:14:26Z</time>
      </trkpt>
      <trkpt lat="44.79975" lon="1.64772">
        <ele>154.8</ele>
        <time>2023-04-15T08:14:35Z</time>
      </trkpt>
      <trkpt lat="44.79979" lon="1.64785">
        <ele>156.2</ele>
        <time>2023-04-15T08:14:44Z</time>
      </trkpt>
      <trkpt lat="44.79984" lon="1.64797">
        <ele>158</ele>
        <time>2023-04-15T08:14:54Z</time>
      </trkpt>
      <trkpt lat="44.79985" lon="1.6481">
        <ele>158.2</ele>
        <time>2023-04-15T08:15:04Z</time>
      </trkpt>
      <trkpt lat="44.79988" lon="1.64823">
        <ele>158.7</ele>
        <time>2023-04-15T08:15:12Z</time>
      </trkpt>
      <trkpt lat="44.79987" lon="1.64836">
        <ele>158.4</ele>
        <time>2023-04-15T08:15:22Z</time>
      </trkpt>
      <trkpt lat="44.79983" lon="1.64848">
        <ele>157.2</ele>
        <time>2023-04-15T08:15:31Z</time>
      </trkpt>
      <trkpt lat="44.79977" lon="1.64857">
        <ele>155.5</ele>
        <time>2023-04-15T08:15:39Z</time>
      </trkpt>
      <trkpt lat="44.79972" lon="1.64869">
        <ele>154.6</ele>
        <time>2023-04-15T08:15:48Z</time>
      </trkpt>
      <trkpt lat="44.7997" lon="1.64882">
        <ele>155.8</ele>
        <time>2023-04-15T08:16:01Z</time>
      </trkpt>
      <trkpt lat="44.79965" lon="1.64893">
        <ele>157.1</ele>
        <time>2023-04-15T08:16:11Z</time>
      </trkpt>
      <trkpt lat="44.79957" lon="1.64899">
        <ele>157.4</ele>
        <time>2023-04-15T08:16:19Z</time>
      </trkpt>
      <trkpt lat="44.79952" lon="1.6491">
        <ele>156.8</ele>
        <time>2023-04-15T08:16:29Z</time>
      </trkpt>
      <trkpt lat="44.79945" lon="1.6492">
        <ele>154.5</ele>
        <time>2023-04-15T08:16:38Z</time>
      </trkpt>
      <trkpt lat="44.79945" lon="1.64935">
        <ele>155.2</ele>
        <time>2023-04-15T08:16:47Z</time>
      </trkpt>
      <trkpt lat="44.79946" lon="1.64949">
        <ele>155.9</ele>
        <time>2023-04-15T08:16:55Z</time>
      </trkpt>
      <trkpt lat="44.79947" lon="1.64962">
        <ele>157.4</ele>
        <time>2023-04-15T08:17:06Z</time>
      </trkpt>
      <trkpt lat="44.79951" lon="1.64974">
        <ele>160.6</ele>
        <time>2023-04-15T08:17:13Z</time>
      </trkpt>
      <trkpt lat="44.79952" lon="1.64988">
        <ele>161</ele>
        <time>2023-04-15T08:17:21Z</time>
      </trkpt>
      <trkpt lat="44.79954" lon="1.65">
        <ele>161.3</ele>
        <time>2023-04-15T08:17:30Z</time>
      </trkpt>
      <trkpt lat="44.79958" lon="1.65012">
        <ele>161.1</ele>
        <time>2023-04-15T08:17:42Z</time>
      </trkpt>
      <trkpt lat="44.79966" lon="1.65019">
        <ele>162.3</ele>
        <time>2023-04-15T08:18:13Z</time>
      </trkpt>
      <trkpt lat="44.79966" lon="1.65032">
        <ele>159.9</ele>
        <time>2023-04-15T08:18:39Z</time>
      </trkpt>
      <trkpt lat="44.79959" lon="1.6504">
        <ele>159</ele>
        <time>2023-04-15T08:18:57Z</time>
      </trkpt>
      <trkpt lat="44.79951" lon="1.65046">
        <ele>158.5</ele>
        <time>2023-04-15T08:20:07Z</time>
      </trkpt>
      <trkpt lat="44.79952" lon="1.65059">
        <ele>159.8</ele>
        <time>2023-04-15T08:20:19Z</time>
      </trkpt>
      <trkpt lat="44.79956" lon="1.65071">
        <ele>161.2</ele>
        <time>2023-04-15T08:20:29Z</time>
      </trkpt>
      <trkpt lat="44.79962" lon="1.65082">
        <ele>161</ele>
        <time>2023-04-15T08:20:38Z</time>
      </trkpt>
      <trkpt lat="44.79967" lon="1.65092">
        <ele>159.8</ele>
        <time>2023-04-15T08:20:45Z</time>
      </trkpt>
      <trkpt lat="44.79972" lon="1.65104">
        <ele>158.2</ele>
        <time>2023-04-15T08:20:58Z</time>
      </trkpt>
      <trkpt lat="44.79978" lon="1.65114">
        <ele>159.8</ele>
        <time>2023-04-15T08:21:12Z</time>
      </trkpt>
      <trkpt lat="44.79984" lon="1.65124">
        <ele>162</ele>
        <time>2023-04-15T08:21:23Z</time>
      </trkpt>
      <trkpt lat="44.79988" lon="1.65136">
        <ele>162.6</ele>
        <time>2023-04-15T08:21:36Z</time>
      </trkpt>
      <trkpt lat="44.79985" lon="1.65148">
        <ele>165.2</ele>
        <time>2023-04-15T08:21:51Z</time>
      </trkpt>
      <trkpt lat="44.79987" lon="1.65161">
        <ele>165.9</ele>
        <time>2023-04-15T08:22:01Z</time>
      </trkpt>
      <trkpt lat="44.79986" lon="1.65174">
        <ele>167.5</ele>
        <time>2023-04-15T08:22:12Z</time>
      </trkpt>
      <trkpt lat="44.79984" lon="1.65187">
        <ele>169.3</ele>
        <time>2023-04-15T08:22:27Z</time>
      </trkpt>
      <trkpt lat="44.79984" lon="1.65199">
        <ele>169.7</ele>
        <time>2023-04-15T08:22:39Z</time>
      </trkpt>
      <trkpt lat="44.79983" lon="1.65212">
        <ele>168.8</ele>
        <time>2023-04-15T08:22:51Z</time>
      </trkpt>
      <trkpt lat="44.79981" lon="1.65225">
        <ele>168</ele>
        <time>2023-04-15T08:23:03Z</time>
      </trkpt>
      <trkpt lat="44.79977" lon="1.65237">
        <ele>165.6</ele>
        <time>2023-04-15T08:23:15Z</time>
      </trkpt>
      <trkpt lat="44.7997" lon="1.65244">
        <ele>163.8</ele>
        <time>2023-04-15T08:23:27Z</time>
      </trkpt>
      <trkpt lat="44.79968" lon="1.65257">
        <ele>161.9</ele>
        <time>2023-04-15T08:24:34Z</time>
      </trkpt>
      <trkpt lat="44.79959" lon="1.65258">
        <ele>162.6</ele>
        <time>2023-04-15T08:25:56Z</time>
      </trkpt>
      <trkpt lat="44.7995" lon="1.65258">
        <ele>163.5</ele>
        <time>2023-04-15T08:26:03Z</time>
      </trkpt>
      <trkpt lat="44.7994" lon="1.65256">
        <ele>164.8</ele>
        <time>2023-04-15T08:27:34Z</time>
      </trkpt>
      <trkpt lat="44.79931" lon="1.65261">
        <ele>165</ele>
        <time>2023-04-15T08:27:41Z</time>
      </trkpt>
      <trkpt lat="44.79922" lon="1.65264">
        <ele>165</ele>
        <time>2023-04-15T08:27:48Z</time>
      </trkpt>
      <trkpt lat="44.79913" lon="1.65268">
        <ele>166.2</ele>
        <time>2023-04-15T08:27:58Z</time>
      </trkpt>
      <trkpt lat="44.79906" lon="1.65277">
        <ele>166.1</ele>
        <time>2023-04-15T08:28:07Z</time>
      </trkpt>
      <trkpt lat="44.79898" lon="1.65286">
        <ele>167.6</ele>
        <time>2023-04-15T08:28:16Z</time>
      </trkpt>
      <trkpt lat="44.7989" lon="1.65294">
        <ele>167.2</ele>
        <time>2023-04-15T08:28:23Z</time>
      </trkpt>
      <trkpt lat="44.79887" lon="1.65306">
        <ele>164.3</ele>
        <time>2023-04-15T08:28:33Z</time>
      </trkpt>
      <trkpt lat="44.7988" lon="1.65315">
        <ele>168.4</ele>
        <time>2023-04-15T08:28:55Z</time>
      </trkpt>
      <trkpt lat="44.79872" lon="1.65322">
        <ele>172.9</ele>
        <time>2023-04-15T08:29:31Z</time>
      </trkpt>
      <trkpt lat="44.79868" lon="1.65334">
        <ele>173.8</ele>
        <time>2023-04-15T08:29:48Z</time>
      </trkpt>
      <trkpt lat="44.79867" lon="1.65347">
        <ele>172.1</ele>
        <time>2023-04-15T08:30:01Z</time>
      </trkpt>
      <trkpt lat="44.79862" lon="1.65359">
        <ele>171.2</ele>
        <time>2023-04-15T08:30:12Z</time>
      </trkpt>
      <trkpt lat="44.79859" lon="1.65371">
        <ele>171.9</ele>
        <time>2023-04-15T08:30:24Z</time>
      </trkpt>
      <trkpt lat="44.79859" lon="1.65384">
        <ele>170.1</ele>
        <time>2023-04-15T08:30:36Z</time>
      </trkpt>
      <trkpt lat="44.79856" lon="1.65398">
        <ele>171.4</ele>
        <time>2023-04-15T08:30:46Z</time>
      </trkpt>
      <trkpt lat="44.79855" lon="1.65411">
        <ele>171.9</ele>
        <time>2023-04-15T08:30:58Z</time>
      </trkpt>
      <trkpt lat="44.79851" lon="1.65423">
        <ele>175</ele>
        <time>2023-04-15T08:31:20Z</time>
      </trkpt>
      <trkpt lat="44.79851" lon="1.65436">
        <ele>174.4</ele>
        <time>2023-04-15T08:31:38Z</time>
      </trkpt>
      <trkpt lat="44.79854" lon="1.65449">
        <ele>173.1</ele>
        <time>2023-04-15T08:31:49Z</time>
      </trkpt>
      <trkpt lat="44.7986" lon="1.6546">
        <ele>170.5</ele>
        <time>2023-04-15T08:31:59Z</time>
      </trkpt>
      <trkpt lat="44.79866" lon="1.6547">
        <ele>169.9</ele>
        <time>2023-04-15T08:32:42Z</time>
      </trkpt>
      <trkpt lat="44.79869" lon="1.65482">
        <ele>172.4</ele>
        <time>2023-04-15T08:32:54Z</time>
      </trkpt>
      <trkpt lat="44.79874" lon="1.65494">
        <ele>173.3</ele>
        <time>2023-04-15T08:33:07Z</time>
      </trkpt>
      <trkpt lat="44.79879" lon="1.65504">
        <ele>171.9</ele>
        <time>2023-04-15T08:33:18Z</time>
      </trkpt>
      <trkpt lat="44.79878" lon="1.65518">
        <ele>172.3</ele>
        <time>2023-04-15T08:33:28Z</time>
      </trkpt>
      <trkpt lat="44.79872" lon="1.65527">
        <ele>176.3</ele>
        <time>2023-04-15T08:33:42Z</time>
      </trkpt>
      <trkpt lat="44.79864" lon="1.65535">
        <ele>177.3</ele>
        <time>2023-04-15T08:33:57Z</time>
      </trkpt>
      <trkpt lat="44.79859" lon="1.65546">
        <ele>175.6</ele>
        <time>2023-04-15T08:34:10Z</time>
      </trkpt>
      <trkpt lat="44.79854" lon="1.65557">
        <ele>174.7</ele>
        <time>2023-04-15T08:34:20Z</time>
      </trkpt>
      <trkpt lat="44.79845" lon="1.65563">
        <ele>182</ele>
        <time>2023-04-15T08:34:35Z</time>
      </trkpt>
      <trkpt lat="44.79846" lon="1.65576">
        <ele>176.8</ele>
        <time>2023-04-15T08:35:28Z</time>
      </trkpt>
      <trkpt lat="44.79852" lon="1.65587">
        <ele>171.7</ele>
        <time>2023-04-15T08:35:36Z</time>
      </trkpt>
      <trkpt lat="44.79856" lon="1.65599">
        <ele>170.2</ele>
        <time>2023-04-15T08:35:45Z</time>
      </trkpt>
      <trkpt lat="44.7986" lon="1.65611">
        <ele>168.6</ele>
        <time>2023-04-15T08:35:58Z</time>
      </trkpt>
      <trkpt lat="44.79863" lon="1.65623">
        <ele>169.3</ele>
        <time>2023-04-15T08:36:10Z</time>
      </trkpt>
      <trkpt lat="44.7987" lon="1.65633">
        <ele>170</ele>
        <time>2023-04-15T08:36:23Z</time>
      </trkpt>
      <trkpt lat="44.79878" lon="1.65637">
        <ele>169.7</ele>
        <time>2023-04-15T08:36:33Z</time>
      </trkpt>
      <trkpt lat="44.79888" lon="1.65637">
        <ele>169.1</ele>
        <time>2023-04-15T08:36:43Z</time>
      </trkpt>
      <trkpt lat="44.79897" lon="1.65636">
        <ele>169</ele>
        <time>2023-04-15T08:36:52Z</time>
      </trkpt>
      <trkpt lat="44.79906" lon="1.65632">
        <ele>168.9</ele>
        <time>2023-04-15T08:37:04Z</time>
      </trkpt>
      <trkpt lat="44.79917" lon="1.65631">
        <ele>168.7</ele>
        <time>2023-04-15T08:37:15Z</time>
      </trkpt>
      <trkpt lat="44.79926" lon="1.65634">
        <ele>168.9</ele>
        <time>2023-04-15T08:37:24Z</time>
      </trkpt>
      <trkpt lat="44.79935" lon="1.6564">
        <ele>169.3</ele>
        <time>2023-04-15T08:37:34Z</time>
      </trkpt>
      <trkpt lat="44.79944" lon="1.65638">
        <ele>169</ele>
        <time>2023-04-15T08:37:45Z</time>
      </trkpt>
      <trkpt lat="44.79953" lon="1.65643">
        <ele>169.9</ele>
        <time>2023-04-15T08:37:59Z</time>
      </trkpt>
      <trkpt lat="44.79962" lon="1.65647">
        <ele>170.6</ele>
        <time>2023-04-15T08:38:12Z</time>
      </trkpt>
      <trkpt lat="44.79971" lon="1.65648">
        <ele>170.3</ele>
        <time>2023-04-15T08:38:19Z</time>
      </trkpt>
      <trkpt lat="44.79981" lon="1.65648">
        <ele>170.1</ele>
        <time>2023-04-15T08:38:31Z</time>
      </trkpt>
      <trkpt lat="44.79989" lon="1.65655">
        <ele>170.2</ele>
        <time>2023-04-15T08:38:47Z</time>
      </trkpt>
      <trkpt lat="44.79998" lon="1.65653">
        <ele>169.6</ele>
        <time>2023-04-15T08:39:24Z</time>
      </trkpt>
      <trkpt lat="44.80005" lon="1.65646">
        <ele>171</ele>
        <time>2023-04-15T08:40:08Z</time>
      </trkpt>
      <trkpt lat="44.8001" lon="1.65658">
        <ele>171</ele>
        <time>2023-04-15T08:43:23Z</time>
      </trkpt>
      <trkpt lat="44.80016" lon="1.65668">
        <ele>170.9</ele>
        <time>2023-04-15T08:43:34Z</time>
      </trkpt>
      <trkpt lat="44.80023" lon="1.65676">
        <ele>171.8</ele>
        <time>2023-04-15T08:43:43Z</time>
      </trkpt>
      <trkpt lat="44.80028" lon="1.65689">
        <ele>171.2</ele>
        <time>2023-04-15T08:43:54Z</time>
      </trkpt>
      <trkpt lat="44.80031" lon="1.65701">
        <ele>172.6</ele>
        <time>2023-04-15T08:44:05Z</time>
      </trkpt>
      <trkpt lat="44.80037" lon="1.6571">
        <ele>174.5</ele>
        <time>2023-04-15T08:44:13Z</time>
      </trkpt>
      <trkpt lat="44.80042" lon="1.65721">
        <ele>174.4</ele>
        <time>2023-04-15T08:44:21Z</time>
      </trkpt>
      <trkpt lat="44.80043" lon="1.65734">
        <ele>173.6</ele>
        <time>2023-04-15T08:44:34Z</time>
      </trkpt>
      <trkpt lat="44.80048" lon="1.65745">
        <ele>173.3</ele>
        <time>2023-04-15T08:44:47Z</time>
      </trkpt>
      <trkpt lat="44.80054" lon="1.65755">
        <ele>172.5</ele>
        <time>2023-04-15T08:44:58Z</time>
      </trkpt>
      <trkpt lat="44.80053" lon="1.65768">
        <ele>171.6</ele>
        <time>2023-04-15T08:45:21Z</time>
      </trkpt>
      <trkpt lat="44.80058" lon="1.6578">
        <ele>171.8</ele>
        <time>2023-04-15T08:45:45Z</time>
      </trkpt>
      <trkpt lat="44.80061" lon="1.65793">
        <ele>173.7</ele>
        <time>2023-04-15T08:45:57Z</time>
      </trkpt>
      <trkpt lat="44.80061" lon="1.65806">
        <ele>172.5</ele>
        <time>2023-04-15T08:46:16Z</time>
      </trkpt>
      <trkpt lat="44.80059" lon="1.65819">
        <ele>172.3</ele>
        <time>2023-04-15T08:46:28Z</time>
      </trkpt>
      <trkpt lat="44.80059" lon="1.65832">
        <ele>172.8</ele>
        <time>2023-04-15T08:46:41Z</time>
      </trkpt>
      <trkpt lat="44.80056" lon="1.65845">
        <ele>173</ele>
        <time>2023-04-15T08:46:53Z</time>
      </trkpt>
      <trkpt lat="44.8005" lon="1.65856">
        <ele>174.4</ele>
        <time>2023-04-15T08:47:04Z</time>
      </trkpt>
      <trkpt lat="44.80042" lon="1.65864">
        <ele>174.4</ele>
        <time>2023-04-15T08:47:14Z</time>
      </trkpt>
      <trkpt lat="44.80035" lon="1.65873">
        <ele>174.1</ele>
        <time>2023-04-15T08:47:25Z</time>
      </trkpt>
      <trkpt lat="44.80029" lon="1.65884">
        <ele>172.7</ele>
        <time>2023-04-15T08:47:34Z</time>
      </trkpt>
      <trkpt lat="44.80026" lon="1.65896">
        <ele>173.6</ele>
        <time>2023-04-15T08:47:49Z</time>
      </trkpt>
      <trkpt lat="44.80024" lon="1.65909">
        <ele>175.9</ele>
        <time>2023-04-15T08:48:05Z</time>
      </trkpt>
      <trkpt lat="44.80021" lon="1.65921">
        <ele>177.7</ele>
        <time>2023-04-15T08:48:16Z</time>
      </trkpt>
      <trkpt lat="44.80017" lon="1.65933">
        <ele>179.3</ele>
        <time>2023-04-15T08:48:31Z</time>
      </trkpt>
      <trkpt lat="44.8001" lon="1.65942">
        <ele>178.5</ele>
        <time>2023-04-15T08:48:46Z</time>
      </trkpt>
      <trkpt lat="44.80002" lon="1.65947">
        <ele>175.4</ele>
        <time>2023-04-15T08:48:59Z</time>
      </trkpt>
      <trkpt lat="44.79993" lon="1.65951">
        <ele>175.2</ele>
        <time>2023-04-15T08:49:12Z</time>
      </trkpt>
      <trkpt lat="44.79989" lon="1.65963">
        <ele>176.9</ele>
        <time>2023-04-15T08:49:23Z</time>
      </trkpt>
      <trkpt lat="44.79983" lon="1.65974">
        <ele>176.6</ele>
        <time>2023-04-15T08:49:32Z</time>
      </trkpt>
      <trkpt lat="44.79977" lon="1.65985">
        <ele>175.6</ele>
        <time>2023-04-15T08:49:43Z</time>
      </trkpt>
      <trkpt lat="44.79974" lon="1.65998">
        <ele>175.1</ele>
        <time>2023-04-15T08:49:53Z</time>
      </trkpt>
      <trkpt lat="44.79971" lon="1.6601">
        <ele>174.3</ele>
        <time>2023-04-15T08:50:03Z</time>
      </trkpt>
      <trkpt lat="44.79969" lon="1.66023">
        <ele>174.6</ele>
        <time>2023-04-15T08:50:13Z</time>
      </trkpt>
      <trkpt lat="44.79966" lon="1.66036">
        <ele>175.2</ele>
        <time>2023-04-15T08:50:23Z</time>
      </trkpt>
      <trkpt lat="44.79961" lon="1.66047">
        <ele>175.4</ele>
        <time>2023-04-15T08:50:35Z</time>
      </trkpt>
      <trkpt lat="44.79957" lon="1.66059">
        <ele>175.6</ele>
        <time>2023-04-15T08:50:44Z</time>
      </trkpt>
      <trkpt lat="44.79953" lon="1.66071">
        <ele>175.7</ele>
        <time>2023-04-15T08:50:54Z</time>
      </trkpt>
      <trkpt lat="44.7995" lon="1.66083">
        <ele>175.7</ele>
        <time>2023-04-15T08:51:03Z</time>
      </trkpt>
      <trkpt lat="44.79945" lon="1.66095">
        <ele>174.8</ele>
        <time>2023-04-15T08:51:12Z</time>
      </trkpt>
      <trkpt lat="44.79938" lon="1.66102">
        <ele>175</ele>
        <time>2023-04-15T08:51:22Z</time>
      </trkpt>
      <trkpt lat="44.79929" lon="1.66105">
        <ele>175.1</ele>
        <time>2023-04-15T08:51:34Z</time>
      </trkpt>
      <trkpt lat="44.79919" lon="1.66107">
        <ele>174.9</ele>
        <time>2023-04-15T08:51:47Z</time>
      </trkpt>
      <trkpt lat="44.79909" lon="1.66106">
        <ele>175.5</ele>
        <time>2023-04-15T08:51:57Z</time>
      </trkpt>
      <trkpt lat="44.799" lon="1.66106">
        <ele>176</ele>
        <time>2023-04-15T08:52:06Z</time>
      </trkpt>
      <trkpt lat="44.7989" lon="1.66107">
        <ele>176.1</ele>
        <time>2023-04-15T08:52:16Z</time>
      </trkpt>
      <trkpt lat="44.79881" lon="1.66107">
        <ele>176.5</ele>
        <time>2023-04-15T08:52:25Z</time>
      </trkpt>
      <trkpt lat="44.79871" lon="1.66105">
        <ele>177.2</ele>
        <time>2023-04-15T08:52:36Z</time>
      </trkpt>
      <trkpt lat="44.79862" lon="1.66104">
        <ele>177.6</ele>
        <time>2023-04-15T08:52:45Z</time>
      </trkpt>
      <trkpt lat="44.79853" lon="1.66102">
        <ele>177.7</ele>
        <time>2023-04-15T08:52:54Z</time>
      </trkpt>
      <trkpt lat="44.79843" lon="1.66103">
        <ele>177.4</ele>
        <time>2023-04-15T08:53:04Z</time>
      </trkpt>
      <trkpt lat="44.79834" lon="1.66103">
        <ele>177.2</ele>
        <time>2023-04-15T08:53:14Z</time>
      </trkpt>
      <trkpt lat="44.79824" lon="1.66105">
        <ele>176.9</ele>
        <time>2023-04-15T08:53:23Z</time>
      </trkpt>
      <trkpt lat="44.79815" lon="1.6611">
        <ele>176.2</ele>
        <time>2023-04-15T08:53:30Z</time>
      </trkpt>
      <trkpt lat="44.79806" lon="1.66112">
        <ele>176.1</ele>
        <time>2023-04-15T08:53:38Z</time>
      </trkpt>
      <trkpt lat="44.79797" lon="1.66116">
        <ele>176.9</ele>
        <time>2023-04-15T08:53:47Z</time>
      </trkpt>
      <trkpt lat="44.79788" lon="1.66121">
        <ele>177.2</ele>
        <time>2023-04-15T08:53:57Z</time>
      </trkpt>
      <trkpt lat="44.79779" lon="1.66123">
        <ele>176.9</ele>
        <time>2023-04-15T08:54:08Z</time>
      </trkpt>
      <trkpt lat="44.7977" lon="1.66125">
        <ele>177.3</ele>
        <time>2023-04-15T08:54:17Z</time>
      </trkpt>
      <trkpt lat="44.79761" lon="1.6613">
        <ele>177.3</ele>
        <time>2023-04-15T08:54:27Z</time>
      </trkpt>
      <trkpt lat="44.79751" lon="1.66132">
        <ele>177</ele>
        <time>2023-04-15T08:54:34Z</time>
      </trkpt>
      <trkpt lat="44.79744" lon="1.6614">
        <ele>176.3</ele>
        <time>2023-04-15T08:54:41Z</time>
      </trkpt>
      <trkpt lat="44.79736" lon="1.66149">
        <ele>177.6</ele>
        <time>2023-04-15T08:54:49Z</time>
      </trkpt>
      <trkpt lat="44.79728" lon="1.66156">
        <ele>178.2</ele>
        <time>2023-04-15T08:55:13Z</time>
      </trkpt>
      <trkpt lat="44.7972" lon="1.66151">
        <ele>177.5</ele>
        <time>2023-04-15T08:55:40Z</time>
      </trkpt>
      <trkpt lat="44.7971" lon="1.66148">
        <ele>177.7</ele>
        <time>2023-04-15T08:56:51Z</time>
      </trkpt>
      <trkpt lat="44.79701" lon="1.66152">
        <ele>178.2</ele>
        <time>2023-04-15T08:57:35Z</time>
      </trkpt>
      <trkpt lat="44.79691" lon="1.66156">
        <ele>178.7</ele>
        <time>2023-04-15T08:57:44Z</time>
      </trkpt>
      <trkpt lat="44.79685" lon="1.66165">
        <ele>178</ele>
        <time>2023-04-15T08:57:53Z</time>
      </trkpt>
      <trkpt lat="44.79677" lon="1.66173">
        <ele>177.9</ele>
        <time>2023-04-15T08:58:03Z</time>
      </trkpt>
      <trkpt lat="44.79677" lon="1.66186">
        <ele>178.9</ele>
        <time>2023-04-15T08:58:16Z</time>
      </trkpt>
      <trkpt lat="44.79672" lon="1.66198">
        <ele>179.7</ele>
        <time>2023-04-15T08:58:27Z</time>
      </trkpt>
      <trkpt lat="44.79682" lon="1.66195">
        <ele>180.4</ele>
        <time>2023-04-15T08:59:05Z</time>
      </trkpt>
      <trkpt lat="44.79691" lon="1.66192">
        <ele>181.2</ele>
        <time>2023-04-15T09:03:43Z</time>
      </trkpt>
      <trkpt lat="44.79681" lon="1.66192">
        <ele>179.8</ele>
        <time>2023-04-15T09:06:10Z</time>
      </trkpt>
      <trkpt lat="44.79672" lon="1.66192">
        <ele>178.6</ele>
        <time>2023-04-15T09:06:32Z</time>
      </trkpt>
      <trkpt lat="44.79671" lon="1.66179">
        <ele>177.9</ele>
        <time>2023-04-15T09:06:54Z</time>
      </trkpt>
      <trkpt lat="44.79679" lon="1.66172">
        <ele>177.9</ele>
        <time>2023-04-15T09:08:16Z</time>
      </trkpt>
      <trkpt lat="44.79688" lon="1.66166">
        <ele>177.9</ele>
        <time>2023-04-15T09:08:28Z</time>
      </trkpt>
      <trkpt lat="44.79697" lon="1.66162">
        <ele>178.2</ele>
        <time>2023-04-15T09:08:39Z</time>
      </trkpt>
      <trkpt lat="44.79703" lon="1.66152">
        <ele>178.2</ele>
        <time>2023-04-15T09:08:51Z</time>
      </trkpt>
      <trkpt lat="44.79703" lon="1.66139">
        <ele>178.1</ele>
        <time>2023-04-15T09:09:08Z</time>
      </trkpt>
      <trkpt lat="44.7971" lon="1.6613">
        <ele>180.6</ele>
        <time>2023-04-15T09:09:24Z</time>
      </trkpt>
      <trkpt lat="44.79718" lon="1.66123">
        <ele>181.9</ele>
        <time>2023-04-15T09:09:54Z</time>
      </trkpt>
      <trkpt lat="44.79722" lon="1.66112">
        <ele>184.7</ele>
        <time>2023-04-15T09:10:55Z</time>
      </trkpt>
      <trkpt lat="44.79719" lon="1.661">
        <ele>190.8</ele>
        <time>2023-04-15T09:11:15Z</time>
      </trkpt>
      <trkpt lat="44.7971" lon="1.661">
        <ele>192.9</ele>
        <time>2023-04-15T09:11:30Z</time>
      </trkpt>
      <trkpt lat="44.797" lon="1.66101">
        <ele>194.7</ele>
        <time>2023-04-15T09:11:56Z</time>
      </trkpt>
      <trkpt lat="44.79691" lon="1.66101">
        <ele>197.7</ele>
        <time>2023-04-15T09:12:11Z</time>
      </trkpt>
      <trkpt lat="44.79682" lon="1.661">
        <ele>200.7</ele>
        <time>2023-04-15T09:12:29Z</time>
      </trkpt>
      <trkpt lat="44.79672" lon="1.66099">
        <ele>203.8</ele>
        <time>2023-04-15T09:12:48Z</time>
      </trkpt>
      <trkpt lat="44.79663" lon="1.66101">
        <ele>205.6</ele>
        <time>2023-04-15T09:13:14Z</time>
      </trkpt>
      <trkpt lat="44.79654" lon="1.66104">
        <ele>207</ele>
        <time>2023-04-15T09:13:33Z</time>
      </trkpt>
      <trkpt lat="44.79659" lon="1.66094">
        <ele>209.8</ele>
        <time>2023-04-15T09:13:57Z</time>
      </trkpt>
      <trkpt lat="44.79665" lon="1.66084">
        <ele>212.3</ele>
        <time>2023-04-15T09:14:12Z</time>
      </trkpt>
      <trkpt lat="44.79671" lon="1.66074">
        <ele>215.2</ele>
        <time>2023-04-15T09:14:28Z</time>
      </trkpt>
      <trkpt lat="44.79677" lon="1.66065">
        <ele>217.9</ele>
        <time>2023-04-15T09:18:38Z</time>
      </trkpt>
      <trkpt lat="44.79683" lon="1.66055">
        <ele>221.1</ele>
        <time>2023-04-15T09:18:56Z</time>
      </trkpt>
      <trkpt lat="44.79691" lon="1.66048">
        <ele>222.6</ele>
        <time>2023-04-15T09:19:09Z</time>
      </trkpt>
      <trkpt lat="44.79698" lon="1.66038">
        <ele>226.3</ele>
        <time>2023-04-15T09:19:25Z</time>
      </trkpt>
      <trkpt lat="44.79705" lon="1.66029">
        <ele>228.9</ele>
        <time>2023-04-15T09:19:42Z</time>
      </trkpt>
      <trkpt lat="44.79713" lon="1.66024">
        <ele>230</ele>
        <time>2023-04-15T09:19:58Z</time>
      </trkpt>
      <trkpt lat="44.7972" lon="1.66015">
        <ele>233.1</ele>
        <time>2023-04-15T09:20:13Z</time>
      </trkpt>
      <trkpt lat="44.79729" lon="1.6601">
        <ele>234</ele>
        <time>2023-04-15T09:20:24Z</time>
      </trkpt>
      <trkpt lat="44.79738" lon="1.66007">
        <ele>233.6</ele>
        <time>2023-04-15T09:20:37Z</time>
      </trkpt>
      <trkpt lat="44.79746" lon="1.66">
        <ele>235.2</ele>
        <time>2023-04-15T09:20:53Z</time>
      </trkpt>
      <trkpt lat="44.79754" lon="1.65994">
        <ele>237.8</ele>
        <time>2023-04-15T09:21:09Z</time>
      </trkpt>
      <trkpt lat="44.79761" lon="1.65986">
        <ele>241.4</ele>
        <time>2023-04-15T09:21:21Z</time>
      </trkpt>
      <trkpt lat="44.79767" lon="1.65977">
        <ele>244.8</ele>
        <time>2023-04-15T09:21:37Z</time>
      </trkpt>
      <trkpt lat="44.79775" lon="1.65968">
        <ele>246.9</ele>
        <time>2023-04-15T09:21:53Z</time>
      </trkpt>
      <trkpt lat="44.79783" lon="1.65962">
        <ele>250</ele>
        <time>2023-04-15T09:22:07Z</time>
      </trkpt>
      <trkpt lat="44.79792" lon="1.65961">
        <ele>250.7</ele>
        <time>2023-04-15T09:22:24Z</time>
      </trkpt>
      <trkpt lat="44.79801" lon="1.65962">
        <ele>250.9</ele>
        <time>2023-04-15T09:22:43Z</time>
      </trkpt>
      <trkpt lat="44.79804" lon="1.65949">
        <ele>256.9</ele>
        <time>2023-04-15T09:23:27Z</time>
      </trkpt>
      <trkpt lat="44.79798" lon="1.65939">
        <ele>261.7</ele>
        <time>2023-04-15T09:23:42Z</time>
      </trkpt>
      <trkpt lat="44.79799" lon="1.65926">
        <ele>266</ele>
        <time>2023-04-15T09:24:03Z</time>
      </trkpt>
      <trkpt lat="44.79807" lon="1.65922">
        <ele>266.6</ele>
        <time>2023-04-15T09:24:21Z</time>
      </trkpt>
      <trkpt lat="44.79799" lon="1.65916">
        <ele>269.3</ele>
        <time>2023-04-15T09:24:49Z</time>
      </trkpt>
      <trkpt lat="44.79795" lon="1.65927">
        <ele>266.4</ele>
        <time>2023-04-15T09:25:05Z</time>
      </trkpt>
      <trkpt lat="44.79786" lon="1.65933">
        <ele>265.3</ele>
        <time>2023-04-15T09:30:34Z</time>
      </trkpt>
      <trkpt lat="44.79777" lon="1.65932">
        <ele>267.3</ele>
        <time>2023-04-15T09:31:00Z</time>
      </trkpt>
      <trkpt lat="44.79767" lon="1.65935">
        <ele>268.7</ele>
        <time>2023-04-15T09:31:13Z</time>
      </trkpt>
      <trkpt lat="44.7976" lon="1.65945">
        <ele>269</ele>
        <time>2023-04-15T09:31:24Z</time>
      </trkpt>
      <trkpt lat="44.79751" lon="1.6595">
        <ele>269.7</ele>
        <time>2023-04-15T09:31:34Z</time>
      </trkpt>
      <trkpt lat="44.79744" lon="1.65958">
        <ele>267</ele>
        <time>2023-04-15T09:31:47Z</time>
      </trkpt>
      <trkpt lat="44.79735" lon="1.65963">
        <ele>268.8</ele>
        <time>2023-04-15T09:32:07Z</time>
      </trkpt>
      <trkpt lat="44.79726" lon="1.65966">
        <ele>273.1</ele>
        <time>2023-04-15T09:32:20Z</time>
      </trkpt>
      <trkpt lat="44.79717" lon="1.65969">
        <ele>275.2</ele>
        <time>2023-04-15T09:32:32Z</time>
      </trkpt>
      <trkpt lat="44.79709" lon="1.65978">
        <ele>270.6</ele>
        <time>2023-04-15T09:33:01Z</time>
      </trkpt>
      <trkpt lat="44.797" lon="1.65981">
        <ele>270</ele>
        <time>2023-04-15T09:33:13Z</time>
      </trkpt>
      <trkpt lat="44.79691" lon="1.65984">
        <ele>269.8</ele>
        <time>2023-04-15T09:33:23Z</time>
      </trkpt>
      <trkpt lat="44.79684" lon="1.65991">
        <ele>268.7</ele>
        <time>2023-04-15T09:33:48Z</time>
      </trkpt>
      <trkpt lat="44.79674" lon="1.65991">
        <ele>272.2</ele>
        <time>2023-04-15T09:33:57Z</time>
      </trkpt>
      <trkpt lat="44.79665" lon="1.65995">
        <ele>274.4</ele>
        <time>2023-04-15T09:34:04Z</time>
      </trkpt>
      <trkpt lat="44.79656" lon="1.65996">
        <ele>274.6</ele>
        <time>2023-04-15T09:34:11Z</time>
      </trkpt>
      <trkpt lat="44.79647" lon="1.65998">
        <ele>274.8</ele>
        <time>2023-04-15T09:34:20Z</time>
      </trkpt>
      <trkpt lat="44.79638" lon="1.66003">
        <ele>273.2</ele>
        <time>2023-04-15T09:34:40Z</time>
      </trkpt>
      <trkpt lat="44.79629" lon="1.66007">
        <ele>271.8</ele>
        <time>2023-04-15T09:34:52Z</time>
      </trkpt>
      <trkpt lat="44.79623" lon="1.66017">
        <ele>269.5</ele>
        <time>2023-04-15T09:35:03Z</time>
      </trkpt>
      <trkpt lat="44.79615" lon="1.66022">
        <ele>272.3</ele>
        <time>2023-04-15T09:35:15Z</time>
      </trkpt>
      <trkpt lat="44.79606" lon="1.66026">
        <ele>274.2</ele>
        <time>2023-04-15T09:35:27Z</time>
      </trkpt>
      <trkpt lat="44.79604" lon="1.66038">
        <ele>267.8</ele>
        <time>2023-04-15T09:36:43Z</time>
      </trkpt>
      <trkpt lat="44.79595" lon="1.66044">
        <ele>268.1</ele>
        <time>2023-04-15T09:37:02Z</time>
      </trkpt>
      <trkpt lat="44.79588" lon="1.66053">
        <ele>270.7</ele>
        <time>2023-04-15T09:37:11Z</time>
      </trkpt>
      <trkpt lat="44.79582" lon="1.66062">
        <ele>269.9</ele>
        <time>2023-04-15T09:37:19Z</time>
      </trkpt>
      <trkpt lat="44.79574" lon="1.66071">
        <ele>267.5</ele>
        <time>2023-04-15T09:37:29Z</time>
      </trkpt>
      <trkpt lat="44.79568" lon="1.66081">
        <ele>267.2</ele>
        <time>2023-04-15T09:37:40Z</time>
      </trkpt>
      <trkpt lat="44.79561" lon="1.66088">
        <ele>269.4</ele>
        <time>2023-04-15T09:37:50Z</time>
      </trkpt>
      <trkpt lat="44.79553" lon="1.66097">
        <ele>270.7</ele>
        <time>2023-04-15T09:38:00Z</time>
      </trkpt>
      <trkpt lat="44.79547" lon="1.66108">
        <ele>269.1</ele>
        <time>2023-04-15T09:38:09Z</time>
      </trkpt>
      <trkpt lat="44.79539" lon="1.66116">
        <ele>269.1</ele>
        <time>2023-04-15T09:38:20Z</time>
      </trkpt>
      <trkpt lat="44.79533" lon="1.66127">
        <ele>269.8</ele>
        <time>2023-04-15T09:38:28Z</time>
      </trkpt>
      <trkpt lat="44.79527" lon="1.66137">
        <ele>273.1</ele>
        <time>2023-04-15T09:38:37Z</time>
      </trkpt>
      <trkpt lat="44.7952" lon="1.66146">
        <ele>268.7</ele>
        <time>2023-04-15T09:38:45Z</time>
      </trkpt>
      <trkpt lat="44.79516" lon="1.66157">
        <ele>264.3</ele>
        <time>2023-04-15T09:38:53Z</time>
      </trkpt>
      <trkpt lat="44.7951" lon="1.66168">
        <ele>263.5</ele>
        <time>2023-04-15T09:39:03Z</time>
      </trkpt>
      <trkpt lat="44.79505" lon="1.6618">
        <ele>264.9</ele>
        <time>2023-04-15T09:39:13Z</time>
      </trkpt>
      <trkpt lat="44.79499" lon="1.66189">
        <ele>269.6</ele>
        <time>2023-04-15T09:39:22Z</time>
      </trkpt>
      <trkpt lat="44.79491" lon="1.66196">
        <ele>267.3</ele>
        <time>2023-04-15T09:39:30Z</time>
      </trkpt>
      <trkpt lat="44.79482" lon="1.66199">
        <ele>266.8</ele>
        <time>2023-04-15T09:39:39Z</time>
      </trkpt>
      <trkpt lat="44.79474" lon="1.66194">
        <ele>270</ele>
        <time>2023-04-15T09:39:51Z</time>
      </trkpt>
      <trkpt lat="44.79466" lon="1.66184">
        <ele>269.8</ele>
        <time>2023-04-15T09:40:02Z</time>
      </trkpt>
      <trkpt lat="44.7946" lon="1.66174">
        <ele>270.6</ele>
        <time>2023-04-15T09:40:14Z</time>
      </trkpt>
      <trkpt lat="44.79452" lon="1.66167">
        <ele>271.8</ele>
        <time>2023-04-15T09:40:26Z</time>
      </trkpt>
      <trkpt lat="44.79443" lon="1.66167">
        <ele>271.9</ele>
        <time>2023-04-15T09:40:37Z</time>
      </trkpt>
      <trkpt lat="44.79434" lon="1.6617">
        <ele>271.3</ele>
        <time>2023-04-15T09:40:46Z</time>
      </trkpt>
      <trkpt lat="44.79426" lon="1.66176">
        <ele>271</ele>
        <time>2023-04-15T09:40:56Z</time>
      </trkpt>
      <trkpt lat="44.79417" lon="1.66185">
        <ele>271.9</ele>
        <time>2023-04-15T09:41:05Z</time>
      </trkpt>
      <trkpt lat="44.79411" lon="1.66195">
        <ele>271.6</ele>
        <time>2023-04-15T09:41:15Z</time>
      </trkpt>
      <trkpt lat="44.79404" lon="1.66205">
        <ele>269</ele>
        <time>2023-04-15T09:41:24Z</time>
      </trkpt>
      <trkpt lat="44.79399" lon="1.66215">
        <ele>268.2</ele>
        <time>2023-04-15T09:41:34Z</time>
      </trkpt>
      <trkpt lat="44.79398" lon="1.66228">
        <ele>267.3</ele>
        <time>2023-04-15T09:41:42Z</time>
      </trkpt>
      <trkpt lat="44.79395" lon="1.6624">
        <ele>268.2</ele>
        <time>2023-04-15T09:41:51Z</time>
      </trkpt>
      <trkpt lat="44.79392" lon="1.66252">
        <ele>268.6</ele>
        <time>2023-04-15T09:42:04Z</time>
      </trkpt>
      <trkpt lat="44.79389" lon="1.66264">
        <ele>269.4</ele>
        <time>2023-04-15T09:42:15Z</time>
      </trkpt>
      <trkpt lat="44.79385" lon="1.66277">
        <ele>269</ele>
        <time>2023-04-15T09:42:24Z</time>
      </trkpt>
      <trkpt lat="44.79381" lon="1.66289">
        <ele>267.2</ele>
        <time>2023-04-15T09:42:32Z</time>
      </trkpt>
      <trkpt lat="44.79375" lon="1.663">
        <ele>266.3</ele>
        <time>2023-04-15T09:42:42Z</time>
      </trkpt>
      <trkpt lat="44.79368" lon="1.6631">
        <ele>265</ele>
        <time>2023-04-15T09:42:50Z</time>
      </trkpt>
      <trkpt lat="44.79364" lon="1.66322">
        <ele>263.8</ele>
        <time>2023-04-15T09:42:58Z</time>
      </trkpt>
      <trkpt lat="44.79361" lon="1.66334">
        <ele>265.9</ele>
        <time>2023-04-15T09:43:06Z</time>
      </trkpt>
      <trkpt lat="44.79358" lon="1.66347">
        <ele>264.6</ele>
        <time>2023-04-15T09:43:17Z</time>
      </trkpt>
      <trkpt lat="44.79356" lon="1.6636">
        <ele>263.3</ele>
        <time>2023-04-15T09:43:29Z</time>
      </trkpt>
      <trkpt lat="44.7935" lon="1.66371">
        <ele>259.3</ele>
        <time>2023-04-15T09:43:41Z</time>
      </trkpt>
      <trkpt lat="44.79348" lon="1.66384">
        <ele>254.8</ele>
        <time>2023-04-15T09:43:53Z</time>
      </trkpt>
      <trkpt lat="44.7934" lon="1.66392">
        <ele>255.6</ele>
        <time>2023-04-15T09:44:02Z</time>
      </trkpt>
      <trkpt lat="44.79334" lon="1.66402">
        <ele>258.8</ele>
        <time>2023-04-15T09:44:10Z</time>
      </trkpt>
      <trkpt lat="44.79328" lon="1.66413">
        <ele>258.6</ele>
        <time>2023-04-15T09:44:19Z</time>
      </trkpt>
      <trkpt lat="44.79323" lon="1.66425">
        <ele>258.9</ele>
        <time>2023-04-15T09:44:29Z</time>
      </trkpt>
      <trkpt lat="44.79319" lon="1.66436">
        <ele>259.7</ele>
        <time>2023-04-15T09:44:40Z</time>
      </trkpt>
      <trkpt lat="44.79314" lon="1.66447">
        <ele>260.8</ele>
        <time>2023-04-15T09:44:54Z</time>
      </trkpt>
      <trkpt lat="44.79306" lon="1.66455">
        <ele>262.3</ele>
        <time>2023-04-15T09:45:05Z</time>
      </trkpt>
      <trkpt lat="44.79298" lon="1.66462">
        <ele>264.1</ele>
        <time>2023-04-15T09:45:16Z</time>
      </trkpt>
      <trkpt lat="44.79289" lon="1.66468">
        <ele>265.9</ele>
        <time>2023-04-15T09:45:29Z</time>
      </trkpt>
      <trkpt lat="44.79281" lon="1.66475">
        <ele>267.3</ele>
        <time>2023-04-15T09:45:39Z</time>
      </trkpt>
      <trkpt lat="44.79275" lon="1.66485">
        <ele>267.4</ele>
        <time>2023-04-15T09:45:48Z</time>
      </trkpt>
      <trkpt lat="44.79269" lon="1.66497">
        <ele>267.4</ele>
        <time>2023-04-15T09:45:58Z</time>
      </trkpt>
      <trkpt lat="44.79263" lon="1.66507">
        <ele>266.8</ele>
        <time>2023-04-15T09:46:07Z</time>
      </trkpt>
      <trkpt lat="44.79257" lon="1.66518">
        <ele>266.8</ele>
        <time>2023-04-15T09:46:16Z</time>
      </trkpt>
      <trkpt lat="44.79251" lon="1.66529">
        <ele>268.2</ele>
        <time>2023-04-15T09:46:26Z</time>
      </trkpt>
      <trkpt lat="44.79243" lon="1.66537">
        <ele>267.6</ele>
        <time>2023-04-15T09:46:35Z</time>
      </trkpt>
      <trkpt lat="44.79234" lon="1.66543">
        <ele>267.9</ele>
        <time>2023-04-15T09:46:44Z</time>
      </trkpt>
      <trkpt lat="44.7923" lon="1.66555">
        <ele>267.9</ele>
        <time>2023-04-15T09:46:53Z</time>
      </trkpt>
      <trkpt lat="44.79231" lon="1.66569">
        <ele>266.6</ele>
        <time>2023-04-15T09:47:02Z</time>
      </trkpt>
      <trkpt lat="44.79232" lon="1.66583">
        <ele>265.4</ele>
        <time>2023-04-15T09:47:11Z</time>
      </trkpt>
      <trkpt lat="44.79235" lon="1.66597">
        <ele>265.8</ele>
        <time>2023-04-15T09:47:19Z</time>
      </trkpt>
      <trkpt lat="44.79237" lon="1.6661">
        <ele>266.6</ele>
        <time>2023-04-15T09:47:28Z</time>
      </trkpt>
      <trkpt lat="44.79242" lon="1.66622">
        <ele>267.9</ele>
        <time>2023-04-15T09:47:37Z</time>
      </trkpt>
      <trkpt lat="44.79251" lon="1.66629">
        <ele>268.5</ele>
        <time>2023-04-15T09:47:46Z</time>
      </trkpt>
      <trkpt lat="44.7926" lon="1.66632">
        <ele>269.2</ele>
        <time>2023-04-15T09:47:56Z</time>
      </trkpt>
      <trkpt lat="44.79267" lon="1.66641">
        <ele>271.1</ele>
        <time>2023-04-15T09:48:05Z</time>
      </trkpt>
      <trkpt lat="44.79275" lon="1.66649">
        <ele>271.4</ele>
        <time>2023-04-15T09:48:14Z</time>
      </trkpt>
      <trkpt lat="44.79283" lon="1.66657">
        <ele>267.1</ele>
        <time>2023-04-15T09:48:22Z</time>
      </trkpt>
      <trkpt lat="44.79288" lon="1.66668">
        <ele>263.6</ele>
        <time>2023-04-15T09:48:32Z</time>
      </trkpt>
      <trkpt lat="44.79295" lon="1.66677">
        <ele>259.9</ele>
        <time>2023-04-15T09:48:42Z</time>
      </trkpt>
      <trkpt lat="44.793" lon="1.66688">
        <ele>259.7</ele>
        <time>2023-04-15T09:48:51Z</time>
      </trkpt>
      <trkpt lat="44.79301" lon="1.66701">
        <ele>262.4</ele>
        <time>2023-04-15T09:49:02Z</time>
      </trkpt>
      <trkpt lat="44.79305" lon="1.66714">
        <ele>262.7</ele>
        <time>2023-04-15T09:49:13Z</time>
      </trkpt>
      <trkpt lat="44.79303" lon="1.66726">
        <ele>265.4</ele>
        <time>2023-04-15T09:49:23Z</time>
      </trkpt>
      <trkpt lat="44.79303" lon="1.6674">
        <ele>267</ele>
        <time>2023-04-15T09:49:31Z</time>
      </trkpt>
      <trkpt lat="44.79302" lon="1.66753">
        <ele>268.5</ele>
        <time>2023-04-15T09:49:41Z</time>
      </trkpt>
      <trkpt lat="44.79296" lon="1.66764">
        <ele>269</ele>
        <time>2023-04-15T09:49:51Z</time>
      </trkpt>
      <trkpt lat="44.7929" lon="1.66773">
        <ele>269.9</ele>
        <time>2023-04-15T09:50:05Z</time>
      </trkpt>
      <trkpt lat="44.79283" lon="1.66782">
        <ele>270.1</ele>
        <time>2023-04-15T09:50:17Z</time>
      </trkpt>
      <trkpt lat="44.79275" lon="1.66792">
        <ele>270.8</ele>
        <time>2023-04-15T09:50:27Z</time>
      </trkpt>
      <trkpt lat="44.79267" lon="1.66797">
        <ele>271.2</ele>
        <time>2023-04-15T09:50:36Z</time>
      </trkpt>
      <trkpt lat="44.79259" lon="1.66806">
        <ele>271.4</ele>
        <time>2023-04-15T09:50:45Z</time>
      </trkpt>
      <trkpt lat="44.79253" lon="1.66816">
        <ele>269.7</ele>
        <time>2023-04-15T09:50:53Z</time>
      </trkpt>
      <trkpt lat="44.79246" lon="1.66825">
        <ele>270</ele>
        <time>2023-04-15T09:51:02Z</time>
      </trkpt>
      <trkpt lat="44.79237" lon="1.66831">
        <ele>270.5</ele>
        <time>2023-04-15T09:51:11Z</time>
      </trkpt>
      <trkpt lat="44.7923" lon="1.66839">
        <ele>269.5</ele>
        <time>2023-04-15T09:51:19Z</time>
      </trkpt>
      <trkpt lat="44.79221" lon="1.66845">
        <ele>271.1</ele>
        <time>2023-04-15T09:51:27Z</time>
      </trkpt>
      <trkpt lat="44.79211" lon="1.66848">
        <ele>268.9</ele>
        <time>2023-04-15T09:51:37Z</time>
      </trkpt>
      <trkpt lat="44.79202" lon="1.6685">
        <ele>266.7</ele>
        <time>2023-04-15T09:51:47Z</time>
      </trkpt>
      <trkpt lat="44.792" lon="1.66863">
        <ele>263.6</ele>
        <time>2023-04-15T09:52:25Z</time>
      </trkpt>
      <trkpt lat="44.7921" lon="1.66862">
        <ele>265.7</ele>
        <time>2023-04-15T09:54:01Z</time>
      </trkpt>
      <trkpt lat="44.79202" lon="1.66855">
        <ele>265.9</ele>
        <time>2023-04-15T09:55:47Z</time>
      </trkpt>
      <trkpt lat="44.79202" lon="1.66841">
        <ele>268.5</ele>
        <time>2023-04-15T10:03:01Z</time>
      </trkpt>
      <trkpt lat="44.79203" lon="1.66828">
        <ele>270.9</ele>
        <time>2023-04-15T10:03:14Z</time>
      </trkpt>
      <trkpt lat="44.79201" lon="1.66815">
        <ele>272.2</ele>
        <time>2023-04-15T10:03:30Z</time>
      </trkpt>
      <trkpt lat="44.79197" lon="1.66803">
        <ele>273.3</ele>
        <time>2023-04-15T10:03:41Z</time>
      </trkpt>
      <trkpt lat="44.79193" lon="1.66791">
        <ele>273.8</ele>
        <time>2023-04-15T10:03:52Z</time>
      </trkpt>
      <trkpt lat="44.79189" lon="1.6678">
        <ele>274.1</ele>
        <time>2023-04-15T10:04:04Z</time>
      </trkpt>
      <trkpt lat="44.79185" lon="1.66767">
        <ele>274.1</ele>
        <time>2023-04-15T10:04:15Z</time>
      </trkpt>
      <trkpt lat="44.79176" lon="1.66763">
        <ele>273.8</ele>
        <time>2023-04-15T10:04:23Z</time>
      </trkpt>
      <trkpt lat="44.79168" lon="1.66756">
        <ele>274.2</ele>
        <time>2023-04-15T10:04:33Z</time>
      </trkpt>
      <trkpt lat="44.79161" lon="1.66748">
        <ele>274.8</ele>
        <time>2023-04-15T10:04:45Z</time>
      </trkpt>
      <trkpt lat="44.79152" lon="1.66747">
        <ele>274.5</ele>
        <time>2023-04-15T10:04:55Z</time>
      </trkpt>
      <trkpt lat="44.79142" lon="1.66749">
        <ele>274.1</ele>
        <time>2023-04-15T10:05:03Z</time>
      </trkpt>
      <trkpt lat="44.79133" lon="1.66754">
        <ele>273</ele>
        <time>2023-04-15T10:05:11Z</time>
      </trkpt>
      <trkpt lat="44.79125" lon="1.6676">
        <ele>271.1</ele>
        <time>2023-04-15T10:05:22Z</time>
      </trkpt>
      <trkpt lat="44.79116" lon="1.6676">
        <ele>271</ele>
        <time>2023-04-15T10:08:43Z</time>
      </trkpt>
      <trkpt lat="44.79106" lon="1.66762">
        <ele>271</ele>
        <time>2023-04-15T10:08:54Z</time>
      </trkpt>
      <trkpt lat="44.79097" lon="1.66759">
        <ele>272.2</ele>
        <time>2023-04-15T10:09:07Z</time>
      </trkpt>
      <trkpt lat="44.79088" lon="1.6676">
        <ele>272.6</ele>
        <time>2023-04-15T10:09:18Z</time>
      </trkpt>
      <trkpt lat="44.79083" lon="1.66771">
        <ele>271.7</ele>
        <time>2023-04-15T10:09:28Z</time>
      </trkpt>
      <trkpt lat="44.79076" lon="1.66779">
        <ele>270.8</ele>
        <time>2023-04-15T10:09:46Z</time>
      </trkpt>
      <trkpt lat="44.79069" lon="1.66788">
        <ele>266.3</ele>
        <time>2023-04-15T10:10:21Z</time>
      </trkpt>
      <trkpt lat="44.7906" lon="1.66787">
        <ele>269.6</ele>
        <time>2023-04-15T10:10:31Z</time>
      </trkpt>
      <trkpt lat="44.79051" lon="1.6679">
        <ele>270.4</ele>
        <time>2023-04-15T10:10:41Z</time>
      </trkpt>
      <trkpt lat="44.79043" lon="1.66796">
        <ele>270.2</ele>
        <time>2023-04-15T10:10:48Z</time>
      </trkpt>
      <trkpt lat="44.79034" lon="1.66803">
        <ele>270.9</ele>
        <time>2023-04-15T10:10:56Z</time>
      </trkpt>
      <trkpt lat="44.79025" lon="1.66807">
        <ele>271.8</ele>
        <time>2023-04-15T10:11:03Z</time>
      </trkpt>
      <trkpt lat="44.79015" lon="1.66809">
        <ele>271.4</ele>
        <time>2023-04-15T10:11:12Z</time>
      </trkpt>
      <trkpt lat="44.79006" lon="1.6681">
        <ele>271.7</ele>
        <time>2023-04-15T10:11:21Z</time>
      </trkpt>
      <trkpt lat="44.78997" lon="1.66809">
        <ele>272</ele>
        <time>2023-04-15T10:11:32Z</time>
      </trkpt>
      <trkpt lat="44.78987" lon="1.66811">
        <ele>271.6</ele>
        <time>2023-04-15T10:11:43Z</time>
      </trkpt>
      <trkpt lat="44.78978" lon="1.66808">
        <ele>272.4</ele>
        <time>2023-04-15T10:11:52Z</time>
      </trkpt>
      <trkpt lat="44.78973" lon="1.66797">
        <ele>273.3</ele>
        <time>2023-04-15T10:12:03Z</time>
      </trkpt>
      <trkpt lat="44.78963" lon="1.66797">
        <ele>273.6</ele>
        <time>2023-04-15T10:12:14Z</time>
      </trkpt>
      <trkpt lat="44.78956" lon="1.66807">
        <ele>273.5</ele>
        <time>2023-04-15T10:12:22Z</time>
      </trkpt>
      <trkpt lat="44.78951" lon="1.66817">
        <ele>273.2</ele>
        <time>2023-04-15T10:12:30Z</time>
      </trkpt>
      <trkpt lat="44.78944" lon="1.66825">
        <ele>274</ele>
        <time>2023-04-15T10:12:39Z</time>
      </trkpt>
      <trkpt lat="44.78937" lon="1.66835">
        <ele>273.7</ele>
        <time>2023-04-15T10:12:48Z</time>
      </trkpt>
      <trkpt lat="44.78933" lon="1.66847">
        <ele>273.6</ele>
        <time>2023-04-15T10:12:58Z</time>
      </trkpt>
      <trkpt lat="44.78928" lon="1.66858">
        <ele>274.2</ele>
        <time>2023-04-15T10:13:08Z</time>
      </trkpt>
      <trkpt lat="44.78926" lon="1.66872">
        <ele>274.8</ele>
        <time>2023-04-15T10:13:18Z</time>
      </trkpt>
      <trkpt lat="44.78924" lon="1.66885">
        <ele>275.7</ele>
        <time>2023-04-15T10:13:27Z</time>
      </trkpt>
      <trkpt lat="44.78919" lon="1.66898">
        <ele>276.2</ele>
        <time>2023-04-15T10:13:37Z</time>
      </trkpt>
      <trkpt lat="44.78915" lon="1.6691">
        <ele>276.6</ele>
        <time>2023-04-15T10:13:45Z</time>
      </trkpt>
      <trkpt lat="44.78913" lon="1.66924">
        <ele>276.5</ele>
        <time>2023-04-15T10:13:53Z</time>
      </trkpt>
      <trkpt lat="44.78907" lon="1.66935">
        <ele>277</ele>
        <time>2023-04-15T10:14:02Z</time>
      </trkpt>
      <trkpt lat="44.78905" lon="1.66949">
        <ele>276.9</ele>
        <time>2023-04-15T10:14:10Z</time>
      </trkpt>
      <trkpt lat="44.78907" lon="1.66962">
        <ele>275.9</ele>
        <time>2023-04-15T10:14:18Z</time>
      </trkpt>
      <trkpt lat="44.7891" lon="1.66976">
        <ele>274.7</ele>
        <time>2023-04-15T10:14:25Z</time>
      </trkpt>
      <trkpt lat="44.7891" lon="1.66989">
        <ele>273.7</ele>
        <time>2023-04-15T10:14:33Z</time>
      </trkpt>
      <trkpt lat="44.78903" lon="1.66997">
        <ele>274.2</ele>
        <time>2023-04-15T10:18:45Z</time>
      </trkpt>
      <trkpt lat="44.78894" lon="1.66992">
        <ele>275.8</ele>
        <time>2023-04-15T10:19:06Z</time>
      </trkpt>
      <trkpt lat="44.78887" lon="1.66985">
        <ele>277.5</ele>
        <time>2023-04-15T10:19:20Z</time>
      </trkpt>
      <trkpt lat="44.78878" lon="1.6698">
        <ele>279.4</ele>
        <time>2023-04-15T10:19:40Z</time>
      </trkpt>
      <trkpt lat="44.7887" lon="1.66975">
        <ele>281.3</ele>
        <time>2023-04-15T10:19:53Z</time>
      </trkpt>
      <trkpt lat="44.78862" lon="1.66969">
        <ele>283.2</ele>
        <time>2023-04-15T10:20:04Z</time>
      </trkpt>
      <trkpt lat="44.78854" lon="1.66961">
        <ele>285.4</ele>
        <time>2023-04-15T10:20:28Z</time>
      </trkpt>
      <trkpt lat="44.78846" lon="1.66955">
        <ele>287.5</ele>
        <time>2023-04-15T10:20:42Z</time>
      </trkpt>
      <trkpt lat="44.78839" lon="1.66946">
        <ele>289.7</ele>
        <time>2023-04-15T10:20:58Z</time>
      </trkpt>
      <trkpt lat="44.78831" lon="1.66938">
        <ele>291.9</ele>
        <time>2023-04-15T10:21:13Z</time>
      </trkpt>
      <trkpt lat="44.78823" lon="1.66931">
        <ele>293.8</ele>
        <time>2023-04-15T10:21:27Z</time>
      </trkpt>
      <trkpt lat="44.78815" lon="1.66924">
        <ele>295.7</ele>
        <time>2023-04-15T10:21:41Z</time>
      </trkpt>
      <trkpt lat="44.78806" lon="1.66922">
        <ele>297.5</ele>
        <time>2023-04-15T10:21:52Z</time>
      </trkpt>
      <trkpt lat="44.78799" lon="1.66915">
        <ele>299.6</ele>
        <time>2023-04-15T10:22:07Z</time>
      </trkpt>
      <trkpt lat="44.78793" lon="1.66904">
        <ele>301.9</ele>
        <time>2023-04-15T10:22:27Z</time>
      </trkpt>
      <trkpt lat="44.78783" lon="1.66901">
        <ele>304.4</ele>
        <time>2023-04-15T10:22:40Z</time>
      </trkpt>
      <trkpt lat="44.78775" lon="1.66894">
        <ele>307</ele>
        <time>2023-04-15T10:22:57Z</time>
      </trkpt>
      <trkpt lat="44.78767" lon="1.66889">
        <ele>309.4</ele>
        <time>2023-04-15T10:23:16Z</time>
      </trkpt>
      <trkpt lat="44.78759" lon="1.66882">
        <ele>311.4</ele>
        <time>2023-04-15T10:23:30Z</time>
      </trkpt>
      <trkpt lat="44.78753" lon="1.66872">
        <ele>313</ele>
        <time>2023-04-15T10:23:45Z</time>
      </trkpt>
      <trkpt lat="44.78746" lon="1.66864">
        <ele>314.7</ele>
        <time>2023-04-15T10:23:55Z</time>
      </trkpt>
      <trkpt lat="44.78737" lon="1.66858">
        <ele>316.4</ele>
        <time>2023-04-15T10:24:07Z</time>
      </trkpt>
      <trkpt lat="44.78729" lon="1.6685">
        <ele>318.1</ele>
        <time>2023-04-15T10:24:19Z</time>
      </trkpt>
      <trkpt lat="44.78721" lon="1.66842">
        <ele>319.8</ele>
        <time>2023-04-15T10:24:31Z</time>
      </trkpt>
      <trkpt lat="44.78712" lon="1.66839">
        <ele>320.8</ele>
        <time>2023-04-15T10:24:43Z</time>
      </trkpt>
      <trkpt lat="44.78704" lon="1.66835">
        <ele>321.9</ele>
        <time>2023-04-15T10:24:54Z</time>
      </trkpt>
      <trkpt lat="44.78696" lon="1.66829">
        <ele>323</ele>
        <time>2023-04-15T10:25:05Z</time>
      </trkpt>
      <trkpt lat="44.78689" lon="1.66819">
        <ele>324.1</ele>
        <time>2023-04-15T10:25:19Z</time>
      </trkpt>
      <trkpt lat="44.7868" lon="1.66815">
        <ele>325.2</ele>
        <time>2023-04-15T10:25:32Z</time>
      </trkpt>
      <trkpt lat="44.78673" lon="1.66806">
        <ele>326.3</ele>
        <time>2023-04-15T10:25:44Z</time>
      </trkpt>
      <trkpt lat="44.78664" lon="1.66803">
        <ele>327.1</ele>
        <time>2023-04-15T10:25:54Z</time>
      </trkpt>
      <trkpt lat="44.78654" lon="1.66799">
        <ele>327.4</ele>
        <time>2023-04-15T10:26:04Z</time>
      </trkpt>
      <trkpt lat="44.78648" lon="1.6679">
        <ele>327.7</ele>
        <time>2023-04-15T10:26:13Z</time>
      </trkpt>
      <trkpt lat="44.7864" lon="1.66783">
        <ele>328</ele>
        <time>2023-04-15T10:26:24Z</time>
      </trkpt>
      <trkpt lat="44.78632" lon="1.66776">
        <ele>328</ele>
        <time>2023-04-15T10:26:34Z</time>
      </trkpt>
      <trkpt lat="44.78624" lon="1.66769">
        <ele>328</ele>
        <time>2023-04-15T10:26:45Z</time>
      </trkpt>
      <trkpt lat="44.78626" lon="1.66756">
        <ele>328</ele>
        <time>2023-04-15T10:26:54Z</time>
      </trkpt>
      <trkpt lat="44.78629" lon="1.66743">
        <ele>327.9</ele>
        <time>2023-04-15T10:27:05Z</time>
      </trkpt>
      <trkpt lat="44.78632" lon="1.66731">
        <ele>327.8</ele>
        <time>2023-04-15T10:27:13Z</time>
      </trkpt>
      <trkpt lat="44.78633" lon="1.66717">
        <ele>327.6</ele>
        <time>2023-04-15T10:27:21Z</time>
      </trkpt>
      <trkpt lat="44.78635" lon="1.66705">
        <ele>327.2</ele>
        <time>2023-04-15T10:27:28Z</time>
      </trkpt>
      <trkpt lat="44.78639" lon="1.66692">
        <ele>326.9</ele>
        <time>2023-04-15T10:27:36Z</time>
      </trkpt>
      <trkpt lat="44.78643" lon="1.6668">
        <ele>326.5</ele>
        <time>2023-04-15T10:27:44Z</time>
      </trkpt>
      <trkpt lat="44.78646" lon="1.66667">
        <ele>326</ele>
        <time>2023-04-15T10:27:53Z</time>
      </trkpt>
      <trkpt lat="44.78649" lon="1.66655">
        <ele>325.9</ele>
        <time>2023-04-15T10:28:02Z</time>
      </trkpt>
      <trkpt lat="44.78651" lon="1.66643">
        <ele>325.6</ele>
        <time>2023-04-15T10:28:10Z</time>
      </trkpt>
      <trkpt lat="44.78652" lon="1.6663">
        <ele>325.2</ele>
        <time>2023-04-15T10:28:18Z</time>
      </trkpt>
      <trkpt lat="44.78655" lon="1.66617">
        <ele>324.7</ele>
        <time>2023-04-15T10:28:26Z</time>
      </trkpt>
      <trkpt lat="44.78658" lon="1.66604">
        <ele>324.5</ele>
        <time>2023-04-15T10:28:34Z</time>
      </trkpt>
      <trkpt lat="44.78663" lon="1.66591">
        <ele>324.1</ele>
        <time>2023-04-15T10:28:42Z</time>
      </trkpt>
      <trkpt lat="44.78668" lon="1.6658">
        <ele>323.8</ele>
        <time>2023-04-15T10:28:51Z</time>
      </trkpt>
      <trkpt lat="44.78673" lon="1.66568">
        <ele>323.3</ele>
        <time>2023-04-15T10:28:59Z</time>
      </trkpt>
      <trkpt lat="44.78676" lon="1.66556">
        <ele>322.7</ele>
        <time>2023-04-15T10:29:07Z</time>
      </trkpt>
      <trkpt lat="44.78679" lon="1.66542">
        <ele>322.1</ele>
        <time>2023-04-15T10:29:17Z</time>
      </trkpt>
      <trkpt lat="44.78678" lon="1.66529">
        <ele>321.6</ele>
        <time>2023-04-15T10:29:26Z</time>
      </trkpt>
      <trkpt lat="44.7868" lon="1.66516">
        <ele>321.1</ele>
        <time>2023-04-15T10:29:35Z</time>
      </trkpt>
      <trkpt lat="44.78681" lon="1.66502">
        <ele>320.5</ele>
        <time>2023-04-15T10:29:44Z</time>
      </trkpt>
      <trkpt lat="44.78684" lon="1.66489">
        <ele>319.8</ele>
        <time>2023-04-15T10:29:54Z</time>
      </trkpt>
      <trkpt lat="44.78687" lon="1.66476">
        <ele>319.2</ele>
        <time>2023-04-15T10:30:04Z</time>
      </trkpt>
      <trkpt lat="44.7869" lon="1.66463">
        <ele>318.4</ele>
        <time>2023-04-15T10:30:13Z</time>
      </trkpt>
      <trkpt lat="44.78694" lon="1.66451">
        <ele>317.5</ele>
        <time>2023-04-15T10:30:21Z</time>
      </trkpt>
      <trkpt lat="44.78697" lon="1.66438">
        <ele>316.7</ele>
        <time>2023-04-15T10:30:30Z</time>
      </trkpt>
      <trkpt lat="44.78695" lon="1.66425">
        <ele>316.3</ele>
        <time>2023-04-15T10:30:38Z</time>
      </trkpt>
      <trkpt lat="44.78699" lon="1.66413">
        <ele>315.5</ele>
        <time>2023-04-15T10:30:46Z</time>
      </trkpt>
      <trkpt lat="44.78697" lon="1.664">
        <ele>314.6</ele>
        <time>2023-04-15T10:30:54Z</time>
      </trkpt>
      <trkpt lat="44.78699" lon="1.66386">
        <ele>313.6</ele>
        <time>2023-04-15T10:31:03Z</time>
      </trkpt>
      <trkpt lat="44.78701" lon="1.66373">
        <ele>312.6</ele>
        <time>2023-04-15T10:31:11Z</time>
      </trkpt>
      <trkpt lat="44.78701" lon="1.66359">
        <ele>311.6</ele>
        <time>2023-04-15T10:31:20Z</time>
      </trkpt>
      <trkpt lat="44.78699" lon="1.66345">
        <ele>310.7</ele>
        <time>2023-04-15T10:31:28Z</time>
      </trkpt>
      <trkpt lat="44.78697" lon="1.66332">
        <ele>309.8</ele>
        <time>2023-04-15T10:31:36Z</time>
      </trkpt>
      <trkpt lat="44.78696" lon="1.66319">
        <ele>308.9</ele>
        <time>2023-04-15T10:31:44Z</time>
      </trkpt>
      <trkpt lat="44.78698" lon="1.66305">
        <ele>307.8</ele>
        <time>2023-04-15T10:31:53Z</time>
      </trkpt>
      <trkpt lat="44.78699" lon="1.66292">
        <ele>306.8</ele>
        <time>2023-04-15T10:32:01Z</time>
      </trkpt>
      <trkpt lat="44.78702" lon="1.66279">
        <ele>305.8</ele>
        <time>2023-04-15T10:32:11Z</time>
      </trkpt>
      <trkpt lat="44.78706" lon="1.66267">
        <ele>304.8</ele>
        <time>2023-04-15T10:32:20Z</time>
      </trkpt>
      <trkpt lat="44.78712" lon="1.66256">
        <ele>303.8</ele>
        <time>2023-04-15T10:32:29Z</time>
      </trkpt>
      <trkpt lat="44.78717" lon="1.66245">
        <ele>302.8</ele>
        <time>2023-04-15T10:32:38Z</time>
      </trkpt>
      <trkpt lat="44.78722" lon="1.66233">
        <ele>301.8</ele>
        <time>2023-04-15T10:32:45Z</time>
      </trkpt>
      <trkpt lat="44.78726" lon="1.66221">
        <ele>300.6</ele>
        <time>2023-04-15T10:32:54Z</time>
      </trkpt>
      <trkpt lat="44.78728" lon="1.66207">
        <ele>299.2</ele>
        <time>2023-04-15T10:33:02Z</time>
      </trkpt>
      <trkpt lat="44.7873" lon="1.66193">
        <ele>297.9</ele>
        <time>2023-04-15T10:33:11Z</time>
      </trkpt>
      <trkpt lat="44.78736" lon="1.66183">
        <ele>296.7</ele>
        <time>2023-04-15T10:33:19Z</time>
      </trkpt>
      <trkpt lat="44.7874" lon="1.6617">
        <ele>295.4</ele>
        <time>2023-04-15T10:33:28Z</time>
      </trkpt>
      <trkpt lat="44.78744" lon="1.66158">
        <ele>294.4</ele>
        <time>2023-04-15T10:33:36Z</time>
      </trkpt>
      <trkpt lat="44.78748" lon="1.66147">
        <ele>293.6</ele>
        <time>2023-04-15T10:33:44Z</time>
      </trkpt>
      <trkpt lat="44.78753" lon="1.66134">
        <ele>292.6</ele>
        <time>2023-04-15T10:33:52Z</time>
      </trkpt>
      <trkpt lat="44.78754" lon="1.66121">
        <ele>291.7</ele>
        <time>2023-04-15T10:34:01Z</time>
      </trkpt>
      <trkpt lat="44.78759" lon="1.66109">
        <ele>290.8</ele>
        <time>2023-04-15T10:34:09Z</time>
      </trkpt>
      <trkpt lat="44.78765" lon="1.66097">
        <ele>289.5</ele>
        <time>2023-04-15T10:34:17Z</time>
      </trkpt>
      <trkpt lat="44.78769" lon="1.66086">
        <ele>288.3</ele>
        <time>2023-04-15T10:34:25Z</time>
      </trkpt>
      <trkpt lat="44.78774" lon="1.66074">
        <ele>287.3</ele>
        <time>2023-04-15T10:34:34Z</time>
      </trkpt>
      <trkpt lat="44.7878" lon="1.66064">
        <ele>286.6</ele>
        <time>2023-04-15T10:34:41Z</time>
      </trkpt>
      <trkpt lat="44.78785" lon="1.66052">
        <ele>285.8</ele>
        <time>2023-04-15T10:34:48Z</time>
      </trkpt>
      <trkpt lat="44.78792" lon="1.66042">
        <ele>285</ele>
        <time>2023-04-15T10:34:57Z</time>
      </trkpt>
      <trkpt lat="44.78799" lon="1.66035">
        <ele>284.5</ele>
        <time>2023-04-15T10:35:05Z</time>
      </trkpt>
      <trkpt lat="44.78808" lon="1.66026">
        <ele>283.8</ele>
        <time>2023-04-15T10:35:13Z</time>
      </trkpt>
      <trkpt lat="44.78815" lon="1.66017">
        <ele>282.9</ele>
        <time>2023-04-15T10:35:21Z</time>
      </trkpt>
      <trkpt lat="44.78821" lon="1.66006">
        <ele>281.9</ele>
        <time>2023-04-15T10:35:29Z</time>
      </trkpt>
      <trkpt lat="44.78827" lon="1.65995">
        <ele>281</ele>
        <time>2023-04-15T10:35:36Z</time>
      </trkpt>
      <trkpt lat="44.78833" lon="1.65985">
        <ele>280.5</ele>
        <time>2023-04-15T10:35:43Z</time>
      </trkpt>
      <trkpt lat="44.78839" lon="1.65974">
        <ele>279.9</ele>
        <time>2023-04-15T10:35:51Z</time>
      </trkpt>
      <trkpt lat="44.78842" lon="1.65961">
        <ele>278.6</ele>
        <time>2023-04-15T10:35:58Z</time>
      </trkpt>
      <trkpt lat="44.78847" lon="1.65948">
        <ele>277.3</ele>
        <time>2023-04-15T10:36:07Z</time>
      </trkpt>
      <trkpt lat="44.7885" lon="1.65935">
        <ele>276.6</ele>
        <time>2023-04-15T10:36:15Z</time>
      </trkpt>
      <trkpt lat="44.78848" lon="1.65922">
        <ele>276.2</ele>
        <time>2023-04-15T10:36:23Z</time>
      </trkpt>
      <trkpt lat="44.78843" lon="1.65911">
        <ele>275.6</ele>
        <time>2023-04-15T10:36:31Z</time>
      </trkpt>
      <trkpt lat="44.78838" lon="1.65899">
        <ele>274.7</ele>
        <time>2023-04-15T10:36:38Z</time>
      </trkpt>
      <trkpt lat="44.78833" lon="1.65887">
        <ele>273.9</ele>
        <time>2023-04-15T10:36:46Z</time>
      </trkpt>
      <trkpt lat="44.78828" lon="1.65873">
        <ele>273.6</ele>
        <time>2023-04-15T10:36:55Z</time>
      </trkpt>
      <trkpt lat="44.78822" lon="1.65863">
        <ele>273.5</ele>
        <time>2023-04-15T10:37:02Z</time>
      </trkpt>
      <trkpt lat="44.78817" lon="1.65852">
        <ele>273.1</ele>
        <time>2023-04-15T10:37:09Z</time>
      </trkpt>
      <trkpt lat="44.78811" lon="1.65841">
        <ele>272.5</ele>
        <time>2023-04-15T10:37:17Z</time>
      </trkpt>
      <trkpt lat="44.78808" lon="1.65829">
        <ele>271.9</ele>
        <time>2023-04-15T10:37:27Z</time>
      </trkpt>
      <trkpt lat="44.78804" lon="1.65818">
        <ele>271.5</ele>
        <time>2023-04-15T10:37:35Z</time>
      </trkpt>
      <trkpt lat="44.78803" lon="1.65804">
        <ele>271</ele>
        <time>2023-04-15T10:37:44Z</time>
      </trkpt>
      <trkpt lat="44.788" lon="1.65792">
        <ele>270.7</ele>
        <time>2023-04-15T10:37:53Z</time>
      </trkpt>
      <trkpt lat="44.78796" lon="1.65779">
        <ele>270.4</ele>
        <time>2023-04-15T10:38:02Z</time>
      </trkpt>
      <trkpt lat="44.78794" lon="1.65766">
        <ele>270</ele>
        <time>2023-04-15T10:38:10Z</time>
      </trkpt>
      <trkpt lat="44.7879" lon="1.65753">
        <ele>269.7</ele>
        <time>2023-04-15T10:38:18Z</time>
      </trkpt>
      <trkpt lat="44.78789" lon="1.65739">
        <ele>269.2</ele>
        <time>2023-04-15T10:38:28Z</time>
      </trkpt>
      <trkpt lat="44.78788" lon="1.65725">
        <ele>268.7</ele>
        <time>2023-04-15T10:38:37Z</time>
      </trkpt>
      <trkpt lat="44.78785" lon="1.65713">
        <ele>268.5</ele>
        <time>2023-04-15T10:38:44Z</time>
      </trkpt>
      <trkpt lat="44.78781" lon="1.657">
        <ele>268.2</ele>
        <time>2023-04-15T10:38:51Z</time>
      </trkpt>
      <trkpt lat="44.78778" lon="1.65687">
        <ele>268.3</ele>
        <time>2023-04-15T10:39:00Z</time>
      </trkpt>
      <trkpt lat="44.78776" lon="1.65673">
        <ele>268.8</ele>
        <time>2023-04-15T10:39:09Z</time>
      </trkpt>
      <trkpt lat="44.78772" lon="1.65661">
        <ele>269</ele>
        <time>2023-04-15T10:39:19Z</time>
      </trkpt>
      <trkpt lat="44.78769" lon="1.65649">
        <ele>269</ele>
        <time>2023-04-15T10:39:28Z</time>
      </trkpt>
      <trkpt lat="44.78766" lon="1.65637">
        <ele>269.1</ele>
        <time>2023-04-15T10:39:37Z</time>
      </trkpt>
      <trkpt lat="44.78763" lon="1.65625">
        <ele>269.5</ele>
        <time>2023-04-15T10:39:46Z</time>
      </trkpt>
      <trkpt lat="44.78759" lon="1.65613">
        <ele>269.9</ele>
        <time>2023-04-15T10:39:54Z</time>
      </trkpt>
      <trkpt lat="44.78753" lon="1.65601">
        <ele>270</ele>
        <time>2023-04-15T10:40:02Z</time>
      </trkpt>
      <trkpt lat="44.78749" lon="1.65588">
        <ele>270</ele>
        <time>2023-04-15T10:40:10Z</time>
      </trkpt>
      <trkpt lat="44.78745" lon="1.65575">
        <ele>270.1</ele>
        <time>2023-04-15T10:40:18Z</time>
      </trkpt>
      <trkpt lat="44.78743" lon="1.65561">
        <ele>270.6</ele>
        <time>2023-04-15T10:40:27Z</time>
      </trkpt>
      <trkpt lat="44.78741" lon="1.65549">
        <ele>270.7</ele>
        <time>2023-04-15T10:40:35Z</time>
      </trkpt>
      <trkpt lat="44.78736" lon="1.65537">
        <ele>270.8</ele>
        <time>2023-04-15T10:40:42Z</time>
      </trkpt>
      <trkpt lat="44.78733" lon="1.65525">
        <ele>271</ele>
        <time>2023-04-15T10:40:49Z</time>
      </trkpt>
      <trkpt lat="44.7873" lon="1.65512">
        <ele>270.9</ele>
        <time>2023-04-15T10:40:56Z</time>
      </trkpt>
      <trkpt lat="44.78725" lon="1.65501">
        <ele>270.9</ele>
        <time>2023-04-15T10:41:03Z</time>
      </trkpt>
      <trkpt lat="44.7872" lon="1.6549">
        <ele>271</ele>
        <time>2023-04-15T10:41:11Z</time>
      </trkpt>
      <trkpt lat="44.78717" lon="1.65476">
        <ele>271.2</ele>
        <time>2023-04-15T10:41:20Z</time>
      </trkpt>
      <trkpt lat="44.78716" lon="1.65462">
        <ele>271.3</ele>
        <time>2023-04-15T10:41:28Z</time>
      </trkpt>
      <trkpt lat="44.78714" lon="1.6545">
        <ele>271.6</ele>
        <time>2023-04-15T10:41:35Z</time>
      </trkpt>
      <trkpt lat="44.78711" lon="1.65437">
        <ele>272</ele>
        <time>2023-04-15T10:41:43Z</time>
      </trkpt>
      <trkpt lat="44.78709" lon="1.65423">
        <ele>272.3</ele>
        <time>2023-04-15T10:41:51Z</time>
      </trkpt>
      <trkpt lat="44.78708" lon="1.6541">
        <ele>272.6</ele>
        <time>2023-04-15T10:42:00Z</time>
      </trkpt>
      <trkpt lat="44.78706" lon="1.65397">
        <ele>273</ele>
        <time>2023-04-15T10:42:08Z</time>
      </trkpt>
      <trkpt lat="44.78701" lon="1.65387">
        <ele>273.6</ele>
        <time>2023-04-15T10:42:15Z</time>
      </trkpt>
      <trkpt lat="44.78695" lon="1.65377">
        <ele>274</ele>
        <time>2023-04-15T10:42:22Z</time>
      </trkpt>
      <trkpt lat="44.78687" lon="1.65369">
        <ele>274.3</ele>
        <time>2023-04-15T10:42:30Z</time>
      </trkpt>
      <trkpt lat="44.78678" lon="1.65364">
        <ele>274.6</ele>
        <time>2023-04-15T10:42:37Z</time>
      </trkpt>
      <trkpt lat="44.7867" lon="1.65357">
        <ele>274.9</ele>
        <time>2023-04-15T10:42:44Z</time>
      </trkpt>
      <trkpt lat="44.78663" lon="1.65348">
        <ele>275</ele>
        <time>2023-04-15T10:42:51Z</time>
      </trkpt>
      <trkpt lat="44.78656" lon="1.65337">
        <ele>275</ele>
        <time>2023-04-15T10:42:59Z</time>
      </trkpt>
      <trkpt lat="44.78651" lon="1.65327">
        <ele>275.1</ele>
        <time>2023-04-15T10:43:07Z</time>
      </trkpt>
      <trkpt lat="44.78647" lon="1.65315">
        <ele>275.5</ele>
        <time>2023-04-15T10:43:15Z</time>
      </trkpt>
      <trkpt lat="44.78641" lon="1.65305">
        <ele>275.9</ele>
        <time>2023-04-15T10:43:22Z</time>
      </trkpt>
      <trkpt lat="44.78637" lon="1.65293">
        <ele>276</ele>
        <time>2023-04-15T10:43:32Z</time>
      </trkpt>
      <trkpt lat="44.78632" lon="1.65282">
        <ele>276</ele>
        <time>2023-04-15T10:43:41Z</time>
      </trkpt>
      <trkpt lat="44.78628" lon="1.6527">
        <ele>276.1</ele>
        <time>2023-04-15T10:43:48Z</time>
      </trkpt>
      <trkpt lat="44.78623" lon="1.6526">
        <ele>276.4</ele>
        <time>2023-04-15T10:43:55Z</time>
      </trkpt>
      <trkpt lat="44.78618" lon="1.65248">
        <ele>276.8</ele>
        <time>2023-04-15T10:44:03Z</time>
      </trkpt>
      <trkpt lat="44.78613" lon="1.65237">
        <ele>276.9</ele>
        <time>2023-04-15T10:44:10Z</time>
      </trkpt>
      <trkpt lat="44.78609" lon="1.65226">
        <ele>276.8</ele>
        <time>2023-04-15T10:44:19Z</time>
      </trkpt>
      <trkpt lat="44.78605" lon="1.65214">
        <ele>276.6</ele>
        <time>2023-04-15T10:44:29Z</time>
      </trkpt>
      <trkpt lat="44.786" lon="1.65202">
        <ele>276.5</ele>
        <time>2023-04-15T10:44:38Z</time>
      </trkpt>
      <trkpt lat="44.78596" lon="1.65191">
        <ele>276.5</ele>
        <time>2023-04-15T10:44:47Z</time>
      </trkpt>
      <trkpt lat="44.78591" lon="1.65178">
        <ele>276.5</ele>
        <time>2023-04-15T10:44:56Z</time>
      </trkpt>
      <trkpt lat="44.78587" lon="1.65166">
        <ele>276.3</ele>
        <time>2023-04-15T10:45:03Z</time>
      </trkpt>
      <trkpt lat="44.78583" lon="1.65155">
        <ele>276.4</ele>
        <time>2023-04-15T10:45:11Z</time>
      </trkpt>
      <trkpt lat="44.7858" lon="1.65141">
        <ele>276.6</ele>
        <time>2023-04-15T10:45:20Z</time>
      </trkpt>
      <trkpt lat="44.78574" lon="1.6513">
        <ele>276.4</ele>
        <time>2023-04-15T10:45:28Z</time>
      </trkpt>
      <trkpt lat="44.78568" lon="1.65119">
        <ele>275.9</ele>
        <time>2023-04-15T10:45:37Z</time>
      </trkpt>
      <trkpt lat="44.78563" lon="1.65107">
        <ele>275.7</ele>
        <time>2023-04-15T10:45:47Z</time>
      </trkpt>
      <trkpt lat="44.78558" lon="1.65096">
        <ele>275.7</ele>
        <time>2023-04-15T10:45:55Z</time>
      </trkpt>
      <trkpt lat="44.78552" lon="1.65086">
        <ele>275.8</ele>
        <time>2023-04-15T10:46:03Z</time>
      </trkpt>
      <trkpt lat="44.78544" lon="1.65077">
        <ele>275.8</ele>
        <time>2023-04-15T10:46:11Z</time>
      </trkpt>
      <trkpt lat="44.78537" lon="1.65067">
        <ele>276.1</ele>
        <time>2023-04-15T10:46:19Z</time>
      </trkpt>
      <trkpt lat="44.78529" lon="1.6506">
        <ele>276.7</ele>
        <time>2023-04-15T10:46:27Z</time>
      </trkpt>
      <trkpt lat="44.78522" lon="1.65053">
        <ele>276.9</ele>
        <time>2023-04-15T10:46:35Z</time>
      </trkpt>
      <trkpt lat="44.78514" lon="1.65046">
        <ele>276.8</ele>
        <time>2023-04-15T10:46:43Z</time>
      </trkpt>
      <trkpt lat="44.78507" lon="1.65036">
        <ele>277</ele>
        <time>2023-04-15T10:46:52Z</time>
      </trkpt>
      <trkpt lat="44.785" lon="1.65028">
        <ele>277</ele>
        <time>2023-04-15T10:47:01Z</time>
      </trkpt>
      <trkpt lat="44.78491" lon="1.65021">
        <ele>276.9</ele>
        <time>2023-04-15T10:47:09Z</time>
      </trkpt>
      <trkpt lat="44.78484" lon="1.65013">
        <ele>276.7</ele>
        <time>2023-04-15T10:47:16Z</time>
      </trkpt>
      <trkpt lat="44.78476" lon="1.65006">
        <ele>276.3</ele>
        <time>2023-04-15T10:47:23Z</time>
      </trkpt>
      <trkpt lat="44.78469" lon="1.64999">
        <ele>276</ele>
        <time>2023-04-15T10:47:31Z</time>
      </trkpt>
      <trkpt lat="44.7846" lon="1.64993">
        <ele>276.1</ele>
        <time>2023-04-15T10:47:38Z</time>
      </trkpt>
      <trkpt lat="44.78451" lon="1.64993">
        <ele>276.1</ele>
        <time>2023-04-15T10:47:46Z</time>
      </trkpt>
      <trkpt lat="44.78442" lon="1.64997">
        <ele>276.1</ele>
        <time>2023-04-15T10:47:54Z</time>
      </trkpt>
      <trkpt lat="44.78432" lon="1.65">
        <ele>276.5</ele>
        <time>2023-04-15T10:48:02Z</time>
      </trkpt>
      <trkpt lat="44.78422" lon="1.65001">
        <ele>276.8</ele>
        <time>2023-04-15T10:48:10Z</time>
      </trkpt>
      <trkpt lat="44.78413" lon="1.65001">
        <ele>277</ele>
        <time>2023-04-15T10:48:19Z</time>
      </trkpt>
      <trkpt lat="44.78403" lon="1.64998">
        <ele>277.1</ele>
        <time>2023-04-15T10:48:27Z</time>
      </trkpt>
      <trkpt lat="44.78394" lon="1.64997">
        <ele>277.1</ele>
        <time>2023-04-15T10:48:35Z</time>
      </trkpt>
      <trkpt lat="44.78385" lon="1.64996">
        <ele>277.2</ele>
        <time>2023-04-15T10:48:43Z</time>
      </trkpt>
      <trkpt lat="44.78374" lon="1.64993">
        <ele>277.4</ele>
        <time>2023-04-15T10:48:51Z</time>
      </trkpt>
      <trkpt lat="44.78365" lon="1.64994">
        <ele>277.4</ele>
        <time>2023-04-15T10:49:00Z</time>
      </trkpt>
      <trkpt lat="44.78355" lon="1.64992">
        <ele>277.7</ele>
        <time>2023-04-15T10:49:09Z</time>
      </trkpt>
      <trkpt lat="44.78345" lon="1.64992">
        <ele>278</ele>
        <time>2023-04-15T10:49:17Z</time>
      </trkpt>
      <trkpt lat="44.78336" lon="1.64994">
        <ele>278.1</ele>
        <time>2023-04-15T10:49:25Z</time>
      </trkpt>
      <trkpt lat="44.78328" lon="1.65002">
        <ele>277.9</ele>
        <time>2023-04-15T10:49:34Z</time>
      </trkpt>
      <trkpt lat="44.78322" lon="1.65013">
        <ele>277.7</ele>
        <time>2023-04-15T10:49:43Z</time>
      </trkpt>
      <trkpt lat="44.78315" lon="1.65022">
        <ele>277.7</ele>
        <time>2023-04-15T10:49:51Z</time>
      </trkpt>
      <trkpt lat="44.78308" lon="1.65032">
        <ele>278.1</ele>
        <time>2023-04-15T10:49:59Z</time>
      </trkpt>
      <trkpt lat="44.78302" lon="1.65043">
        <ele>278.6</ele>
        <time>2023-04-15T10:50:14Z</time>
      </trkpt>
      <trkpt lat="44.78295" lon="1.65052">
        <ele>278.9</ele>
        <time>2023-04-15T10:50:21Z</time>
      </trkpt>
      <trkpt lat="44.78286" lon="1.65059">
        <ele>279.1</ele>
        <time>2023-04-15T10:50:29Z</time>
      </trkpt>
      <trkpt lat="44.78277" lon="1.65063">
        <ele>279.3</ele>
        <time>2023-04-15T10:50:36Z</time>
      </trkpt>
      <trkpt lat="44.78269" lon="1.65069">
        <ele>279.5</ele>
        <time>2023-04-15T10:50:45Z</time>
      </trkpt>
      <trkpt lat="44.7826" lon="1.65075">
        <ele>279.7</ele>
        <time>2023-04-15T10:50:54Z</time>
      </trkpt>
      <trkpt lat="44.78251" lon="1.6508">
        <ele>279.9</ele>
        <time>2023-04-15T10:51:01Z</time>
      </trkpt>
      <trkpt lat="44.78243" lon="1.65086">
        <ele>280.2</ele>
        <time>2023-04-15T10:51:09Z</time>
      </trkpt>
      <trkpt lat="44.78234" lon="1.65092">
        <ele>280.4</ele>
        <time>2023-04-15T10:51:17Z</time>
      </trkpt>
      <trkpt lat="44.78225" lon="1.65097">
        <ele>280.6</ele>
        <time>2023-04-15T10:51:25Z</time>
      </trkpt>
      <trkpt lat="44.78216" lon="1.65102">
        <ele>280.7</ele>
        <time>2023-04-15T10:51:34Z</time>
      </trkpt>
      <trkpt lat="44.78206" lon="1.65104">
        <ele>280.8</ele>
        <time>2023-04-15T10:51:42Z</time>
      </trkpt>
      <trkpt lat="44.78197" lon="1.65109">
        <ele>280.9</ele>
        <time>2023-04-15T10:51:51Z</time>
      </trkpt>
      <trkpt lat="44.78189" lon="1.65116">
        <ele>281.3</ele>
        <time>2023-04-15T10:52:00Z</time>
      </trkpt>
      <trkpt lat="44.78179" lon="1.6512">
        <ele>281.6</ele>
        <time>2023-04-15T10:52:09Z</time>
      </trkpt>
      <trkpt lat="44.7817" lon="1.65125">
        <ele>282</ele>
        <time>2023-04-15T10:52:18Z</time>
      </trkpt>
      <trkpt lat="44.78161" lon="1.65129">
        <ele>282.5</ele>
        <time>2023-04-15T10:52:26Z</time>
      </trkpt>
      <trkpt lat="44.78152" lon="1.65134">
        <ele>283.2</ele>
        <time>2023-04-15T10:52:35Z</time>
      </trkpt>
      <trkpt lat="44.78142" lon="1.65138">
        <ele>283.8</ele>
        <time>2023-04-15T10:52:44Z</time>
      </trkpt>
      <trkpt lat="44.78134" lon="1.65143">
        <ele>284.5</ele>
        <time>2023-04-15T10:52:52Z</time>
      </trkpt>
      <trkpt lat="44.78126" lon="1.6515">
        <ele>285.3</ele>
        <time>2023-04-15T10:53:01Z</time>
      </trkpt>
      <trkpt lat="44.78118" lon="1.65157">
        <ele>286</ele>
        <time>2023-04-15T10:53:09Z</time>
      </trkpt>
      <trkpt lat="44.7811" lon="1.65163">
        <ele>286.8</ele>
        <time>2023-04-15T10:53:17Z</time>
      </trkpt>
      <trkpt lat="44.78101" lon="1.65169">
        <ele>287.4</ele>
        <time>2023-04-15T10:53:26Z</time>
      </trkpt>
      <trkpt lat="44.78093" lon="1.65174">
        <ele>287.9</ele>
        <time>2023-04-15T10:53:35Z</time>
      </trkpt>
      <trkpt lat="44.78085" lon="1.6518">
        <ele>288.4</ele>
        <time>2023-04-15T10:53:44Z</time>
      </trkpt>
      <trkpt lat="44.78076" lon="1.65186">
        <ele>289.1</ele>
        <time>2023-04-15T10:53:53Z</time>
      </trkpt>
      <trkpt lat="44.78067" lon="1.65191">
        <ele>289.9</ele>
        <time>2023-04-15T10:54:02Z</time>
      </trkpt>
      <trkpt lat="44.78059" lon="1.65196">
        <ele>290.7</ele>
        <time>2023-04-15T10:54:11Z</time>
      </trkpt>
      <trkpt lat="44.7805" lon="1.65201">
        <ele>291.2</ele>
        <time>2023-04-15T10:54:21Z</time>
      </trkpt>
      <trkpt lat="44.78042" lon="1.65208">
        <ele>291.5</ele>
        <time>2023-04-15T10:54:31Z</time>
      </trkpt>
      <trkpt lat="44.78033" lon="1.65211">
        <ele>291.8</ele>
        <time>2023-04-15T10:54:41Z</time>
      </trkpt>
      <trkpt lat="44.78024" lon="1.65214">
        <ele>292.3</ele>
        <time>2023-04-15T10:54:50Z</time>
      </trkpt>
      <trkpt lat="44.78015" lon="1.65217">
        <ele>292.9</ele>
        <time>2023-04-15T10:54:58Z</time>
      </trkpt>
      <trkpt lat="44.78006" lon="1.65221">
        <ele>293.6</ele>
        <time>2023-04-15T10:55:07Z</time>
      </trkpt>
      <trkpt lat="44.77997" lon="1.65226">
        <ele>294</ele>
        <time>2023-04-15T10:55:16Z</time>
      </trkpt>
      <trkpt lat="44.77988" lon="1.65231">
        <ele>294</ele>
        <time>2023-04-15T10:55:28Z</time>
      </trkpt>
      <trkpt lat="44.77979" lon="1.65235">
        <ele>294</ele>
        <time>2023-04-15T10:55:38Z</time>
      </trkpt>
      <trkpt lat="44.77969" lon="1.65239">
        <ele>293.9</ele>
        <time>2023-04-15T10:55:49Z</time>
      </trkpt>
      <trkpt lat="44.7796" lon="1.65241">
        <ele>294</ele>
        <time>2023-04-15T10:56:11Z</time>
      </trkpt>
      <trkpt lat="44.7795" lon="1.65243">
        <ele>294.1</ele>
        <time>2023-04-15T10:56:19Z</time>
      </trkpt>
      <trkpt lat="44.7794" lon="1.65241">
        <ele>294.3</ele>
        <time>2023-04-15T10:56:27Z</time>
      </trkpt>
      <trkpt lat="44.77931" lon="1.65238">
        <ele>294.3</ele>
        <time>2023-04-15T10:56:36Z</time>
      </trkpt>
      <trkpt lat="44.77921" lon="1.65238">
        <ele>294.3</ele>
        <time>2023-04-15T10:57:16Z</time>
      </trkpt>
      <trkpt lat="44.77912" lon="1.65233">
        <ele>294.9</ele>
        <time>2023-04-15T10:57:25Z</time>
      </trkpt>
      <trkpt lat="44.77903" lon="1.65231">
        <ele>295.2</ele>
        <time>2023-04-15T10:57:33Z</time>
      </trkpt>
      <trkpt lat="44.77894" lon="1.65231">
        <ele>295.3</ele>
        <time>2023-04-15T10:57:41Z</time>
      </trkpt>
      <trkpt lat="44.77884" lon="1.6523">
        <ele>295.6</ele>
        <time>2023-04-15T10:57:49Z</time>
      </trkpt>
      <trkpt lat="44.77874" lon="1.6523">
        <ele>296</ele>
        <time>2023-04-15T10:57:58Z</time>
      </trkpt>
      <trkpt lat="44.77865" lon="1.65231">
        <ele>296.2</ele>
        <time>2023-04-15T10:58:06Z</time>
      </trkpt>
      <trkpt lat="44.77855" lon="1.65232">
        <ele>296.5</ele>
        <time>2023-04-15T10:58:14Z</time>
      </trkpt>
      <trkpt lat="44.77846" lon="1.6523">
        <ele>297</ele>
        <time>2023-04-15T10:58:22Z</time>
      </trkpt>
      <trkpt lat="44.77837" lon="1.65231">
        <ele>297.3</ele>
        <time>2023-04-15T10:58:30Z</time>
      </trkpt>
      <trkpt lat="44.77828" lon="1.65233">
        <ele>297.7</ele>
        <time>2023-04-15T10:58:38Z</time>
      </trkpt>
      <trkpt lat="44.77818" lon="1.65234">
        <ele>298.5</ele>
        <time>2023-04-15T10:58:47Z</time>
      </trkpt>
      <trkpt lat="44.77809" lon="1.65237">
        <ele>299.1</ele>
        <time>2023-04-15T10:58:55Z</time>
      </trkpt>
      <trkpt lat="44.778" lon="1.65243">
        <ele>299.8</ele>
        <time>2023-04-15T10:59:04Z</time>
      </trkpt>
      <trkpt lat="44.77793" lon="1.65253">
        <ele>300.4</ele>
        <time>2023-04-15T10:59:13Z</time>
      </trkpt>
      <trkpt lat="44.77787" lon="1.65262">
        <ele>301</ele>
        <time>2023-04-15T10:59:21Z</time>
      </trkpt>
      <trkpt lat="44.77782" lon="1.65273">
        <ele>301.6</ele>
        <time>2023-04-15T10:59:29Z</time>
      </trkpt>
      <trkpt lat="44.77776" lon="1.65284">
        <ele>302.2</ele>
        <time>2023-04-15T10:59:37Z</time>
      </trkpt>
      <trkpt lat="44.77771" lon="1.65294">
        <ele>302.9</ele>
        <time>2023-04-15T10:59:45Z</time>
      </trkpt>
      <trkpt lat="44.77765" lon="1.65304">
        <ele>303.8</ele>
        <time>2023-04-15T10:59:53Z</time>
      </trkpt>
      <trkpt lat="44.7776" lon="1.65316">
        <ele>304.6</ele>
        <time>2023-04-15T11:00:02Z</time>
      </trkpt>
      <trkpt lat="44.77754" lon="1.65326">
        <ele>305.4</ele>
        <time>2023-04-15T11:00:11Z</time>
      </trkpt>
      <trkpt lat="44.77748" lon="1.65335">
        <ele>306.2</ele>
        <time>2023-04-15T11:00:20Z</time>
      </trkpt>
      <trkpt lat="44.77742" lon="1.65346">
        <ele>306.9</ele>
        <time>2023-04-15T11:00:29Z</time>
      </trkpt>
      <trkpt lat="44.77737" lon="1.65357">
        <ele>307.4</ele>
        <time>2023-04-15T11:00:41Z</time>
      </trkpt>
      <trkpt lat="44.7774" lon="1.6537">
        <ele>307.5</ele>
        <time>2023-04-15T11:00:52Z</time>
      </trkpt>
      <trkpt lat="44.77743" lon="1.65382">
        <ele>307.4</ele>
        <time>2023-04-15T11:01:02Z</time>
      </trkpt>
      <trkpt lat="44.77745" lon="1.65396">
        <ele>307.4</ele>
        <time>2023-04-15T11:01:12Z</time>
      </trkpt>
      <trkpt lat="44.77747" lon="1.65409">
        <ele>307.2</ele>
        <time>2023-04-15T11:01:33Z</time>
      </trkpt>
      <trkpt lat="44.77748" lon="1.65421">
        <ele>307.1</ele>
        <time>2023-04-15T11:01:44Z</time>
      </trkpt>
      <trkpt lat="44.77749" lon="1.65434">
        <ele>307.1</ele>
        <time>2023-04-15T11:01:58Z</time>
      </trkpt>
      <trkpt lat="44.77753" lon="1.65446">
        <ele>306.7</ele>
        <time>2023-04-15T11:02:13Z</time>
      </trkpt>
      <trkpt lat="44.77746" lon="1.65438">
        <ele>307.3</ele>
        <time>2023-04-15T11:03:37Z</time>
      </trkpt>
      <trkpt lat="44.77748" lon="1.65425">
        <ele>307.1</ele>
        <time>2023-04-15T11:03:51Z</time>
      </trkpt>
      <trkpt lat="44.77752" lon="1.65413">
        <ele>306.8</ele>
        <time>2023-04-15T11:04:25Z</time>
      </trkpt>
      <trkpt lat="44.77743" lon="1.65413">
        <ele>307.5</ele>
        <time>2023-04-15T11:07:45Z</time>
      </trkpt>
      <trkpt lat="44.77751" lon="1.65407">
        <ele>306.9</ele>
        <time>2023-04-15T11:34:58Z</time>
      </trkpt>
      <trkpt lat="44.77749" lon="1.6542">
        <ele>307.1</ele>
        <time>2023-04-15T12:12:11Z</time>
      </trkpt>
      <trkpt lat="44.77752" lon="1.65432">
        <ele>306.8</ele>
        <time>2023-04-15T12:12:26Z</time>
      </trkpt>
      <trkpt lat="44.77758" lon="1.65443">
        <ele>306.2</ele>
        <time>2023-04-15T12:12:37Z</time>
      </trkpt>
      <trkpt lat="44.77767" lon="1.65441">
        <ele>305.2</ele>
        <time>2023-04-15T12:13:33Z</time>
      </trkpt>
      <trkpt lat="44.77766" lon="1.65428">
        <ele>305.6</ele>
        <time>2023-04-15T12:13:46Z</time>
      </trkpt>
      <trkpt lat="44.77757" lon="1.6543">
        <ele>306.3</ele>
        <time>2023-04-15T12:15:32Z</time>
      </trkpt>
      <trkpt lat="44.77754" lon="1.65417">
        <ele>306.7</ele>
        <time>2023-04-15T12:16:05Z</time>
      </trkpt>
      <trkpt lat="44.77751" lon="1.65405">
        <ele>306.9</ele>
        <time>2023-04-15T12:16:21Z</time>
      </trkpt>
      <trkpt lat="44.77744" lon="1.65411">
        <ele>307.4</ele>
        <time>2023-04-15T12:31:16Z</time>
      </trkpt>
      <trkpt lat="44.77745" lon="1.65399">
        <ele>307.3</ele>
        <time>2023-04-15T12:34:07Z</time>
      </trkpt>
      <trkpt lat="44.77744" lon="1.65385">
        <ele>307.4</ele>
        <time>2023-04-15T12:34:19Z</time>
      </trkpt>
      <trkpt lat="44.77741" lon="1.65372">
        <ele>307.4</ele>
        <time>2023-04-15T12:34:31Z</time>
      </trkpt>
      <trkpt lat="44.77735" lon="1.65361">
        <ele>307.5</ele>
        <time>2023-04-15T12:34:43Z</time>
      </trkpt>
      <trkpt lat="44.77726" lon="1.65358">
        <ele>307.8</ele>
        <time>2023-04-15T12:34:54Z</time>
      </trkpt>
      <trkpt lat="44.77725" lon="1.65345">
        <ele>307.9</ele>
        <time>2023-04-15T12:35:05Z</time>
      </trkpt>
      <trkpt lat="44.77728" lon="1.65333">
        <ele>307.6</ele>
        <time>2023-04-15T12:35:14Z</time>
      </trkpt>
      <trkpt lat="44.7773" lon="1.6532">
        <ele>307.1</ele>
        <time>2023-04-15T12:35:25Z</time>
      </trkpt>
      <trkpt lat="44.77732" lon="1.65306">
        <ele>306.7</ele>
        <time>2023-04-15T12:35:35Z</time>
      </trkpt>
      <trkpt lat="44.77732" lon="1.65292">
        <ele>306.2</ele>
        <time>2023-04-15T12:35:45Z</time>
      </trkpt>
      <trkpt lat="44.77732" lon="1.65279">
        <ele>305.7</ele>
        <time>2023-04-15T12:35:55Z</time>
      </trkpt>
      <trkpt lat="44.77733" lon="1.65265">
        <ele>305.1</ele>
        <time>2023-04-15T12:36:05Z</time>
      </trkpt>
      <trkpt lat="44.77733" lon="1.65251">
        <ele>304.6</ele>
        <time>2023-04-15T12:36:15Z</time>
      </trkpt>
      <trkpt lat="44.77736" lon="1.65238">
        <ele>304.1</ele>
        <time>2023-04-15T12:36:24Z</time>
      </trkpt>
      <trkpt lat="44.77733" lon="1.65225">
        <ele>303.7</ele>
        <time>2023-04-15T12:36:33Z</time>
      </trkpt>
      <trkpt lat="44.77734" lon="1.65212">
        <ele>303</ele>
        <time>2023-04-15T12:36:43Z</time>
      </trkpt>
      <trkpt lat="44.77735" lon="1.65198">
        <ele>302.2</ele>
        <time>2023-04-15T12:36:52Z</time>
      </trkpt>
      <trkpt lat="44.77737" lon="1.65184">
        <ele>301.6</ele>
        <time>2023-04-15T12:37:00Z</time>
      </trkpt>
      <trkpt lat="44.77737" lon="1.65171">
        <ele>301.2</ele>
        <time>2023-04-15T12:37:08Z</time>
      </trkpt>
      <trkpt lat="44.77738" lon="1.65158">
        <ele>300.7</ele>
        <time>2023-04-15T12:37:16Z</time>
      </trkpt>
      <trkpt lat="44.77738" lon="1.65145">
        <ele>300.2</ele>
        <time>2023-04-15T12:37:24Z</time>
      </trkpt>
      <trkpt lat="44.7774" lon="1.65132">
        <ele>299.6</ele>
        <time>2023-04-15T12:37:32Z</time>
      </trkpt>
      <trkpt lat="44.7774" lon="1.65117">
        <ele>299</ele>
        <time>2023-04-15T12:37:40Z</time>
      </trkpt>
      <trkpt lat="44.77741" lon="1.65104">
        <ele>298.3</ele>
        <time>2023-04-15T12:37:48Z</time>
      </trkpt>
      <trkpt lat="44.77739" lon="1.65091">
        <ele>297.4</ele>
        <time>2023-04-15T12:37:56Z</time>
      </trkpt>
      <trkpt lat="44.77735" lon="1.65077">
        <ele>296.6</ele>
        <time>2023-04-15T12:38:05Z</time>
      </trkpt>
      <trkpt lat="44.77729" lon="1.65068">
        <ele>295.6</ele>
        <time>2023-04-15T12:38:12Z</time>
      </trkpt>
      <trkpt lat="44.7772" lon="1.65063">
        <ele>294.9</ele>
        <time>2023-04-15T12:38:21Z</time>
      </trkpt>
      <trkpt lat="44.77712" lon="1.65058">
        <ele>294.5</ele>
        <time>2023-04-15T12:38:37Z</time>
      </trkpt>
      <trkpt lat="44.77707" lon="1.65048">
        <ele>294.8</ele>
        <time>2023-04-15T12:38:46Z</time>
      </trkpt>
      <trkpt lat="44.77704" lon="1.65035">
        <ele>295.4</ele>
        <time>2023-04-15T12:38:55Z</time>
      </trkpt>
      <trkpt lat="44.77706" lon="1.65022">
        <ele>295.8</ele>
        <time>2023-04-15T12:39:04Z</time>
      </trkpt>
      <trkpt lat="44.7771" lon="1.6501">
        <ele>296.1</ele>
        <time>2023-04-15T12:39:12Z</time>
      </trkpt>
      <trkpt lat="44.77712" lon="1.64997">
        <ele>296.5</ele>
        <time>2023-04-15T12:39:21Z</time>
      </trkpt>
      <trkpt lat="44.77715" lon="1.64985">
        <ele>296.8</ele>
        <time>2023-04-15T12:39:30Z</time>
      </trkpt>
      <trkpt lat="44.77718" lon="1.64971">
        <ele>297.2</ele>
        <time>2023-04-15T12:39:38Z</time>
      </trkpt>
      <trkpt lat="44.77722" lon="1.64959">
        <ele>297.5</ele>
        <time>2023-04-15T12:39:46Z</time>
      </trkpt>
      <trkpt lat="44.77726" lon="1.64947">
        <ele>297.9</ele>
        <time>2023-04-15T12:39:55Z</time>
      </trkpt>
      <trkpt lat="44.77729" lon="1.64934">
        <ele>298.6</ele>
        <time>2023-04-15T12:40:03Z</time>
      </trkpt>
      <trkpt lat="44.77731" lon="1.64922">
        <ele>299.4</ele>
        <time>2023-04-15T12:40:12Z</time>
      </trkpt>
      <trkpt lat="44.77734" lon="1.64908">
        <ele>299.7</ele>
        <time>2023-04-15T12:40:21Z</time>
      </trkpt>
      <trkpt lat="44.77736" lon="1.64895">
        <ele>299.9</ele>
        <time>2023-04-15T12:40:30Z</time>
      </trkpt>
      <trkpt lat="44.77739" lon="1.64882">
        <ele>300.1</ele>
        <time>2023-04-15T12:40:39Z</time>
      </trkpt>
      <trkpt lat="44.77742" lon="1.64869">
        <ele>300.3</ele>
        <time>2023-04-15T12:40:48Z</time>
      </trkpt>
      <trkpt lat="44.77745" lon="1.64855">
        <ele>300.6</ele>
        <time>2023-04-15T12:40:56Z</time>
      </trkpt>
      <trkpt lat="44.77748" lon="1.64843">
        <ele>300.8</ele>
        <time>2023-04-15T12:41:04Z</time>
      </trkpt>
      <trkpt lat="44.77753" lon="1.64831">
        <ele>300.8</ele>
        <time>2023-04-15T12:41:12Z</time>
      </trkpt>
      <trkpt lat="44.77756" lon="1.64819">
        <ele>300.8</ele>
        <time>2023-04-15T12:41:19Z</time>
      </trkpt>
      <trkpt lat="44.77761" lon="1.64807">
        <ele>300.8</ele>
        <time>2023-04-15T12:41:27Z</time>
      </trkpt>
      <trkpt lat="44.77763" lon="1.64794">
        <ele>301</ele>
        <time>2023-04-15T12:41:36Z</time>
      </trkpt>
      <trkpt lat="44.77762" lon="1.6478">
        <ele>301.6</ele>
        <time>2023-04-15T12:41:45Z</time>
      </trkpt>
      <trkpt lat="44.77761" lon="1.64766">
        <ele>302</ele>
        <time>2023-04-15T12:41:54Z</time>
      </trkpt>
      <trkpt lat="44.77761" lon="1.64753">
        <ele>302.1</ele>
        <time>2023-04-15T12:42:02Z</time>
      </trkpt>
      <trkpt lat="44.77763" lon="1.6474">
        <ele>302.6</ele>
        <time>2023-04-15T12:42:10Z</time>
      </trkpt>
      <trkpt lat="44.77766" lon="1.64726">
        <ele>303.2</ele>
        <time>2023-04-15T12:42:18Z</time>
      </trkpt>
      <trkpt lat="44.77772" lon="1.64715">
        <ele>303.5</ele>
        <time>2023-04-15T12:42:30Z</time>
      </trkpt>
      <trkpt lat="44.77776" lon="1.64703">
        <ele>303.7</ele>
        <time>2023-04-15T12:43:02Z</time>
      </trkpt>
      <trkpt lat="44.77783" lon="1.64694">
        <ele>303.8</ele>
        <time>2023-04-15T12:43:12Z</time>
      </trkpt>
      <trkpt lat="44.77791" lon="1.64685">
        <ele>303.9</ele>
        <time>2023-04-15T12:43:25Z</time>
      </trkpt>
      <trkpt lat="44.77796" lon="1.64674">
        <ele>304.1</ele>
        <time>2023-04-15T12:43:37Z</time>
      </trkpt>
      <trkpt lat="44.77802" lon="1.64664">
        <ele>304.2</ele>
        <time>2023-04-15T12:43:47Z</time>
      </trkpt>
      <trkpt lat="44.77809" lon="1.64654">
        <ele>304.3</ele>
        <time>2023-04-15T12:43:55Z</time>
      </trkpt>
      <trkpt lat="44.77816" lon="1.64646">
        <ele>304.4</ele>
        <time>2023-04-15T12:44:03Z</time>
      </trkpt>
      <trkpt lat="44.77823" lon="1.64638">
        <ele>304.4</ele>
        <time>2023-04-15T12:44:11Z</time>
      </trkpt>
      <trkpt lat="44.77831" lon="1.64628">
        <ele>304.1</ele>
        <time>2023-04-15T12:44:20Z</time>
      </trkpt>
      <trkpt lat="44.77837" lon="1.64618">
        <ele>303.9</ele>
        <time>2023-04-15T12:44:28Z</time>
      </trkpt>
      <trkpt lat="44.77844" lon="1.64609">
        <ele>303.6</ele>
        <time>2023-04-15T12:44:35Z</time>
      </trkpt>
      <trkpt lat="44.77851" lon="1.646">
        <ele>303.6</ele>
        <time>2023-04-15T12:44:43Z</time>
      </trkpt>
      <trkpt lat="44.77859" lon="1.6459">
        <ele>303.8</ele>
        <time>2023-04-15T12:44:51Z</time>
      </trkpt>
      <trkpt lat="44.77866" lon="1.64582">
        <ele>303.9</ele>
        <time>2023-04-15T12:44:59Z</time>
      </trkpt>
      <trkpt lat="44.77873" lon="1.64573">
        <ele>303.6</ele>
        <time>2023-04-15T12:45:07Z</time>
      </trkpt>
      <trkpt lat="44.77879" lon="1.64563">
        <ele>303.3</ele>
        <time>2023-04-15T12:45:16Z</time>
      </trkpt>
      <trkpt lat="44.77887" lon="1.64553">
        <ele>302.9</ele>
        <time>2023-04-15T12:45:24Z</time>
      </trkpt>
      <trkpt lat="44.77893" lon="1.64544">
        <ele>302.6</ele>
        <time>2023-04-15T12:45:31Z</time>
      </trkpt>
      <trkpt lat="44.77899" lon="1.64534">
        <ele>302.5</ele>
        <time>2023-04-15T12:45:38Z</time>
      </trkpt>
      <trkpt lat="44.77906" lon="1.64523">
        <ele>302.6</ele>
        <time>2023-04-15T12:45:46Z</time>
      </trkpt>
      <trkpt lat="44.77913" lon="1.64515">
        <ele>302.9</ele>
        <time>2023-04-15T12:45:54Z</time>
      </trkpt>
      <trkpt lat="44.7792" lon="1.64505">
        <ele>303.1</ele>
        <time>2023-04-15T12:46:02Z</time>
      </trkpt>
      <trkpt lat="44.77926" lon="1.64496">
        <ele>303.2</ele>
        <time>2023-04-15T12:46:09Z</time>
      </trkpt>
      <trkpt lat="44.77932" lon="1.64486">
        <ele>303.1</ele>
        <time>2023-04-15T12:46:17Z</time>
      </trkpt>
      <trkpt lat="44.77939" lon="1.64476">
        <ele>302.9</ele>
        <time>2023-04-15T12:46:26Z</time>
      </trkpt>
      <trkpt lat="44.77945" lon="1.64466">
        <ele>303</ele>
        <time>2023-04-15T12:46:34Z</time>
      </trkpt>
      <trkpt lat="44.77952" lon="1.64456">
        <ele>303.3</ele>
        <time>2023-04-15T12:46:42Z</time>
      </trkpt>
      <trkpt lat="44.77958" lon="1.64445">
        <ele>303.5</ele>
        <time>2023-04-15T12:46:50Z</time>
      </trkpt>
      <trkpt lat="44.77963" lon="1.64434">
        <ele>303.6</ele>
        <time>2023-04-15T12:46:58Z</time>
      </trkpt>
      <trkpt lat="44.77966" lon="1.64422">
        <ele>303.6</ele>
        <time>2023-04-15T12:47:05Z</time>
      </trkpt>
      <trkpt lat="44.77971" lon="1.64409">
        <ele>303.6</ele>
        <time>2023-04-15T12:47:14Z</time>
      </trkpt>
      <trkpt lat="44.77975" lon="1.64397">
        <ele>303.4</ele>
        <time>2023-04-15T12:47:21Z</time>
      </trkpt>
      <trkpt lat="44.7798" lon="1.64385">
        <ele>303.1</ele>
        <time>2023-04-15T12:47:29Z</time>
      </trkpt>
      <trkpt lat="44.77985" lon="1.64373">
        <ele>302.9</ele>
        <time>2023-04-15T12:47:37Z</time>
      </trkpt>
      <trkpt lat="44.7799" lon="1.6436">
        <ele>302.6</ele>
        <time>2023-04-15T12:47:46Z</time>
      </trkpt>
      <trkpt lat="44.77994" lon="1.64348">
        <ele>302.3</ele>
        <time>2023-04-15T12:47:54Z</time>
      </trkpt>
      <trkpt lat="44.77997" lon="1.64335">
        <ele>302</ele>
        <time>2023-04-15T12:48:02Z</time>
      </trkpt>
      <trkpt lat="44.78001" lon="1.64322">
        <ele>301.6</ele>
        <time>2023-04-15T12:48:10Z</time>
      </trkpt>
      <trkpt lat="44.78007" lon="1.64311">
        <ele>301.7</ele>
        <time>2023-04-15T12:48:18Z</time>
      </trkpt>
      <trkpt lat="44.78011" lon="1.64298">
        <ele>301.5</ele>
        <time>2023-04-15T12:48:26Z</time>
      </trkpt>
      <trkpt lat="44.78014" lon="1.64286">
        <ele>301.3</ele>
        <time>2023-04-15T12:48:33Z</time>
      </trkpt>
      <trkpt lat="44.78019" lon="1.64275">
        <ele>301.1</ele>
        <time>2023-04-15T12:48:40Z</time>
      </trkpt>
      <trkpt lat="44.78024" lon="1.64263">
        <ele>300.7</ele>
        <time>2023-04-15T12:48:48Z</time>
      </trkpt>
      <trkpt lat="44.78028" lon="1.64251">
        <ele>300.1</ele>
        <time>2023-04-15T12:48:54Z</time>
      </trkpt>
      <trkpt lat="44.78033" lon="1.6424">
        <ele>299.9</ele>
        <time>2023-04-15T12:49:01Z</time>
      </trkpt>
      <trkpt lat="44.78036" lon="1.64228">
        <ele>299.6</ele>
        <time>2023-04-15T12:49:09Z</time>
      </trkpt>
      <trkpt lat="44.78041" lon="1.64217">
        <ele>299.2</ele>
        <time>2023-04-15T12:49:16Z</time>
      </trkpt>
      <trkpt lat="44.78047" lon="1.64205">
        <ele>298.9</ele>
        <time>2023-04-15T12:49:23Z</time>
      </trkpt>
      <trkpt lat="44.78054" lon="1.64196">
        <ele>298.9</ele>
        <time>2023-04-15T12:49:30Z</time>
      </trkpt>
      <trkpt lat="44.78059" lon="1.64184">
        <ele>298.5</ele>
        <time>2023-04-15T12:49:37Z</time>
      </trkpt>
      <trkpt lat="44.78065" lon="1.64172">
        <ele>298</ele>
        <time>2023-04-15T12:49:45Z</time>
      </trkpt>
      <trkpt lat="44.7807" lon="1.6416">
        <ele>297.6</ele>
        <time>2023-04-15T12:49:53Z</time>
      </trkpt>
      <trkpt lat="44.78074" lon="1.64149">
        <ele>297.3</ele>
        <time>2023-04-15T12:50:00Z</time>
      </trkpt>
      <trkpt lat="44.7808" lon="1.64137">
        <ele>296.8</ele>
        <time>2023-04-15T12:50:08Z</time>
      </trkpt>
      <trkpt lat="44.78086" lon="1.64127">
        <ele>296.8</ele>
        <time>2023-04-15T12:50:16Z</time>
      </trkpt>
      <trkpt lat="44.78092" lon="1.64117">
        <ele>296.9</ele>
        <time>2023-04-15T12:50:23Z</time>
      </trkpt>
      <trkpt lat="44.78099" lon="1.64107">
        <ele>296.8</ele>
        <time>2023-04-15T12:50:31Z</time>
      </trkpt>
      <trkpt lat="44.78106" lon="1.64098">
        <ele>296.7</ele>
        <time>2023-04-15T12:50:38Z</time>
      </trkpt>
      <trkpt lat="44.78112" lon="1.64087">
        <ele>296.3</ele>
        <time>2023-04-15T12:50:46Z</time>
      </trkpt>
      <trkpt lat="44.78119" lon="1.64077">
        <ele>296.3</ele>
        <time>2023-04-15T12:50:54Z</time>
      </trkpt>
      <trkpt lat="44.78126" lon="1.64068">
        <ele>296.3</ele>
        <time>2023-04-15T12:51:02Z</time>
      </trkpt>
      <trkpt lat="44.78134" lon="1.64059">
        <ele>296</ele>
        <time>2023-04-15T12:51:10Z</time>
      </trkpt>
      <trkpt lat="44.78141" lon="1.64049">
        <ele>295.8</ele>
        <time>2023-04-15T12:51:17Z</time>
      </trkpt>
      <trkpt lat="44.78148" lon="1.64041">
        <ele>295.6</ele>
        <time>2023-04-15T12:51:26Z</time>
      </trkpt>
      <trkpt lat="44.78155" lon="1.64031">
        <ele>295.2</ele>
        <time>2023-04-15T12:51:34Z</time>
      </trkpt>
      <trkpt lat="44.78164" lon="1.64026">
        <ele>294.9</ele>
        <time>2023-04-15T12:51:41Z</time>
      </trkpt>
      <trkpt lat="44.78172" lon="1.64019">
        <ele>294.9</ele>
        <time>2023-04-15T12:51:48Z</time>
      </trkpt>
      <trkpt lat="44.7818" lon="1.64012">
        <ele>294.9</ele>
        <time>2023-04-15T12:51:56Z</time>
      </trkpt>
      <trkpt lat="44.78189" lon="1.64005">
        <ele>295</ele>
        <time>2023-04-15T12:52:04Z</time>
      </trkpt>
      <trkpt lat="44.78198" lon="1.63999">
        <ele>294.9</ele>
        <time>2023-04-15T12:52:13Z</time>
      </trkpt>
      <trkpt lat="44.78208" lon="1.63993">
        <ele>294.6</ele>
        <time>2023-04-15T12:52:21Z</time>
      </trkpt>
      <trkpt lat="44.78216" lon="1.63988">
        <ele>294.5</ele>
        <time>2023-04-15T12:52:28Z</time>
      </trkpt>
      <trkpt lat="44.78225" lon="1.63984">
        <ele>294.5</ele>
        <time>2023-04-15T12:52:36Z</time>
      </trkpt>
      <trkpt lat="44.78234" lon="1.63979">
        <ele>294.6</ele>
        <time>2023-04-15T12:52:43Z</time>
      </trkpt>
      <trkpt lat="44.78243" lon="1.63974">
        <ele>294.8</ele>
        <time>2023-04-15T12:52:51Z</time>
      </trkpt>
      <trkpt lat="44.78252" lon="1.63968">
        <ele>294.9</ele>
        <time>2023-04-15T12:53:00Z</time>
      </trkpt>
      <trkpt lat="44.78261" lon="1.63962">
        <ele>295</ele>
        <time>2023-04-15T12:53:07Z</time>
      </trkpt>
      <trkpt lat="44.7827" lon="1.63956">
        <ele>295.1</ele>
        <time>2023-04-15T12:53:14Z</time>
      </trkpt>
      <trkpt lat="44.78278" lon="1.63949">
        <ele>295.2</ele>
        <time>2023-04-15T12:53:22Z</time>
      </trkpt>
      <trkpt lat="44.78286" lon="1.6394">
        <ele>295.2</ele>
        <time>2023-04-15T12:53:31Z</time>
      </trkpt>
      <trkpt lat="44.78293" lon="1.63932">
        <ele>295.4</ele>
        <time>2023-04-15T12:53:38Z</time>
      </trkpt>
      <trkpt lat="44.78301" lon="1.63926">
        <ele>295.7</ele>
        <time>2023-04-15T12:53:47Z</time>
      </trkpt>
      <trkpt lat="44.78308" lon="1.63917">
        <ele>296</ele>
        <time>2023-04-15T12:53:56Z</time>
      </trkpt>
      <trkpt lat="44.78316" lon="1.63911">
        <ele>296</ele>
        <time>2023-04-15T12:54:03Z</time>
      </trkpt>
      <trkpt lat="44.78325" lon="1.63904">
        <ele>296</ele>
        <time>2023-04-15T12:54:11Z</time>
      </trkpt>
      <trkpt lat="44.78333" lon="1.63896">
        <ele>296</ele>
        <time>2023-04-15T12:54:18Z</time>
      </trkpt>
      <trkpt lat="44.78341" lon="1.63888">
        <ele>296</ele>
        <time>2023-04-15T12:54:25Z</time>
      </trkpt>
      <trkpt lat="44.78348" lon="1.6388">
        <ele>295.8</ele>
        <time>2023-04-15T12:54:32Z</time>
      </trkpt>
      <trkpt lat="44.78356" lon="1.63872">
        <ele>295.5</ele>
        <time>2023-04-15T12:54:39Z</time>
      </trkpt>
      <trkpt lat="44.78364" lon="1.63863">
        <ele>295.1</ele>
        <time>2023-04-15T12:54:46Z</time>
      </trkpt>
      <trkpt lat="44.78372" lon="1.63856">
        <ele>294.9</ele>
        <time>2023-04-15T12:54:53Z</time>
      </trkpt>
      <trkpt lat="44.78381" lon="1.63852">
        <ele>294.8</ele>
        <time>2023-04-15T12:55:01Z</time>
      </trkpt>
      <trkpt lat="44.7839" lon="1.63844">
        <ele>294.4</ele>
        <time>2023-04-15T12:55:09Z</time>
      </trkpt>
      <trkpt lat="44.78398" lon="1.63836">
        <ele>294.4</ele>
        <time>2023-04-15T12:55:17Z</time>
      </trkpt>
      <trkpt lat="44.78406" lon="1.63831">
        <ele>294.6</ele>
        <time>2023-04-15T12:55:25Z</time>
      </trkpt>
      <trkpt lat="44.78415" lon="1.63826">
        <ele>294.7</ele>
        <time>2023-04-15T12:55:33Z</time>
      </trkpt>
      <trkpt lat="44.78424" lon="1.63819">
        <ele>294.5</ele>
        <time>2023-04-15T12:55:41Z</time>
      </trkpt>
      <trkpt lat="44.78432" lon="1.63811">
        <ele>294.2</ele>
        <time>2023-04-15T12:55:48Z</time>
      </trkpt>
      <trkpt lat="44.78439" lon="1.63803">
        <ele>293.9</ele>
        <time>2023-04-15T12:55:56Z</time>
      </trkpt>
      <trkpt lat="44.78447" lon="1.63795">
        <ele>293.7</ele>
        <time>2023-04-15T12:56:03Z</time>
      </trkpt>
      <trkpt lat="44.78454" lon="1.63786">
        <ele>293.9</ele>
        <time>2023-04-15T12:56:11Z</time>
      </trkpt>
      <trkpt lat="44.7846" lon="1.63777">
        <ele>294.1</ele>
        <time>2023-04-15T12:56:18Z</time>
      </trkpt>
      <trkpt lat="44.78466" lon="1.63766">
        <ele>294.5</ele>
        <time>2023-04-15T12:56:25Z</time>
      </trkpt>
      <trkpt lat="44.7847" lon="1.63755">
        <ele>294.9</ele>
        <time>2023-04-15T12:56:32Z</time>
      </trkpt>
      <trkpt lat="44.78476" lon="1.63743">
        <ele>295.1</ele>
        <time>2023-04-15T12:56:40Z</time>
      </trkpt>
      <trkpt lat="44.78483" lon="1.63733">
        <ele>295.2</ele>
        <time>2023-04-15T12:56:49Z</time>
      </trkpt>
      <trkpt lat="44.78489" lon="1.63722">
        <ele>295.2</ele>
        <time>2023-04-15T12:56:56Z</time>
      </trkpt>
      <trkpt lat="44.78496" lon="1.63711">
        <ele>295.3</ele>
        <time>2023-04-15T12:57:03Z</time>
      </trkpt>
      <trkpt lat="44.78501" lon="1.63699">
        <ele>295.2</ele>
        <time>2023-04-15T12:57:11Z</time>
      </trkpt>
      <trkpt lat="44.78507" lon="1.6369">
        <ele>295.4</ele>
        <time>2023-04-15T12:57:19Z</time>
      </trkpt>
      <trkpt lat="44.78512" lon="1.63678">
        <ele>295.6</ele>
        <time>2023-04-15T12:57:28Z</time>
      </trkpt>
      <trkpt lat="44.78518" lon="1.63667">
        <ele>295.6</ele>
        <time>2023-04-15T12:57:35Z</time>
      </trkpt>
      <trkpt lat="44.78524" lon="1.63657">
        <ele>295.8</ele>
        <time>2023-04-15T12:57:42Z</time>
      </trkpt>
      <trkpt lat="44.78529" lon="1.63645">
        <ele>296</ele>
        <time>2023-04-15T12:57:50Z</time>
      </trkpt>
      <trkpt lat="44.78534" lon="1.63634">
        <ele>296</ele>
        <time>2023-04-15T12:57:57Z</time>
      </trkpt>
      <trkpt lat="44.78539" lon="1.63622">
        <ele>295.8</ele>
        <time>2023-04-15T12:58:04Z</time>
      </trkpt>
      <trkpt lat="44.78544" lon="1.6361">
        <ele>295.6</ele>
        <time>2023-04-15T12:58:12Z</time>
      </trkpt>
      <trkpt lat="44.7855" lon="1.63599">
        <ele>295.7</ele>
        <time>2023-04-15T12:58:20Z</time>
      </trkpt>
      <trkpt lat="44.78556" lon="1.63589">
        <ele>296</ele>
        <time>2023-04-15T12:58:28Z</time>
      </trkpt>
      <trkpt lat="44.78563" lon="1.63579">
        <ele>296.1</ele>
        <time>2023-04-15T12:58:36Z</time>
      </trkpt>
      <trkpt lat="44.7857" lon="1.63569">
        <ele>296</ele>
        <time>2023-04-15T12:58:44Z</time>
      </trkpt>
      <trkpt lat="44.78577" lon="1.63559">
        <ele>295.9</ele>
        <time>2023-04-15T12:58:52Z</time>
      </trkpt>
      <trkpt lat="44.78583" lon="1.63549">
        <ele>296</ele>
        <time>2023-04-15T12:59:01Z</time>
      </trkpt>
      <trkpt lat="44.7859" lon="1.63539">
        <ele>296.2</ele>
        <time>2023-04-15T12:59:09Z</time>
      </trkpt>
      <trkpt lat="44.78596" lon="1.63529">
        <ele>296.4</ele>
        <time>2023-04-15T12:59:17Z</time>
      </trkpt>
      <trkpt lat="44.78602" lon="1.63519">
        <ele>296.7</ele>
        <time>2023-04-15T12:59:25Z</time>
      </trkpt>
      <trkpt lat="44.78608" lon="1.63508">
        <ele>296.9</ele>
        <time>2023-04-15T12:59:33Z</time>
      </trkpt>
      <trkpt lat="44.78614" lon="1.63498">
        <ele>297</ele>
        <time>2023-04-15T12:59:41Z</time>
      </trkpt>
      <trkpt lat="44.7862" lon="1.63488">
        <ele>296.7</ele>
        <time>2023-04-15T12:59:49Z</time>
      </trkpt>
      <trkpt lat="44.78626" lon="1.63478">
        <ele>296.6</ele>
        <time>2023-04-15T12:59:57Z</time>
      </trkpt>
      <trkpt lat="44.78632" lon="1.63468">
        <ele>296.6</ele>
        <time>2023-04-15T13:00:05Z</time>
      </trkpt>
      <trkpt lat="44.78638" lon="1.63456">
        <ele>296.4</ele>
        <time>2023-04-15T13:00:13Z</time>
      </trkpt>
      <trkpt lat="44.78644" lon="1.63446">
        <ele>296</ele>
        <time>2023-04-15T13:00:21Z</time>
      </trkpt>
      <trkpt lat="44.78649" lon="1.63435">
        <ele>296</ele>
        <time>2023-04-15T13:00:28Z</time>
      </trkpt>
      <trkpt lat="44.78655" lon="1.63423">
        <ele>296</ele>
        <time>2023-04-15T13:00:35Z</time>
      </trkpt>
      <trkpt lat="44.78661" lon="1.63413">
        <ele>296</ele>
        <time>2023-04-15T13:00:43Z</time>
      </trkpt>
      <trkpt lat="44.78666" lon="1.63402">
        <ele>296</ele>
        <time>2023-04-15T13:00:50Z</time>
      </trkpt>
      <trkpt lat="44.7867" lon="1.6339">
        <ele>295.9</ele>
        <time>2023-04-15T13:00:58Z</time>
      </trkpt>
      <trkpt lat="44.78675" lon="1.63377">
        <ele>295.7</ele>
        <time>2023-04-15T13:01:06Z</time>
      </trkpt>
      <trkpt lat="44.7868" lon="1.63366">
        <ele>295.5</ele>
        <time>2023-04-15T13:01:14Z</time>
      </trkpt>
      <trkpt lat="44.78684" lon="1.63353">
        <ele>295.3</ele>
        <time>2023-04-15T13:01:22Z</time>
      </trkpt>
      <trkpt lat="44.7869" lon="1.63341">
        <ele>295</ele>
        <time>2023-04-15T13:01:30Z</time>
      </trkpt>
      <trkpt lat="44.78695" lon="1.6333">
        <ele>295</ele>
        <time>2023-04-15T13:01:37Z</time>
      </trkpt>
      <trkpt lat="44.787" lon="1.63318">
        <ele>294.6</ele>
        <time>2023-04-15T13:01:45Z</time>
      </trkpt>
      <trkpt lat="44.78704" lon="1.63306">
        <ele>294.3</ele>
        <time>2023-04-15T13:01:52Z</time>
      </trkpt>
      <trkpt lat="44.78707" lon="1.63294">
        <ele>294</ele>
        <time>2023-04-15T13:02:00Z</time>
      </trkpt>
      <trkpt lat="44.78712" lon="1.63282">
        <ele>294</ele>
        <time>2023-04-15T13:02:07Z</time>
      </trkpt>
      <trkpt lat="44.78718" lon="1.63271">
        <ele>294</ele>
        <time>2023-04-15T13:02:15Z</time>
      </trkpt>
      <trkpt lat="44.78723" lon="1.63259">
        <ele>293.9</ele>
        <time>2023-04-15T13:02:24Z</time>
      </trkpt>
      <trkpt lat="44.78727" lon="1.63246">
        <ele>293.7</ele>
        <time>2023-04-15T13:02:31Z</time>
      </trkpt>
      <trkpt lat="44.78732" lon="1.63234">
        <ele>293.5</ele>
        <time>2023-04-15T13:02:39Z</time>
      </trkpt>
      <trkpt lat="44.78736" lon="1.63221">
        <ele>293.5</ele>
        <time>2023-04-15T13:02:47Z</time>
      </trkpt>
      <trkpt lat="44.7874" lon="1.6321">
        <ele>293.2</ele>
        <time>2023-04-15T13:02:54Z</time>
      </trkpt>
      <trkpt lat="44.78745" lon="1.63199">
        <ele>293</ele>
        <time>2023-04-15T13:03:02Z</time>
      </trkpt>
      <trkpt lat="44.78751" lon="1.63188">
        <ele>293</ele>
        <time>2023-04-15T13:03:10Z</time>
      </trkpt>
      <trkpt lat="44.78758" lon="1.63177">
        <ele>292.7</ele>
        <time>2023-04-15T13:03:18Z</time>
      </trkpt>
      <trkpt lat="44.78765" lon="1.63166">
        <ele>292.5</ele>
        <time>2023-04-15T13:03:26Z</time>
      </trkpt>
      <trkpt lat="44.78771" lon="1.63157">
        <ele>292.2</ele>
        <time>2023-04-15T13:03:33Z</time>
      </trkpt>
      <trkpt lat="44.78777" lon="1.63145">
        <ele>292</ele>
        <time>2023-04-15T13:03:41Z</time>
      </trkpt>
      <trkpt lat="44.78783" lon="1.63136">
        <ele>291.8</ele>
        <time>2023-04-15T13:03:48Z</time>
      </trkpt>
      <trkpt lat="44.7879" lon="1.63126">
        <ele>291.8</ele>
        <time>2023-04-15T13:03:56Z</time>
      </trkpt>
      <trkpt lat="44.78795" lon="1.63115">
        <ele>291.9</ele>
        <time>2023-04-15T13:04:03Z</time>
      </trkpt>
      <trkpt lat="44.78801" lon="1.63103">
        <ele>292</ele>
        <time>2023-04-15T13:04:11Z</time>
      </trkpt>
      <trkpt lat="44.78807" lon="1.63092">
        <ele>292</ele>
        <time>2023-04-15T13:04:18Z</time>
      </trkpt>
      <trkpt lat="44.78812" lon="1.6308">
        <ele>291.7</ele>
        <time>2023-04-15T13:04:26Z</time>
      </trkpt>
      <trkpt lat="44.78816" lon="1.63069">
        <ele>291.3</ele>
        <time>2023-04-15T13:04:33Z</time>
      </trkpt>
      <trkpt lat="44.78822" lon="1.63057">
        <ele>291</ele>
        <time>2023-04-15T13:04:41Z</time>
      </trkpt>
      <trkpt lat="44.78828" lon="1.63046">
        <ele>291</ele>
        <time>2023-04-15T13:04:49Z</time>
      </trkpt>
      <trkpt lat="44.78832" lon="1.63034">
        <ele>291</ele>
        <time>2023-04-15T13:04:57Z</time>
      </trkpt>
      <trkpt lat="44.78837" lon="1.63021">
        <ele>290.6</ele>
        <time>2023-04-15T13:05:05Z</time>
      </trkpt>
      <trkpt lat="44.7884" lon="1.63008">
        <ele>290</ele>
        <time>2023-04-15T13:05:12Z</time>
      </trkpt>
      <trkpt lat="44.78842" lon="1.62995">
        <ele>289.7</ele>
        <time>2023-04-15T13:05:19Z</time>
      </trkpt>
      <trkpt lat="44.78842" lon="1.62981">
        <ele>289.7</ele>
        <time>2023-04-15T13:05:26Z</time>
      </trkpt>
      <trkpt lat="44.78844" lon="1.62968">
        <ele>289.5</ele>
        <time>2023-04-15T13:05:34Z</time>
      </trkpt>
      <trkpt lat="44.78844" lon="1.62953">
        <ele>289.2</ele>
        <time>2023-04-15T13:05:41Z</time>
      </trkpt>
      <trkpt lat="44.78844" lon="1.62939">
        <ele>288.8</ele>
        <time>2023-04-15T13:05:48Z</time>
      </trkpt>
      <trkpt lat="44.78845" lon="1.62925">
        <ele>288.3</ele>
        <time>2023-04-15T13:05:56Z</time>
      </trkpt>
      <trkpt lat="44.78849" lon="1.62913">
        <ele>287.9</ele>
        <time>2023-04-15T13:06:03Z</time>
      </trkpt>
      <trkpt lat="44.78852" lon="1.62901">
        <ele>287.6</ele>
        <time>2023-04-15T13:06:11Z</time>
      </trkpt>
      <trkpt lat="44.78856" lon="1.62888">
        <ele>287.2</ele>
        <time>2023-04-15T13:06:19Z</time>
      </trkpt>
      <trkpt lat="44.78862" lon="1.62877">
        <ele>286.6</ele>
        <time>2023-04-15T13:06:26Z</time>
      </trkpt>
      <trkpt lat="44.78866" lon="1.62865">
        <ele>286.1</ele>
        <time>2023-04-15T13:06:34Z</time>
      </trkpt>
      <trkpt lat="44.78869" lon="1.62852">
        <ele>285.9</ele>
        <time>2023-04-15T13:06:41Z</time>
      </trkpt>
      <trkpt lat="44.78871" lon="1.62839">
        <ele>285.7</ele>
        <time>2023-04-15T13:06:48Z</time>
      </trkpt>
      <trkpt lat="44.78875" lon="1.62827">
        <ele>285.3</ele>
        <time>2023-04-15T13:06:56Z</time>
      </trkpt>
      <trkpt lat="44.78878" lon="1.62814">
        <ele>284.7</ele>
        <time>2023-04-15T13:07:03Z</time>
      </trkpt>
      <trkpt lat="44.78882" lon="1.62802">
        <ele>284.1</ele>
        <time>2023-04-15T13:07:12Z</time>
      </trkpt>
      <trkpt lat="44.78887" lon="1.62791">
        <ele>283.5</ele>
        <time>2023-04-15T13:08:01Z</time>
      </trkpt>
      <trkpt lat="44.78891" lon="1.62778">
        <ele>282.9</ele>
        <time>2023-04-15T13:08:09Z</time>
      </trkpt>
      <trkpt lat="44.78895" lon="1.62764">
        <ele>282.8</ele>
        <time>2023-04-15T13:08:16Z</time>
      </trkpt>
      <trkpt lat="44.78897" lon="1.62752">
        <ele>282.7</ele>
        <time>2023-04-15T13:12:30Z</time>
      </trkpt>
      <trkpt lat="44.78898" lon="1.62739">
        <ele>282.3</ele>
        <time>2023-04-15T13:12:40Z</time>
      </trkpt>
      <trkpt lat="44.78899" lon="1.62726">
        <ele>281.8</ele>
        <time>2023-04-15T13:12:48Z</time>
      </trkpt>
      <trkpt lat="44.78902" lon="1.62714">
        <ele>281.2</ele>
        <time>2023-04-15T13:12:56Z</time>
      </trkpt>
      <trkpt lat="44.78905" lon="1.627">
        <ele>280.6</ele>
        <time>2023-04-15T13:13:05Z</time>
      </trkpt>
      <trkpt lat="44.78906" lon="1.62687">
        <ele>280.4</ele>
        <time>2023-04-15T13:13:13Z</time>
      </trkpt>
      <trkpt lat="44.78907" lon="1.62673">
        <ele>280.4</ele>
        <time>2023-04-15T13:13:21Z</time>
      </trkpt>
      <trkpt lat="44.78907" lon="1.62658">
        <ele>280</ele>
        <time>2023-04-15T13:13:30Z</time>
      </trkpt>
      <trkpt lat="44.78908" lon="1.62644">
        <ele>279.5</ele>
        <time>2023-04-15T13:13:39Z</time>
      </trkpt>
      <trkpt lat="44.7891" lon="1.62631">
        <ele>279</ele>
        <time>2023-04-15T13:13:47Z</time>
      </trkpt>
      <trkpt lat="44.7891" lon="1.62617">
        <ele>278.5</ele>
        <time>2023-04-15T13:13:55Z</time>
      </trkpt>
      <trkpt lat="44.7891" lon="1.62603">
        <ele>278</ele>
        <time>2023-04-15T13:14:02Z</time>
      </trkpt>
      <trkpt lat="44.78914" lon="1.6259">
        <ele>277.3</ele>
        <time>2023-04-15T13:14:10Z</time>
      </trkpt>
      <trkpt lat="44.78915" lon="1.62577">
        <ele>276.8</ele>
        <time>2023-04-15T13:14:17Z</time>
      </trkpt>
      <trkpt lat="44.78919" lon="1.62566">
        <ele>276.3</ele>
        <time>2023-04-15T13:14:24Z</time>
      </trkpt>
      <trkpt lat="44.7892" lon="1.62552">
        <ele>275.6</ele>
        <time>2023-04-15T13:14:32Z</time>
      </trkpt>
      <trkpt lat="44.78921" lon="1.62539">
        <ele>274.7</ele>
        <time>2023-04-15T13:14:39Z</time>
      </trkpt>
      <trkpt lat="44.7892" lon="1.62525">
        <ele>273.9</ele>
        <time>2023-04-15T13:14:47Z</time>
      </trkpt>
      <trkpt lat="44.78919" lon="1.62511">
        <ele>273.5</ele>
        <time>2023-04-15T13:14:55Z</time>
      </trkpt>
      <trkpt lat="44.78917" lon="1.62498">
        <ele>273</ele>
        <time>2023-04-15T13:15:02Z</time>
      </trkpt>
      <trkpt lat="44.78916" lon="1.62485">
        <ele>272.5</ele>
        <time>2023-04-15T13:15:14Z</time>
      </trkpt>
      <trkpt lat="44.78914" lon="1.62473">
        <ele>272.1</ele>
        <time>2023-04-15T13:16:19Z</time>
      </trkpt>
      <trkpt lat="44.7891" lon="1.62461">
        <ele>272</ele>
        <time>2023-04-15T13:16:30Z</time>
      </trkpt>
      <trkpt lat="44.78914" lon="1.62449">
        <ele>271.8</ele>
        <time>2023-04-15T13:16:40Z</time>
      </trkpt>
      <trkpt lat="44.7891" lon="1.62437">
        <ele>271.3</ele>
        <time>2023-04-15T13:16:49Z</time>
      </trkpt>
      <trkpt lat="44.78908" lon="1.62424">
        <ele>270.7</ele>
        <time>2023-04-15T13:16:58Z</time>
      </trkpt>
      <trkpt lat="44.78902" lon="1.62414">
        <ele>269.3</ele>
        <time>2023-04-15T13:17:08Z</time>
      </trkpt>
      <trkpt lat="44.78899" lon="1.62402">
        <ele>267.9</ele>
        <time>2023-04-15T13:17:18Z</time>
      </trkpt>
      <trkpt lat="44.78895" lon="1.6239">
        <ele>266</ele>
        <time>2023-04-15T13:17:29Z</time>
      </trkpt>
      <trkpt lat="44.78889" lon="1.6238">
        <ele>265.5</ele>
        <time>2023-04-15T13:17:40Z</time>
      </trkpt>
      <trkpt lat="44.78881" lon="1.62373">
        <ele>264.7</ele>
        <time>2023-04-15T13:17:51Z</time>
      </trkpt>
      <trkpt lat="44.78872" lon="1.62368">
        <ele>262.2</ele>
        <time>2023-04-15T13:18:01Z</time>
      </trkpt>
      <trkpt lat="44.78864" lon="1.62362">
        <ele>258.5</ele>
        <time>2023-04-15T13:18:13Z</time>
      </trkpt>
      <trkpt lat="44.78856" lon="1.62358">
        <ele>256.8</ele>
        <time>2023-04-15T13:18:23Z</time>
      </trkpt>
      <trkpt lat="44.78846" lon="1.62353">
        <ele>255.9</ele>
        <time>2023-04-15T13:18:33Z</time>
      </trkpt>
      <trkpt lat="44.78838" lon="1.62345">
        <ele>254.6</ele>
        <time>2023-04-15T13:18:43Z</time>
      </trkpt>
      <trkpt lat="44.7883" lon="1.62339">
        <ele>252.9</ele>
        <time>2023-04-15T13:18:51Z</time>
      </trkpt>
      <trkpt lat="44.7882" lon="1.62333">
        <ele>251.2</ele>
        <time>2023-04-15T13:19:00Z</time>
      </trkpt>
      <trkpt lat="44.78812" lon="1.62326">
        <ele>250.4</ele>
        <time>2023-04-15T13:19:09Z</time>
      </trkpt>
      <trkpt lat="44.78805" lon="1.62318">
        <ele>249</ele>
        <time>2023-04-15T13:19:17Z</time>
      </trkpt>
      <trkpt lat="44.78799" lon="1.62309">
        <ele>248.4</ele>
        <time>2023-04-15T13:19:25Z</time>
      </trkpt>
      <trkpt lat="44.78794" lon="1.62298">
        <ele>247.7</ele>
        <time>2023-04-15T13:19:34Z</time>
      </trkpt>
      <trkpt lat="44.78794" lon="1.62285">
        <ele>248.1</ele>
        <time>2023-04-15T13:19:44Z</time>
      </trkpt>
      <trkpt lat="44.78793" lon="1.62271">
        <ele>248.1</ele>
        <time>2023-04-15T13:19:52Z</time>
      </trkpt>
      <trkpt lat="44.7879" lon="1.62258">
        <ele>246.7</ele>
        <time>2023-04-15T13:20:01Z</time>
      </trkpt>
      <trkpt lat="44.78785" lon="1.62247">
        <ele>244.3</ele>
        <time>2023-04-15T13:20:08Z</time>
      </trkpt>
      <trkpt lat="44.78779" lon="1.62236">
        <ele>240.9</ele>
        <time>2023-04-15T13:20:16Z</time>
      </trkpt>
      <trkpt lat="44.78772" lon="1.62226">
        <ele>240.4</ele>
        <time>2023-04-15T13:20:23Z</time>
      </trkpt>
      <trkpt lat="44.78766" lon="1.62215">
        <ele>240.3</ele>
        <time>2023-04-15T13:20:31Z</time>
      </trkpt>
      <trkpt lat="44.78758" lon="1.62208">
        <ele>239.8</ele>
        <time>2023-04-15T13:20:37Z</time>
      </trkpt>
      <trkpt lat="44.78751" lon="1.62198">
        <ele>238.5</ele>
        <time>2023-04-15T13:20:47Z</time>
      </trkpt>
      <trkpt lat="44.78742" lon="1.62193">
        <ele>237.8</ele>
        <time>2023-04-15T13:20:54Z</time>
      </trkpt>
      <trkpt lat="44.78733" lon="1.62189">
        <ele>237.6</ele>
        <time>2023-04-15T13:21:02Z</time>
      </trkpt>
      <trkpt lat="44.78724" lon="1.62183">
        <ele>237.1</ele>
        <time>2023-04-15T13:21:10Z</time>
      </trkpt>
      <trkpt lat="44.78714" lon="1.62179">
        <ele>236.6</ele>
        <time>2023-04-15T13:21:18Z</time>
      </trkpt>
      <trkpt lat="44.78705" lon="1.62175">
        <ele>235.9</ele>
        <time>2023-04-15T13:21:26Z</time>
      </trkpt>
      <trkpt lat="44.78697" lon="1.6217">
        <ele>234.7</ele>
        <time>2023-04-15T13:21:35Z</time>
      </trkpt>
      <trkpt lat="44.78687" lon="1.62166">
        <ele>233.9</ele>
        <time>2023-04-15T13:21:43Z</time>
      </trkpt>
      <trkpt lat="44.78679" lon="1.62158">
        <ele>233.9</ele>
        <time>2023-04-15T13:21:52Z</time>
      </trkpt>
      <trkpt lat="44.78671" lon="1.62149">
        <ele>233</ele>
        <time>2023-04-15T13:22:00Z</time>
      </trkpt>
      <trkpt lat="44.78665" lon="1.62139">
        <ele>232</ele>
        <time>2023-04-15T13:22:07Z</time>
      </trkpt>
      <trkpt lat="44.78657" lon="1.62131">
        <ele>232.7</ele>
        <time>2023-04-15T13:22:15Z</time>
      </trkpt>
      <trkpt lat="44.7865" lon="1.62123">
        <ele>232.4</ele>
        <time>2023-04-15T13:22:23Z</time>
      </trkpt>
      <trkpt lat="44.78642" lon="1.62114">
        <ele>230.9</ele>
        <time>2023-04-15T13:22:32Z</time>
      </trkpt>
      <trkpt lat="44.78635" lon="1.62105">
        <ele>230.7</ele>
        <time>2023-04-15T13:22:40Z</time>
      </trkpt>
      <trkpt lat="44.78627" lon="1.62095">
        <ele>230.8</ele>
        <time>2023-04-15T13:22:48Z</time>
      </trkpt>
      <trkpt lat="44.78618" lon="1.6209">
        <ele>229.6</ele>
        <time>2023-04-15T13:22:56Z</time>
      </trkpt>
      <trkpt lat="44.78609" lon="1.62085">
        <ele>227.8</ele>
        <time>2023-04-15T13:23:04Z</time>
      </trkpt>
      <trkpt lat="44.786" lon="1.62081">
        <ele>226.9</ele>
        <time>2023-04-15T13:23:13Z</time>
      </trkpt>
      <trkpt lat="44.7859" lon="1.62077">
        <ele>226.1</ele>
        <time>2023-04-15T13:23:23Z</time>
      </trkpt>
      <trkpt lat="44.78581" lon="1.62072">
        <ele>225.7</ele>
        <time>2023-04-15T13:23:31Z</time>
      </trkpt>
      <trkpt lat="44.78571" lon="1.62073">
        <ele>224.3</ele>
        <time>2023-04-15T13:23:39Z</time>
      </trkpt>
      <trkpt lat="44.78562" lon="1.62076">
        <ele>222.6</ele>
        <time>2023-04-15T13:23:45Z</time>
      </trkpt>
      <trkpt lat="44.78552" lon="1.62078">
        <ele>221.2</ele>
        <time>2023-04-15T13:23:53Z</time>
      </trkpt>
      <trkpt lat="44.78542" lon="1.62079">
        <ele>220.5</ele>
        <time>2023-04-15T13:24:01Z</time>
      </trkpt>
      <trkpt lat="44.78533" lon="1.62081">
        <ele>219.1</ele>
        <time>2023-04-15T13:24:10Z</time>
      </trkpt>
      <trkpt lat="44.78523" lon="1.62083">
        <ele>218.3</ele>
        <time>2023-04-15T13:24:18Z</time>
      </trkpt>
      <trkpt lat="44.78514" lon="1.62085">
        <ele>218.5</ele>
        <time>2023-04-15T13:24:26Z</time>
      </trkpt>
      <trkpt lat="44.78504" lon="1.6209">
        <ele>218.6</ele>
        <time>2023-04-15T13:24:35Z</time>
      </trkpt>
      <trkpt lat="44.78495" lon="1.62093">
        <ele>217.9</ele>
        <time>2023-04-15T13:24:43Z</time>
      </trkpt>
      <trkpt lat="44.78485" lon="1.62094">
        <ele>217.1</ele>
        <time>2023-04-15T13:24:52Z</time>
      </trkpt>
      <trkpt lat="44.78475" lon="1.62093">
        <ele>216.5</ele>
        <time>2023-04-15T13:25:01Z</time>
      </trkpt>
      <trkpt lat="44.78466" lon="1.62096">
        <ele>216</ele>
        <time>2023-04-15T13:25:10Z</time>
      </trkpt>
      <trkpt lat="44.78456" lon="1.62098">
        <ele>215.6</ele>
        <time>2023-04-15T13:25:19Z</time>
      </trkpt>
      <trkpt lat="44.78447" lon="1.62103">
        <ele>214.6</ele>
        <time>2023-04-15T13:25:27Z</time>
      </trkpt>
      <trkpt lat="44.78438" lon="1.62104">
        <ele>214.2</ele>
        <time>2023-04-15T13:25:34Z</time>
      </trkpt>
      <trkpt lat="44.78428" lon="1.62107">
        <ele>213.4</ele>
        <time>2023-04-15T13:25:43Z</time>
      </trkpt>
      <trkpt lat="44.78419" lon="1.62109">
        <ele>212.6</ele>
        <time>2023-04-15T13:25:51Z</time>
      </trkpt>
      <trkpt lat="44.78411" lon="1.62115">
        <ele>212.7</ele>
        <time>2023-04-15T13:25:59Z</time>
      </trkpt>
      <trkpt lat="44.78402" lon="1.62119">
        <ele>213.1</ele>
        <time>2023-04-15T13:26:07Z</time>
      </trkpt>
      <trkpt lat="44.78393" lon="1.62125">
        <ele>212.6</ele>
        <time>2023-04-15T13:26:14Z</time>
      </trkpt>
      <trkpt lat="44.78385" lon="1.62131">
        <ele>211.6</ele>
        <time>2023-04-15T13:26:21Z</time>
      </trkpt>
      <trkpt lat="44.78377" lon="1.62136">
        <ele>210.7</ele>
        <time>2023-04-15T13:26:27Z</time>
      </trkpt>
      <trkpt lat="44.78368" lon="1.6214">
        <ele>210.2</ele>
        <time>2023-04-15T13:26:34Z</time>
      </trkpt>
      <trkpt lat="44.78359" lon="1.62145">
        <ele>210.4</ele>
        <time>2023-04-15T13:26:41Z</time>
      </trkpt>
      <trkpt lat="44.78349" lon="1.62147">
        <ele>210.2</ele>
        <time>2023-04-15T13:26:48Z</time>
      </trkpt>
      <trkpt lat="44.78339" lon="1.6215">
        <ele>209.9</ele>
        <time>2023-04-15T13:26:56Z</time>
      </trkpt>
      <trkpt lat="44.78331" lon="1.62154">
        <ele>209.3</ele>
        <time>2023-04-15T13:27:03Z</time>
      </trkpt>
      <trkpt lat="44.78321" lon="1.62154">
        <ele>208.5</ele>
        <time>2023-04-15T13:27:11Z</time>
      </trkpt>
      <trkpt lat="44.78312" lon="1.62151">
        <ele>207.4</ele>
        <time>2023-04-15T13:27:18Z</time>
      </trkpt>
      <trkpt lat="44.78303" lon="1.62145">
        <ele>205.8</ele>
        <time>2023-04-15T13:27:25Z</time>
      </trkpt>
      <trkpt lat="44.78294" lon="1.62139">
        <ele>204.3</ele>
        <time>2023-04-15T13:27:32Z</time>
      </trkpt>
      <trkpt lat="44.78285" lon="1.62133">
        <ele>204.6</ele>
        <time>2023-04-15T13:27:39Z</time>
      </trkpt>
      <trkpt lat="44.78276" lon="1.62127">
        <ele>204.6</ele>
        <time>2023-04-15T13:27:47Z</time>
      </trkpt>
      <trkpt lat="44.78267" lon="1.62121">
        <ele>204.4</ele>
        <time>2023-04-15T13:27:54Z</time>
      </trkpt>
      <trkpt lat="44.78259" lon="1.62116">
        <ele>203.1</ele>
        <time>2023-04-15T13:28:01Z</time>
      </trkpt>
      <trkpt lat="44.78251" lon="1.62109">
        <ele>201.6</ele>
        <time>2023-04-15T13:28:08Z</time>
      </trkpt>
      <trkpt lat="44.78242" lon="1.62103">
        <ele>202.3</ele>
        <time>2023-04-15T13:28:15Z</time>
      </trkpt>
      <trkpt lat="44.78233" lon="1.62097">
        <ele>202.2</ele>
        <time>2023-04-15T13:28:22Z</time>
      </trkpt>
      <trkpt lat="44.78223" lon="1.62091">
        <ele>201.2</ele>
        <time>2023-04-15T13:28:29Z</time>
      </trkpt>
      <trkpt lat="44.78215" lon="1.62085">
        <ele>200.3</ele>
        <time>2023-04-15T13:28:37Z</time>
      </trkpt>
      <trkpt lat="44.78207" lon="1.62077">
        <ele>199.6</ele>
        <time>2023-04-15T13:28:45Z</time>
      </trkpt>
      <trkpt lat="44.78199" lon="1.62069">
        <ele>197.9</ele>
        <time>2023-04-15T13:28:51Z</time>
      </trkpt>
      <trkpt lat="44.78193" lon="1.62058">
        <ele>196.3</ele>
        <time>2023-04-15T13:28:58Z</time>
      </trkpt>
      <trkpt lat="44.78195" lon="1.62045">
        <ele>196.1</ele>
        <time>2023-04-15T13:29:06Z</time>
      </trkpt>
      <trkpt lat="44.78195" lon="1.62032">
        <ele>196.1</ele>
        <time>2023-04-15T13:29:13Z</time>
      </trkpt>
      <trkpt lat="44.78193" lon="1.62018">
        <ele>195.9</ele>
        <time>2023-04-15T13:29:20Z</time>
      </trkpt>
      <trkpt lat="44.78192" lon="1.62005">
        <ele>195.7</ele>
        <time>2023-04-15T13:29:27Z</time>
      </trkpt>
      <trkpt lat="44.78195" lon="1.61993">
        <ele>195</ele>
        <time>2023-04-15T13:29:35Z</time>
      </trkpt>
      <trkpt lat="44.78194" lon="1.6198">
        <ele>194.3</ele>
        <time>2023-04-15T13:29:43Z</time>
      </trkpt>
      <trkpt lat="44.78192" lon="1.61967">
        <ele>194.7</ele>
        <time>2023-04-15T13:29:50Z</time>
      </trkpt>
      <trkpt lat="44.78192" lon="1.61954">
        <ele>195.2</ele>
        <time>2023-04-15T13:29:57Z</time>
      </trkpt>
      <trkpt lat="44.78185" lon="1.61946">
        <ele>194.7</ele>
        <time>2023-04-15T13:30:05Z</time>
      </trkpt>
      <trkpt lat="44.78176" lon="1.61941">
        <ele>193.4</ele>
        <time>2023-04-15T13:30:14Z</time>
      </trkpt>
      <trkpt lat="44.7817" lon="1.61931">
        <ele>192</ele>
        <time>2023-04-15T13:30:24Z</time>
      </trkpt>
      <trkpt lat="44.78168" lon="1.61918">
        <ele>190.7</ele>
        <time>2023-04-15T13:35:49Z</time>
      </trkpt>
      <trkpt lat="44.78164" lon="1.61905">
        <ele>190.7</ele>
        <time>2023-04-15T13:35:59Z</time>
      </trkpt>
      <trkpt lat="44.78162" lon="1.61892">
        <ele>190.7</ele>
        <time>2023-04-15T13:36:08Z</time>
      </trkpt>
      <trkpt lat="44.78162" lon="1.6188">
        <ele>191.3</ele>
        <time>2023-04-15T13:36:18Z</time>
      </trkpt>
      <trkpt lat="44.78158" lon="1.61868">
        <ele>191.9</ele>
        <time>2023-04-15T13:36:26Z</time>
      </trkpt>
      <trkpt lat="44.78156" lon="1.61856">
        <ele>191.8</ele>
        <time>2023-04-15T13:36:34Z</time>
      </trkpt>
      <trkpt lat="44.78155" lon="1.61841">
        <ele>191.4</ele>
        <time>2023-04-15T13:36:43Z</time>
      </trkpt>
      <trkpt lat="44.78155" lon="1.61828">
        <ele>191</ele>
        <time>2023-04-15T13:36:51Z</time>
      </trkpt>
      <trkpt lat="44.78152" lon="1.61816">
        <ele>189.9</ele>
        <time>2023-04-15T13:37:00Z</time>
      </trkpt>
      <trkpt lat="44.78151" lon="1.61803">
        <ele>189.1</ele>
        <time>2023-04-15T13:37:08Z</time>
      </trkpt>
      <trkpt lat="44.78147" lon="1.6179">
        <ele>187.7</ele>
        <time>2023-04-15T13:37:17Z</time>
      </trkpt>
      <trkpt lat="44.78139" lon="1.61783">
        <ele>184.6</ele>
        <time>2023-04-15T13:37:27Z</time>
      </trkpt>
      <trkpt lat="44.7813" lon="1.6178">
        <ele>184.3</ele>
        <time>2023-04-15T13:37:36Z</time>
      </trkpt>
      <trkpt lat="44.78121" lon="1.61777">
        <ele>184</ele>
        <time>2023-04-15T13:37:45Z</time>
      </trkpt>
      <trkpt lat="44.78123" lon="1.61765">
        <ele>184.5</ele>
        <time>2023-04-15T13:38:52Z</time>
      </trkpt>
      <trkpt lat="44.7813" lon="1.61757">
        <ele>185.8</ele>
        <time>2023-04-15T13:39:02Z</time>
      </trkpt>
      <trkpt lat="44.78137" lon="1.61749">
        <ele>187.6</ele>
        <time>2023-04-15T13:39:12Z</time>
      </trkpt>
      <trkpt lat="44.78144" lon="1.6174">
        <ele>188.9</ele>
        <time>2023-04-15T13:39:21Z</time>
      </trkpt>
      <trkpt lat="44.7815" lon="1.6173">
        <ele>190.1</ele>
        <time>2023-04-15T13:39:28Z</time>
      </trkpt>
      <trkpt lat="44.78157" lon="1.61719">
        <ele>191.3</ele>
        <time>2023-04-15T13:39:36Z</time>
      </trkpt>
      <trkpt lat="44.78162" lon="1.61708">
        <ele>191.3</ele>
        <time>2023-04-15T13:39:44Z</time>
      </trkpt>
      <trkpt lat="44.78168" lon="1.61697">
        <ele>191.9</ele>
        <time>2023-04-15T13:39:52Z</time>
      </trkpt>
      <trkpt lat="44.78176" lon="1.61689">
        <ele>192.7</ele>
        <time>2023-04-15T13:40:00Z</time>
      </trkpt>
      <trkpt lat="44.78185" lon="1.61684">
        <ele>193.9</ele>
        <time>2023-04-15T13:40:08Z</time>
      </trkpt>
      <trkpt lat="44.78193" lon="1.61679">
        <ele>195.2</ele>
        <time>2023-04-15T13:40:16Z</time>
      </trkpt>
      <trkpt lat="44.78202" lon="1.61675">
        <ele>196.7</ele>
        <time>2023-04-15T13:40:24Z</time>
      </trkpt>
      <trkpt lat="44.78211" lon="1.6167">
        <ele>197.7</ele>
        <time>2023-04-15T13:40:32Z</time>
      </trkpt>
      <trkpt lat="44.78219" lon="1.61663">
        <ele>198.2</ele>
        <time>2023-04-15T13:40:40Z</time>
      </trkpt>
      <trkpt lat="44.78227" lon="1.61657">
        <ele>199.1</ele>
        <time>2023-04-15T13:40:47Z</time>
      </trkpt>
      <trkpt lat="44.78234" lon="1.61649">
        <ele>199.6</ele>
        <time>2023-04-15T13:40:55Z</time>
      </trkpt>
      <trkpt lat="44.78243" lon="1.61642">
        <ele>200.3</ele>
        <time>2023-04-15T13:41:04Z</time>
      </trkpt>
      <trkpt lat="44.7825" lon="1.61632">
        <ele>200.5</ele>
        <time>2023-04-15T13:41:13Z</time>
      </trkpt>
      <trkpt lat="44.78257" lon="1.61622">
        <ele>201.7</ele>
        <time>2023-04-15T13:41:22Z</time>
      </trkpt>
      <trkpt lat="44.78265" lon="1.61617">
        <ele>205</ele>
        <time>2023-04-15T13:41:43Z</time>
      </trkpt>
      <trkpt lat="44.7827" lon="1.61607">
        <ele>205.2</ele>
        <time>2023-04-15T13:41:59Z</time>
      </trkpt>
      <trkpt lat="44.78277" lon="1.61597">
        <ele>208.2</ele>
        <time>2023-04-15T13:44:28Z</time>
      </trkpt>
      <trkpt lat="44.78281" lon="1.61586">
        <ele>210</ele>
        <time>2023-04-15T13:44:40Z</time>
      </trkpt>
      <trkpt lat="44.78286" lon="1.61575">
        <ele>211.1</ele>
        <time>2023-04-15T13:44:49Z</time>
      </trkpt>
      <trkpt lat="44.7829" lon="1.61563">
        <ele>212.1</ele>
        <time>2023-04-15T13:45:00Z</time>
      </trkpt>
      <trkpt lat="44.78296" lon="1.61553">
        <ele>214.7</ele>
        <time>2023-04-15T13:45:13Z</time>
      </trkpt>
      <trkpt lat="44.78301" lon="1.61542">
        <ele>217</ele>
        <time>2023-04-15T13:45:26Z</time>
      </trkpt>
      <trkpt lat="44.78306" lon="1.61531">
        <ele>219.2</ele>
        <time>2023-04-15T13:45:36Z</time>
      </trkpt>
      <trkpt lat="44.78312" lon="1.61521">
        <ele>221.2</ele>
        <time>2023-04-15T13:45:47Z</time>
      </trkpt>
      <trkpt lat="44.78318" lon="1.61511">
        <ele>223</ele>
        <time>2023-04-15T13:45:58Z</time>
      </trkpt>
      <trkpt lat="44.78326" lon="1.61505">
        <ele>225.7</ele>
        <time>2023-04-15T13:46:13Z</time>
      </trkpt>
      <trkpt lat="44.78332" lon="1.61494">
        <ele>227.3</ele>
        <time>2023-04-15T13:46:24Z</time>
      </trkpt>
      <trkpt lat="44.78339" lon="1.61484">
        <ele>228.4</ele>
        <time>2023-04-15T13:46:34Z</time>
      </trkpt>
      <trkpt lat="44.78346" lon="1.61475">
        <ele>229.6</ele>
        <time>2023-04-15T13:46:45Z</time>
      </trkpt>
      <trkpt lat="44.78355" lon="1.61469">
        <ele>231</ele>
        <time>2023-04-15T13:46:57Z</time>
      </trkpt>
      <trkpt lat="44.78364" lon="1.61466">
        <ele>232.5</ele>
        <time>2023-04-15T13:47:08Z</time>
      </trkpt>
      <trkpt lat="44.78373" lon="1.61465">
        <ele>234</ele>
        <time>2023-04-15T13:47:22Z</time>
      </trkpt>
      <trkpt lat="44.78382" lon="1.61464">
        <ele>235.5</ele>
        <time>2023-04-15T13:47:32Z</time>
      </trkpt>
      <trkpt lat="44.78392" lon="1.61462">
        <ele>236.6</ele>
        <time>2023-04-15T13:47:42Z</time>
      </trkpt>
      <trkpt lat="44.78401" lon="1.61459">
        <ele>237.4</ele>
        <time>2023-04-15T13:47:52Z</time>
      </trkpt>
      <trkpt lat="44.7841" lon="1.61456">
        <ele>238.2</ele>
        <time>2023-04-15T13:48:01Z</time>
      </trkpt>
      <trkpt lat="44.7842" lon="1.61454">
        <ele>239.1</ele>
        <time>2023-04-15T13:48:11Z</time>
      </trkpt>
      <trkpt lat="44.78429" lon="1.61451">
        <ele>239.6</ele>
        <time>2023-04-15T13:48:20Z</time>
      </trkpt>
      <trkpt lat="44.78439" lon="1.61449">
        <ele>240.3</ele>
        <time>2023-04-15T13:48:29Z</time>
      </trkpt>
      <trkpt lat="44.78448" lon="1.61449">
        <ele>240.6</ele>
        <time>2023-04-15T13:48:38Z</time>
      </trkpt>
      <trkpt lat="44.78458" lon="1.61446">
        <ele>239.9</ele>
        <time>2023-04-15T13:48:47Z</time>
      </trkpt>
      <trkpt lat="44.78468" lon="1.61447">
        <ele>239.8</ele>
        <time>2023-04-15T13:48:57Z</time>
      </trkpt>
      <trkpt lat="44.78476" lon="1.61454">
        <ele>240.5</ele>
        <time>2023-04-15T13:49:07Z</time>
      </trkpt>
      <trkpt lat="44.78484" lon="1.61462">
        <ele>241.1</ele>
        <time>2023-04-15T13:49:18Z</time>
      </trkpt>
      <trkpt lat="44.78492" lon="1.61469">
        <ele>241.5</ele>
        <time>2023-04-15T13:49:28Z</time>
      </trkpt>
      <trkpt lat="44.785" lon="1.61476">
        <ele>241.6</ele>
        <time>2023-04-15T13:49:36Z</time>
      </trkpt>
      <trkpt lat="44.78507" lon="1.61484">
        <ele>242.3</ele>
        <time>2023-04-15T13:49:45Z</time>
      </trkpt>
      <trkpt lat="44.78516" lon="1.61487">
        <ele>242.2</ele>
        <time>2023-04-15T13:49:54Z</time>
      </trkpt>
      <trkpt lat="44.78525" lon="1.61485">
        <ele>241.4</ele>
        <time>2023-04-15T13:50:03Z</time>
      </trkpt>
      <trkpt lat="44.78535" lon="1.61483">
        <ele>241.4</ele>
        <time>2023-04-15T13:50:12Z</time>
      </trkpt>
      <trkpt lat="44.78544" lon="1.61482">
        <ele>241.9</ele>
        <time>2023-04-15T13:50:22Z</time>
      </trkpt>
      <trkpt lat="44.7855" lon="1.61471">
        <ele>241.4</ele>
        <time>2023-04-15T13:50:32Z</time>
      </trkpt>
      <trkpt lat="44.78555" lon="1.6146">
        <ele>241.4</ele>
        <time>2023-04-15T13:50:41Z</time>
      </trkpt>
      <trkpt lat="44.78556" lon="1.61446">
        <ele>241.2</ele>
        <time>2023-04-15T13:50:51Z</time>
      </trkpt>
      <trkpt lat="44.78558" lon="1.61433">
        <ele>242.4</ele>
        <time>2023-04-15T13:51:00Z</time>
      </trkpt>
      <trkpt lat="44.78558" lon="1.6142">
        <ele>242.9</ele>
        <time>2023-04-15T13:51:09Z</time>
      </trkpt>
      <trkpt lat="44.78559" lon="1.61406">
        <ele>243.8</ele>
        <time>2023-04-15T13:51:20Z</time>
      </trkpt>
      <trkpt lat="44.78561" lon="1.61393">
        <ele>245.2</ele>
        <time>2023-04-15T13:51:32Z</time>
      </trkpt>
      <trkpt lat="44.78562" lon="1.61379">
        <ele>246.6</ele>
        <time>2023-04-15T13:51:42Z</time>
      </trkpt>
      <trkpt lat="44.78561" lon="1.61366">
        <ele>246.8</ele>
        <time>2023-04-15T13:51:52Z</time>
      </trkpt>
      <trkpt lat="44.7856" lon="1.61353">
        <ele>247.7</ele>
        <time>2023-04-15T13:52:03Z</time>
      </trkpt>
      <trkpt lat="44.78559" lon="1.6134">
        <ele>248.6</ele>
        <time>2023-04-15T13:52:15Z</time>
      </trkpt>
      <trkpt lat="44.78554" lon="1.61328">
        <ele>248.2</ele>
        <time>2023-04-15T13:52:22Z</time>
      </trkpt>
      <trkpt lat="44.78551" lon="1.61316">
        <ele>248.5</ele>
        <time>2023-04-15T13:52:32Z</time>
      </trkpt>
      <trkpt lat="44.78551" lon="1.61302">
        <ele>250.5</ele>
        <time>2023-04-15T13:52:45Z</time>
      </trkpt>
      <trkpt lat="44.78552" lon="1.61289">
        <ele>252.9</ele>
        <time>2023-04-15T13:52:57Z</time>
      </trkpt>
      <trkpt lat="44.78551" lon="1.61276">
        <ele>254.3</ele>
        <time>2023-04-15T13:53:08Z</time>
      </trkpt>
      <trkpt lat="44.7855" lon="1.61263">
        <ele>255.5</ele>
        <time>2023-04-15T13:53:19Z</time>
      </trkpt>
      <trkpt lat="44.78551" lon="1.61249">
        <ele>256.9</ele>
        <time>2023-04-15T13:53:30Z</time>
      </trkpt>
      <trkpt lat="44.78549" lon="1.61236">
        <ele>257.3</ele>
        <time>2023-04-15T13:53:39Z</time>
      </trkpt>
      <trkpt lat="44.78549" lon="1.61222">
        <ele>258.1</ele>
        <time>2023-04-15T13:53:48Z</time>
      </trkpt>
      <trkpt lat="44.78551" lon="1.61208">
        <ele>259</ele>
        <time>2023-04-15T13:53:57Z</time>
      </trkpt>
      <trkpt lat="44.78555" lon="1.61196">
        <ele>259.9</ele>
        <time>2023-04-15T13:54:06Z</time>
      </trkpt>
      <trkpt lat="44.78559" lon="1.61185">
        <ele>260.4</ele>
        <time>2023-04-15T13:54:15Z</time>
      </trkpt>
      <trkpt lat="44.78564" lon="1.61174">
        <ele>260.9</ele>
        <time>2023-04-15T13:54:23Z</time>
      </trkpt>
      <trkpt lat="44.78567" lon="1.6116">
        <ele>261.1</ele>
        <time>2023-04-15T13:54:32Z</time>
      </trkpt>
      <trkpt lat="44.78569" lon="1.61147">
        <ele>261.1</ele>
        <time>2023-04-15T13:54:40Z</time>
      </trkpt>
      <trkpt lat="44.78571" lon="1.61134">
        <ele>261.1</ele>
        <time>2023-04-15T13:54:47Z</time>
      </trkpt>
      <trkpt lat="44.78575" lon="1.61121">
        <ele>261.4</ele>
        <time>2023-04-15T13:54:55Z</time>
      </trkpt>
      <trkpt lat="44.78582" lon="1.6111">
        <ele>261.8</ele>
        <time>2023-04-15T13:55:05Z</time>
      </trkpt>
      <trkpt lat="44.7859" lon="1.61102">
        <ele>262</ele>
        <time>2023-04-15T13:55:15Z</time>
      </trkpt>
      <trkpt lat="44.78597" lon="1.61095">
        <ele>262.2</ele>
        <time>2023-04-15T13:55:25Z</time>
      </trkpt>
      <trkpt lat="44.78605" lon="1.61086">
        <ele>262.6</ele>
        <time>2023-04-15T13:55:34Z</time>
      </trkpt>
      <trkpt lat="44.78613" lon="1.61078">
        <ele>262.7</ele>
        <time>2023-04-15T13:55:43Z</time>
      </trkpt>
      <trkpt lat="44.78621" lon="1.61071">
        <ele>262.6</ele>
        <time>2023-04-15T13:55:52Z</time>
      </trkpt>
      <trkpt lat="44.78629" lon="1.61063">
        <ele>262.6</ele>
        <time>2023-04-15T13:56:01Z</time>
      </trkpt>
      <trkpt lat="44.78639" lon="1.61059">
        <ele>263.1</ele>
        <time>2023-04-15T13:56:10Z</time>
      </trkpt>
      <trkpt lat="44.78648" lon="1.61059">
        <ele>263.4</ele>
        <time>2023-04-15T13:56:19Z</time>
      </trkpt>
      <trkpt lat="44.78657" lon="1.61061">
        <ele>263.9</ele>
        <time>2023-04-15T13:56:28Z</time>
      </trkpt>
      <trkpt lat="44.78667" lon="1.61065">
        <ele>264.3</ele>
        <time>2023-04-15T13:56:37Z</time>
      </trkpt>
      <trkpt lat="44.78676" lon="1.6107">
        <ele>264.5</ele>
        <time>2023-04-15T13:56:46Z</time>
      </trkpt>
      <trkpt lat="44.78684" lon="1.61076">
        <ele>264.7</ele>
        <time>2023-04-15T13:56:54Z</time>
      </trkpt>
      <trkpt lat="44.78694" lon="1.6108">
        <ele>264.9</ele>
        <time>2023-04-15T13:57:03Z</time>
      </trkpt>
      <trkpt lat="44.78702" lon="1.61086">
        <ele>265.1</ele>
        <time>2023-04-15T13:57:12Z</time>
      </trkpt>
      <trkpt lat="44.78711" lon="1.61089">
        <ele>265.1</ele>
        <time>2023-04-15T13:57:21Z</time>
      </trkpt>
      <trkpt lat="44.78721" lon="1.6109">
        <ele>265</ele>
        <time>2023-04-15T13:57:30Z</time>
      </trkpt>
      <trkpt lat="44.78729" lon="1.61085">
        <ele>264.7</ele>
        <time>2023-04-15T13:57:38Z</time>
      </trkpt>
      <trkpt lat="44.78737" lon="1.61078">
        <ele>264.4</ele>
        <time>2023-04-15T13:57:46Z</time>
      </trkpt>
      <trkpt lat="44.78746" lon="1.61072">
        <ele>264.1</ele>
        <time>2023-04-15T13:57:56Z</time>
      </trkpt>
      <trkpt lat="44.78752" lon="1.61062">
        <ele>263.8</ele>
        <time>2023-04-15T13:58:05Z</time>
      </trkpt>
      <trkpt lat="44.78758" lon="1.61051">
        <ele>263.3</ele>
        <time>2023-04-15T13:58:18Z</time>
      </trkpt>
      <trkpt lat="44.78763" lon="1.61039">
        <ele>263</ele>
        <time>2023-04-15T13:58:27Z</time>
      </trkpt>
      <trkpt lat="44.78766" lon="1.61026">
        <ele>263</ele>
        <time>2023-04-15T13:58:35Z</time>
      </trkpt>
      <trkpt lat="44.7877" lon="1.61013">
        <ele>262.6</ele>
        <time>2023-04-15T13:58:43Z</time>
      </trkpt>
      <trkpt lat="44.78773" lon="1.60999">
        <ele>262.2</ele>
        <time>2023-04-15T13:58:51Z</time>
      </trkpt>
      <trkpt lat="44.78776" lon="1.60987">
        <ele>262</ele>
        <time>2023-04-15T13:58:59Z</time>
      </trkpt>
      <trkpt lat="44.78778" lon="1.60973">
        <ele>262</ele>
        <time>2023-04-15T13:59:07Z</time>
      </trkpt>
      <trkpt lat="44.7878" lon="1.60961">
        <ele>261.6</ele>
        <time>2023-04-15T13:59:15Z</time>
      </trkpt>
      <trkpt lat="44.78782" lon="1.60947">
        <ele>261.1</ele>
        <time>2023-04-15T13:59:23Z</time>
      </trkpt>
      <trkpt lat="44.78784" lon="1.60935">
        <ele>260.7</ele>
        <time>2023-04-15T13:59:31Z</time>
      </trkpt>
      <trkpt lat="44.78787" lon="1.60922">
        <ele>260.2</ele>
        <time>2023-04-15T13:59:39Z</time>
      </trkpt>
      <trkpt lat="44.7879" lon="1.60909">
        <ele>259.7</ele>
        <time>2023-04-15T13:59:47Z</time>
      </trkpt>
      <trkpt lat="44.78795" lon="1.60896">
        <ele>259.3</ele>
        <time>2023-04-15T13:59:55Z</time>
      </trkpt>
      <trkpt lat="44.78801" lon="1.60886">
        <ele>258.9</ele>
        <time>2023-04-15T14:00:06Z</time>
      </trkpt>
      <trkpt lat="44.7881" lon="1.60885">
        <ele>258.9</ele>
        <time>2023-04-15T14:06:44Z</time>
      </trkpt>
      <trkpt lat="44.78819" lon="1.60888">
        <ele>259</ele>
        <time>2023-04-15T14:06:57Z</time>
      </trkpt>
      <trkpt lat="44.78828" lon="1.60893">
        <ele>259.2</ele>
        <time>2023-04-15T14:07:14Z</time>
      </trkpt>
      <trkpt lat="44.78836" lon="1.60901">
        <ele>259.5</ele>
        <time>2023-04-15T14:07:22Z</time>
      </trkpt>
      <trkpt lat="44.78844" lon="1.60909">
        <ele>260.1</ele>
        <time>2023-04-15T14:07:30Z</time>
      </trkpt>
      <trkpt lat="44.78852" lon="1.60914">
        <ele>260.6</ele>
        <time>2023-04-15T14:07:38Z</time>
      </trkpt>
      <trkpt lat="44.7886" lon="1.60923">
        <ele>261</ele>
        <time>2023-04-15T14:07:46Z</time>
      </trkpt>
      <trkpt lat="44.78868" lon="1.60929">
        <ele>261</ele>
        <time>2023-04-15T14:07:54Z</time>
      </trkpt>
      <trkpt lat="44.78876" lon="1.60936">
        <ele>261</ele>
        <time>2023-04-15T14:08:02Z</time>
      </trkpt>
      <trkpt lat="44.78885" lon="1.60942">
        <ele>261</ele>
        <time>2023-04-15T14:08:10Z</time>
      </trkpt>
      <trkpt lat="44.78893" lon="1.60947">
        <ele>261.1</ele>
        <time>2023-04-15T14:08:17Z</time>
      </trkpt>
      <trkpt lat="44.78903" lon="1.60951">
        <ele>261.4</ele>
        <time>2023-04-15T14:08:25Z</time>
      </trkpt>
      <trkpt lat="44.78912" lon="1.60954">
        <ele>261.6</ele>
        <time>2023-04-15T14:08:33Z</time>
      </trkpt>
      <trkpt lat="44.78921" lon="1.60957">
        <ele>261.5</ele>
        <time>2023-04-15T14:08:40Z</time>
      </trkpt>
      <trkpt lat="44.7893" lon="1.6096">
        <ele>261.2</ele>
        <time>2023-04-15T14:08:48Z</time>
      </trkpt>
      <trkpt lat="44.7894" lon="1.60962">
        <ele>261.1</ele>
        <time>2023-04-15T14:08:56Z</time>
      </trkpt>
      <trkpt lat="44.78949" lon="1.60965">
        <ele>261</ele>
        <time>2023-04-15T14:09:04Z</time>
      </trkpt>
      <trkpt lat="44.78958" lon="1.60969">
        <ele>261</ele>
        <time>2023-04-15T14:09:13Z</time>
      </trkpt>
      <trkpt lat="44.78967" lon="1.60974">
        <ele>260.9</ele>
        <time>2023-04-15T14:09:21Z</time>
      </trkpt>
      <trkpt lat="44.78976" lon="1.6098">
        <ele>260.8</ele>
        <time>2023-04-15T14:09:29Z</time>
      </trkpt>
      <trkpt lat="44.78984" lon="1.60986">
        <ele>260.7</ele>
        <time>2023-04-15T14:09:37Z</time>
      </trkpt>
      <trkpt lat="44.78992" lon="1.60994">
        <ele>260.8</ele>
        <time>2023-04-15T14:09:46Z</time>
      </trkpt>
      <trkpt lat="44.78999" lon="1.61003">
        <ele>260.9</ele>
        <time>2023-04-15T14:09:55Z</time>
      </trkpt>
      <trkpt lat="44.79008" lon="1.61009">
        <ele>261.1</ele>
        <time>2023-04-15T14:10:04Z</time>
      </trkpt>
      <trkpt lat="44.79017" lon="1.61015">
        <ele>261.4</ele>
        <time>2023-04-15T14:10:12Z</time>
      </trkpt>
      <trkpt lat="44.79026" lon="1.6102">
        <ele>261.9</ele>
        <time>2023-04-15T14:10:20Z</time>
      </trkpt>
      <trkpt lat="44.79035" lon="1.61024">
        <ele>262.2</ele>
        <time>2023-04-15T14:10:28Z</time>
      </trkpt>
      <trkpt lat="44.79044" lon="1.61029">
        <ele>262.6</ele>
        <time>2023-04-15T14:10:36Z</time>
      </trkpt>
      <trkpt lat="44.79053" lon="1.61036">
        <ele>262.9</ele>
        <time>2023-04-15T14:10:45Z</time>
      </trkpt>
      <trkpt lat="44.79061" lon="1.6104">
        <ele>263.1</ele>
        <time>2023-04-15T14:10:51Z</time>
      </trkpt>
      <trkpt lat="44.7907" lon="1.61043">
        <ele>263.3</ele>
        <time>2023-04-15T14:10:58Z</time>
      </trkpt>
      <trkpt lat="44.79079" lon="1.61046">
        <ele>263.6</ele>
        <time>2023-04-15T14:11:05Z</time>
      </trkpt>
      <trkpt lat="44.79089" lon="1.61049">
        <ele>263.8</ele>
        <time>2023-04-15T14:11:13Z</time>
      </trkpt>
      <trkpt lat="44.79098" lon="1.61052">
        <ele>263.9</ele>
        <time>2023-04-15T14:11:21Z</time>
      </trkpt>
      <trkpt lat="44.79107" lon="1.61056">
        <ele>264.1</ele>
        <time>2023-04-15T14:11:28Z</time>
      </trkpt>
      <trkpt lat="44.79117" lon="1.61061">
        <ele>264.4</ele>
        <time>2023-04-15T14:11:36Z</time>
      </trkpt>
      <trkpt lat="44.79125" lon="1.61065">
        <ele>264.8</ele>
        <time>2023-04-15T14:11:44Z</time>
      </trkpt>
      <trkpt lat="44.79134" lon="1.61068">
        <ele>265.2</ele>
        <time>2023-04-15T14:11:51Z</time>
      </trkpt>
      <trkpt lat="44.79144" lon="1.61071">
        <ele>265.6</ele>
        <time>2023-04-15T14:11:59Z</time>
      </trkpt>
      <trkpt lat="44.79154" lon="1.61075">
        <ele>265.7</ele>
        <time>2023-04-15T14:12:07Z</time>
      </trkpt>
      <trkpt lat="44.79163" lon="1.6108">
        <ele>265.8</ele>
        <time>2023-04-15T14:12:15Z</time>
      </trkpt>
      <trkpt lat="44.79173" lon="1.61083">
        <ele>265.7</ele>
        <time>2023-04-15T14:12:23Z</time>
      </trkpt>
      <trkpt lat="44.79183" lon="1.61083">
        <ele>265.4</ele>
        <time>2023-04-15T14:12:31Z</time>
      </trkpt>
      <trkpt lat="44.79192" lon="1.61086">
        <ele>265.3</ele>
        <time>2023-04-15T14:12:38Z</time>
      </trkpt>
      <trkpt lat="44.79201" lon="1.6109">
        <ele>265.4</ele>
        <time>2023-04-15T14:12:46Z</time>
      </trkpt>
      <trkpt lat="44.7921" lon="1.61092">
        <ele>265.4</ele>
        <time>2023-04-15T14:12:53Z</time>
      </trkpt>
      <trkpt lat="44.7922" lon="1.61096">
        <ele>265.5</ele>
        <time>2023-04-15T14:13:01Z</time>
      </trkpt>
      <trkpt lat="44.79229" lon="1.61099">
        <ele>265.2</ele>
        <time>2023-04-15T14:13:08Z</time>
      </trkpt>
      <trkpt lat="44.79238" lon="1.61099">
        <ele>264.7</ele>
        <time>2023-04-15T14:13:15Z</time>
      </trkpt>
      <trkpt lat="44.79248" lon="1.611">
        <ele>264.4</ele>
        <time>2023-04-15T14:13:23Z</time>
      </trkpt>
      <trkpt lat="44.79257" lon="1.61103">
        <ele>264</ele>
        <time>2023-04-15T14:13:31Z</time>
      </trkpt>
      <trkpt lat="44.79266" lon="1.61105">
        <ele>263.5</ele>
        <time>2023-04-15T14:13:39Z</time>
      </trkpt>
      <trkpt lat="44.79274" lon="1.61111">
        <ele>263.3</ele>
        <time>2023-04-15T14:13:47Z</time>
      </trkpt>
      <trkpt lat="44.79283" lon="1.61115">
        <ele>262.8</ele>
        <time>2023-04-15T14:13:54Z</time>
      </trkpt>
      <trkpt lat="44.79292" lon="1.61119">
        <ele>262.3</ele>
        <time>2023-04-15T14:14:01Z</time>
      </trkpt>
      <trkpt lat="44.79301" lon="1.61122">
        <ele>261.7</ele>
        <time>2023-04-15T14:14:09Z</time>
      </trkpt>
      <trkpt lat="44.79311" lon="1.61124">
        <ele>260.6</ele>
        <time>2023-04-15T14:14:17Z</time>
      </trkpt>
      <trkpt lat="44.79321" lon="1.61123">
        <ele>259.2</ele>
        <time>2023-04-15T14:14:25Z</time>
      </trkpt>
      <trkpt lat="44.7933" lon="1.6112">
        <ele>257.8</ele>
        <time>2023-04-15T14:14:33Z</time>
      </trkpt>
      <trkpt lat="44.7934" lon="1.61119">
        <ele>256.5</ele>
        <time>2023-04-15T14:14:41Z</time>
      </trkpt>
      <trkpt lat="44.79349" lon="1.61113">
        <ele>255.4</ele>
        <time>2023-04-15T14:14:49Z</time>
      </trkpt>
      <trkpt lat="44.79358" lon="1.61111">
        <ele>254.3</ele>
        <time>2023-04-15T14:14:56Z</time>
      </trkpt>
      <trkpt lat="44.79368" lon="1.61108">
        <ele>252.5</ele>
        <time>2023-04-15T14:15:04Z</time>
      </trkpt>
      <trkpt lat="44.79376" lon="1.61104">
        <ele>250.6</ele>
        <time>2023-04-15T14:15:12Z</time>
      </trkpt>
      <trkpt lat="44.79385" lon="1.611">
        <ele>248.8</ele>
        <time>2023-04-15T14:15:20Z</time>
      </trkpt>
      <trkpt lat="44.79394" lon="1.61097">
        <ele>247</ele>
        <time>2023-04-15T14:15:29Z</time>
      </trkpt>
      <trkpt lat="44.79403" lon="1.61094">
        <ele>245.1</ele>
        <time>2023-04-15T14:15:38Z</time>
      </trkpt>
      <trkpt lat="44.79413" lon="1.61093">
        <ele>243.2</ele>
        <time>2023-04-15T14:15:47Z</time>
      </trkpt>
      <trkpt lat="44.79422" lon="1.61091">
        <ele>240.9</ele>
        <time>2023-04-15T14:15:57Z</time>
      </trkpt>
      <trkpt lat="44.79431" lon="1.61095">
        <ele>238.6</ele>
        <time>2023-04-15T14:16:07Z</time>
      </trkpt>
      <trkpt lat="44.7944" lon="1.61099">
        <ele>236.3</ele>
        <time>2023-04-15T14:16:16Z</time>
      </trkpt>
      <trkpt lat="44.79449" lon="1.61105">
        <ele>234.1</ele>
        <time>2023-04-15T14:16:26Z</time>
      </trkpt>
      <trkpt lat="44.79457" lon="1.6111">
        <ele>232.2</ele>
        <time>2023-04-15T14:16:36Z</time>
      </trkpt>
      <trkpt lat="44.79466" lon="1.61114">
        <ele>230.3</ele>
        <time>2023-04-15T14:16:45Z</time>
      </trkpt>
      <trkpt lat="44.79475" lon="1.61117">
        <ele>228.3</ele>
        <time>2023-04-15T14:16:56Z</time>
      </trkpt>
      <trkpt lat="44.79485" lon="1.61116">
        <ele>226.6</ele>
        <time>2023-04-15T14:17:05Z</time>
      </trkpt>
      <trkpt lat="44.79495" lon="1.61116">
        <ele>224.8</ele>
        <time>2023-04-15T14:17:14Z</time>
      </trkpt>
      <trkpt lat="44.79504" lon="1.61113">
        <ele>223.4</ele>
        <time>2023-04-15T14:17:22Z</time>
      </trkpt>
      <trkpt lat="44.79513" lon="1.61111">
        <ele>222</ele>
        <time>2023-04-15T14:18:20Z</time>
      </trkpt>
      <trkpt lat="44.79522" lon="1.61105">
        <ele>220.3</ele>
        <time>2023-04-15T14:19:49Z</time>
      </trkpt>
      <trkpt lat="44.79531" lon="1.61104">
        <ele>218.3</ele>
        <time>2023-04-15T14:19:59Z</time>
      </trkpt>
      <trkpt lat="44.7954" lon="1.61098">
        <ele>214.9</ele>
        <time>2023-04-15T14:20:08Z</time>
      </trkpt>
      <trkpt lat="44.79549" lon="1.61092">
        <ele>211.6</ele>
        <time>2023-04-15T14:20:17Z</time>
      </trkpt>
      <trkpt lat="44.79556" lon="1.61099">
        <ele>209.8</ele>
        <time>2023-04-15T14:20:40Z</time>
      </trkpt>
      <trkpt lat="44.79558" lon="1.61112">
        <ele>208.7</ele>
        <time>2023-04-15T14:20:55Z</time>
      </trkpt>
      <trkpt lat="44.79562" lon="1.61124">
        <ele>203.3</ele>
        <time>2023-04-15T14:21:08Z</time>
      </trkpt>
      <trkpt lat="44.79563" lon="1.61138">
        <ele>200</ele>
        <time>2023-04-15T14:21:20Z</time>
      </trkpt>
      <trkpt lat="44.79562" lon="1.61151">
        <ele>198.5</ele>
        <time>2023-04-15T14:21:29Z</time>
      </trkpt>
      <trkpt lat="44.79557" lon="1.61162">
        <ele>201.3</ele>
        <time>2023-04-15T14:21:38Z</time>
      </trkpt>
      <trkpt lat="44.79553" lon="1.61174">
        <ele>199.2</ele>
        <time>2023-04-15T14:21:48Z</time>
      </trkpt>
      <trkpt lat="44.79549" lon="1.61187">
        <ele>193.6</ele>
        <time>2023-04-15T14:21:58Z</time>
      </trkpt>
      <trkpt lat="44.7954" lon="1.61194">
        <ele>196</ele>
        <time>2023-04-15T14:22:08Z</time>
      </trkpt>
      <trkpt lat="44.79531" lon="1.61199">
        <ele>199.7</ele>
        <time>2023-04-15T14:22:16Z</time>
      </trkpt>
      <trkpt lat="44.79523" lon="1.61207">
        <ele>199.8</ele>
        <time>2023-04-15T14:22:24Z</time>
      </trkpt>
      <trkpt lat="44.79517" lon="1.61218">
        <ele>197.6</ele>
        <time>2023-04-15T14:22:31Z</time>
      </trkpt>
      <trkpt lat="44.7951" lon="1.61228">
        <ele>196.8</ele>
        <time>2023-04-15T14:22:40Z</time>
      </trkpt>
      <trkpt lat="44.79505" lon="1.61239">
        <ele>193.5</ele>
        <time>2023-04-15T14:22:47Z</time>
      </trkpt>
      <trkpt lat="44.79499" lon="1.61249">
        <ele>192.6</ele>
        <time>2023-04-15T14:22:55Z</time>
      </trkpt>
      <trkpt lat="44.79492" lon="1.6126">
        <ele>192.4</ele>
        <time>2023-04-15T14:23:04Z</time>
      </trkpt>
      <trkpt lat="44.79486" lon="1.61268">
        <ele>193.6</ele>
        <time>2023-04-15T14:23:12Z</time>
      </trkpt>
      <trkpt lat="44.79478" lon="1.61279">
        <ele>194.1</ele>
        <time>2023-04-15T14:23:21Z</time>
      </trkpt>
      <trkpt lat="44.79472" lon="1.61289">
        <ele>194.6</ele>
        <time>2023-04-15T14:23:29Z</time>
      </trkpt>
      <trkpt lat="44.79468" lon="1.61302">
        <ele>191.8</ele>
        <time>2023-04-15T14:23:38Z</time>
      </trkpt>
      <trkpt lat="44.79465" lon="1.61314">
        <ele>191</ele>
        <time>2023-04-15T14:23:47Z</time>
      </trkpt>
      <trkpt lat="44.79463" lon="1.61327">
        <ele>188.7</ele>
        <time>2023-04-15T14:23:54Z</time>
      </trkpt>
      <trkpt lat="44.79461" lon="1.6134">
        <ele>188</ele>
        <time>2023-04-15T14:24:03Z</time>
      </trkpt>
      <trkpt lat="44.79459" lon="1.61352">
        <ele>189.4</ele>
        <time>2023-04-15T14:24:11Z</time>
      </trkpt>
      <trkpt lat="44.7946" lon="1.61366">
        <ele>187.1</ele>
        <time>2023-04-15T14:24:21Z</time>
      </trkpt>
      <trkpt lat="44.7946" lon="1.61379">
        <ele>189</ele>
        <time>2023-04-15T14:24:31Z</time>
      </trkpt>
      <trkpt lat="44.7946" lon="1.61393">
        <ele>190.5</ele>
        <time>2023-04-15T14:24:41Z</time>
      </trkpt>
      <trkpt lat="44.79459" lon="1.61406">
        <ele>192.7</ele>
        <time>2023-04-15T14:25:02Z</time>
      </trkpt>
      <trkpt lat="44.79459" lon="1.61419">
        <ele>193</ele>
        <time>2023-04-15T14:25:13Z</time>
      </trkpt>
      <trkpt lat="44.7946" lon="1.61433">
        <ele>193.2</ele>
        <time>2023-04-15T14:25:23Z</time>
      </trkpt>
      <trkpt lat="44.79464" lon="1.61445">
        <ele>190</ele>
        <time>2023-04-15T14:25:31Z</time>
      </trkpt>
      <trkpt lat="44.79469" lon="1.61456">
        <ele>187.2</ele>
        <time>2023-04-15T14:25:40Z</time>
      </trkpt>
      <trkpt lat="44.79473" lon="1.61469">
        <ele>185.4</ele>
        <time>2023-04-15T14:25:49Z</time>
      </trkpt>
      <trkpt lat="44.79476" lon="1.61481">
        <ele>185</ele>
        <time>2023-04-15T14:25:56Z</time>
      </trkpt>
      <trkpt lat="44.79479" lon="1.61493">
        <ele>184.3</ele>
        <time>2023-04-15T14:26:03Z</time>
      </trkpt>
      <trkpt lat="44.79486" lon="1.61504">
        <ele>181.7</ele>
        <time>2023-04-15T14:26:12Z</time>
      </trkpt>
      <trkpt lat="44.7949" lon="1.61516">
        <ele>180.7</ele>
        <time>2023-04-15T14:26:20Z</time>
      </trkpt>
      <trkpt lat="44.79496" lon="1.61527">
        <ele>178.4</ele>
        <time>2023-04-15T14:26:29Z</time>
      </trkpt>
      <trkpt lat="44.79502" lon="1.61516">
        <ele>173.5</ele>
        <time>2023-04-15T14:26:37Z</time>
      </trkpt>
      <trkpt lat="44.79496" lon="1.61507">
        <ele>175.6</ele>
        <time>2023-04-15T14:26:43Z</time>
      </trkpt>
      <trkpt lat="44.79497" lon="1.61494">
        <ele>173.2</ele>
        <time>2023-04-15T14:26:51Z</time>
      </trkpt>
      <trkpt lat="44.79498" lon="1.6148">
        <ele>170.6</ele>
        <time>2023-04-15T14:26:59Z</time>
      </trkpt>
      <trkpt lat="44.79497" lon="1.61467">
        <ele>168.8</ele>
        <time>2023-04-15T14:27:07Z</time>
      </trkpt>
      <trkpt lat="44.79496" lon="1.61453">
        <ele>168.2</ele>
        <time>2023-04-15T14:27:15Z</time>
      </trkpt>
      <trkpt lat="44.79505" lon="1.61457">
        <ele>163.1</ele>
        <time>2023-04-15T14:27:32Z</time>
      </trkpt>
      <trkpt lat="44.79513" lon="1.61463">
        <ele>160.1</ele>
        <time>2023-04-15T14:27:41Z</time>
      </trkpt>
      <trkpt lat="44.79519" lon="1.61472">
        <ele>158.2</ele>
        <time>2023-04-15T14:27:49Z</time>
      </trkpt>
      <trkpt lat="44.79526" lon="1.61482">
        <ele>156.7</ele>
        <time>2023-04-15T14:27:59Z</time>
      </trkpt>
      <trkpt lat="44.79533" lon="1.61491">
        <ele>154.7</ele>
        <time>2023-04-15T14:28:08Z</time>
      </trkpt>
      <trkpt lat="44.79539" lon="1.61502">
        <ele>153</ele>
        <time>2023-04-15T14:28:17Z</time>
      </trkpt>
      <trkpt lat="44.79545" lon="1.6151">
        <ele>151</ele>
        <time>2023-04-15T14:28:26Z</time>
      </trkpt>
      <trkpt lat="44.79554" lon="1.61516">
        <ele>147.5</ele>
        <time>2023-04-15T14:33:10Z</time>
      </trkpt>
      <trkpt lat="44.79561" lon="1.61526">
        <ele>146.4</ele>
        <time>2023-04-15T14:33:21Z</time>
      </trkpt>
      <trkpt lat="44.79567" lon="1.61536">
        <ele>146.1</ele>
        <time>2023-04-15T14:33:30Z</time>
      </trkpt>
      <trkpt lat="44.79574" lon="1.61545">
        <ele>144.7</ele>
        <time>2023-04-15T14:33:39Z</time>
      </trkpt>
      <trkpt lat="44.7958" lon="1.61556">
        <ele>143.4</ele>
        <time>2023-04-15T14:34:19Z</time>
      </trkpt>
      <trkpt lat="44.79586" lon="1.61565">
        <ele>140.6</ele>
        <time>2023-04-15T14:34:33Z</time>
      </trkpt>
      <trkpt lat="44.79593" lon="1.61575">
        <ele>139.1</ele>
        <time>2023-04-15T14:34:52Z</time>
      </trkpt>
      <trkpt lat="44.796" lon="1.61584">
        <ele>137.9</ele>
        <time>2023-04-15T14:35:01Z</time>
      </trkpt>
      <trkpt lat="44.79608" lon="1.61592">
        <ele>137.9</ele>
        <time>2023-04-15T14:35:10Z</time>
      </trkpt>
      <trkpt lat="44.79615" lon="1.61601">
        <ele>138.6</ele>
        <time>2023-04-15T14:35:19Z</time>
      </trkpt>
      <trkpt lat="44.79622" lon="1.61609">
        <ele>138.4</ele>
        <time>2023-04-15T14:35:29Z</time>
      </trkpt>
      <trkpt lat="44.7963" lon="1.61618">
        <ele>137.8</ele>
        <time>2023-04-15T14:35:51Z</time>
      </trkpt>
      <trkpt lat="44.79637" lon="1.61626">
        <ele>135.7</ele>
        <time>2023-04-15T14:36:00Z</time>
      </trkpt>
      <trkpt lat="44.79645" lon="1.61633">
        <ele>135.2</ele>
        <time>2023-04-15T14:36:09Z</time>
      </trkpt>
      <trkpt lat="44.79654" lon="1.61636">
        <ele>134.8</ele>
        <time>2023-04-15T14:36:21Z</time>
      </trkpt>
      <trkpt lat="44.79664" lon="1.61631">
        <ele>134.2</ele>
        <time>2023-04-15T14:36:30Z</time>
      </trkpt>
      <trkpt lat="44.79673" lon="1.61628">
        <ele>134.5</ele>
        <time>2023-04-15T14:36:53Z</time>
      </trkpt>
      <trkpt lat="44.79682" lon="1.61627">
        <ele>135.3</ele>
        <time>2023-04-15T14:37:12Z</time>
      </trkpt>
      <trkpt lat="44.79691" lon="1.61621">
        <ele>136.3</ele>
        <time>2023-04-15T14:37:30Z</time>
      </trkpt>
      <trkpt lat="44.79692" lon="1.61608">
        <ele>137.1</ele>
        <time>2023-04-15T14:38:52Z</time>
      </trkpt>
      <trkpt lat="44.79701" lon="1.6161">
        <ele>139.6</ele>
        <time>2023-04-15T14:39:34Z</time>
      </trkpt>
      <trkpt lat="44.7971" lon="1.61615">
        <ele>142</ele>
        <time>2023-04-15T14:39:57Z</time>
      </trkpt>
      <trkpt lat="44.79719" lon="1.61619">
        <ele>144</ele>
        <time>2023-04-15T14:40:11Z</time>
      </trkpt>
      <trkpt lat="44.79728" lon="1.61626">
        <ele>146.2</ele>
        <time>2023-04-15T14:40:23Z</time>
      </trkpt>
      <trkpt lat="44.79735" lon="1.61634">
        <ele>146.4</ele>
        <time>2023-04-15T14:40:35Z</time>
      </trkpt>
      <trkpt lat="44.79743" lon="1.6164">
        <ele>146.6</ele>
        <time>2023-04-15T14:40:46Z</time>
      </trkpt>
      <trkpt lat="44.79751" lon="1.61649">
        <ele>147.7</ele>
        <time>2023-04-15T14:40:57Z</time>
      </trkpt>
      <trkpt lat="44.79757" lon="1.61659">
        <ele>149.7</ele>
        <time>2023-04-15T14:41:06Z</time>
      </trkpt>
      <trkpt lat="44.79763" lon="1.61669">
        <ele>150.4</ele>
        <time>2023-04-15T14:41:15Z</time>
      </trkpt>
      <trkpt lat="44.79769" lon="1.61679">
        <ele>150.8</ele>
        <time>2023-04-15T14:41:24Z</time>
      </trkpt>
      <trkpt lat="44.79776" lon="1.61689">
        <ele>150.9</ele>
        <time>2023-04-15T14:41:35Z</time>
      </trkpt>
      <trkpt lat="44.79784" lon="1.61696">
        <ele>151.8</ele>
        <time>2023-04-15T14:41:47Z</time>
      </trkpt>
      <trkpt lat="44.79792" lon="1.61704">
        <ele>152.6</ele>
        <time>2023-04-15T14:41:59Z</time>
      </trkpt>
      <trkpt lat="44.798" lon="1.61708">
        <ele>155</ele>
        <time>2023-04-15T14:42:10Z</time>
      </trkpt>
      <trkpt lat="44.79809" lon="1.61713">
        <ele>157.8</ele>
        <time>2023-04-15T14:42:22Z</time>
      </trkpt>
      <trkpt lat="44.79817" lon="1.61719">
        <ele>160.4</ele>
        <time>2023-04-15T14:42:37Z</time>
      </trkpt>
      <trkpt lat="44.79825" lon="1.61726">
        <ele>162.4</ele>
        <time>2023-04-15T14:42:50Z</time>
      </trkpt>
      <trkpt lat="44.79834" lon="1.6173">
        <ele>166.3</ele>
        <time>2023-04-15T14:43:03Z</time>
      </trkpt>
      <trkpt lat="44.79842" lon="1.61738">
        <ele>168.5</ele>
        <time>2023-04-15T14:43:15Z</time>
      </trkpt>
      <trkpt lat="44.7985" lon="1.61745">
        <ele>168.8</ele>
        <time>2023-04-15T14:43:25Z</time>
      </trkpt>
      <trkpt lat="44.79859" lon="1.61751">
        <ele>168.2</ele>
        <time>2023-04-15T14:43:36Z</time>
      </trkpt>
      <trkpt lat="44.79869" lon="1.61752">
        <ele>172.8</ele>
        <time>2023-04-15T14:43:47Z</time>
      </trkpt>
      <trkpt lat="44.79877" lon="1.61759">
        <ele>174</ele>
        <time>2023-04-15T14:43:58Z</time>
      </trkpt>
      <trkpt lat="44.79886" lon="1.61752">
        <ele>183</ele>
        <time>2023-04-15T14:47:51Z</time>
      </trkpt>
      <trkpt lat="44.79888" lon="1.61767">
        <ele>174.7</ele>
        <time>2023-04-15T14:47:56Z</time>
      </trkpt>
      <trkpt lat="44.79894" lon="1.61777">
        <ele>169.7</ele>
        <time>2023-04-15T14:48:38Z</time>
      </trkpt>
      <trkpt lat="44.79903" lon="1.61784">
        <ele>169.3</ele>
        <time>2023-04-15T14:48:46Z</time>
      </trkpt>
      <trkpt lat="44.79911" lon="1.6179">
        <ele>168.9</ele>
        <time>2023-04-15T14:48:56Z</time>
      </trkpt>
      <trkpt lat="44.7992" lon="1.61791">
        <ele>170.7</ele>
        <time>2023-04-15T14:49:05Z</time>
      </trkpt>
      <trkpt lat="44.7993" lon="1.61793">
        <ele>171.5</ele>
        <time>2023-04-15T14:49:15Z</time>
      </trkpt>
      <trkpt lat="44.7994" lon="1.61793">
        <ele>173.5</ele>
        <time>2023-04-15T14:49:28Z</time>
      </trkpt>
      <trkpt lat="44.79948" lon="1.61797">
        <ele>173</ele>
        <time>2023-04-15T14:49:35Z</time>
      </trkpt>
      <trkpt lat="44.79958" lon="1.61796">
        <ele>176.4</ele>
        <time>2023-04-15T14:49:47Z</time>
      </trkpt>
      <trkpt lat="44.79968" lon="1.61799">
        <ele>175.9</ele>
        <time>2023-04-15T14:49:59Z</time>
      </trkpt>
      <trkpt lat="44.79977" lon="1.61804">
        <ele>173.5</ele>
        <time>2023-04-15T14:50:09Z</time>
      </trkpt>
      <trkpt lat="44.79986" lon="1.61808">
        <ele>172.4</ele>
        <time>2023-04-15T14:50:23Z</time>
      </trkpt>
      <trkpt lat="44.79994" lon="1.61812">
        <ele>172.4</ele>
        <time>2023-04-15T14:50:31Z</time>
      </trkpt>
      <trkpt lat="44.80004" lon="1.61811">
        <ele>174.3</ele>
        <time>2023-04-15T14:50:40Z</time>
      </trkpt>
      <trkpt lat="44.80012" lon="1.61815">
        <ele>175</ele>
        <time>2023-04-15T14:50:51Z</time>
      </trkpt>
      <trkpt lat="44.8002" lon="1.61825">
        <ele>172.9</ele>
        <time>2023-04-15T14:50:59Z</time>
      </trkpt>
      <trkpt lat="44.80029" lon="1.61832">
        <ele>171.8</ele>
        <time>2023-04-15T14:51:08Z</time>
      </trkpt>
      <trkpt lat="44.80037" lon="1.61841">
        <ele>171.4</ele>
        <time>2023-04-15T14:51:16Z</time>
      </trkpt>
      <trkpt lat="44.80045" lon="1.61849">
        <ele>171.1</ele>
        <time>2023-04-15T14:51:23Z</time>
      </trkpt>
      <trkpt lat="44.80053" lon="1.61854">
        <ele>171.3</ele>
        <time>2023-04-15T14:51:30Z</time>
      </trkpt>
      <trkpt lat="44.8006" lon="1.61862">
        <ele>171</ele>
        <time>2023-04-15T14:51:38Z</time>
      </trkpt>
      <trkpt lat="44.80069" lon="1.61868">
        <ele>171.6</ele>
        <time>2023-04-15T14:51:46Z</time>
      </trkpt>
      <trkpt lat="44.80076" lon="1.61876">
        <ele>171.7</ele>
        <time>2023-04-15T14:51:53Z</time>
      </trkpt>
      <trkpt lat="44.80085" lon="1.61882">
        <ele>173</ele>
        <time>2023-04-15T14:52:01Z</time>
      </trkpt>
      <trkpt lat="44.80092" lon="1.61889">
        <ele>174.2</ele>
        <time>2023-04-15T14:52:09Z</time>
      </trkpt>
      <trkpt lat="44.801" lon="1.61899">
        <ele>174</ele>
        <time>2023-04-15T14:52:17Z</time>
      </trkpt>
      <trkpt lat="44.80106" lon="1.61909">
        <ele>173.6</ele>
        <time>2023-04-15T14:52:26Z</time>
      </trkpt>
      <trkpt lat="44.80114" lon="1.61917">
        <ele>174.2</ele>
        <time>2023-04-15T14:52:34Z</time>
      </trkpt>
      <trkpt lat="44.80121" lon="1.61924">
        <ele>175.4</ele>
        <time>2023-04-15T14:52:46Z</time>
      </trkpt>
    </trkseg>
  </trk>
</gpx>